     2.11           OBSERVATION DATA    G (GPS)             RINEX VERSION / TYPE
teqc 2010Oct21 OPUS Account 20111027 19:14:30UTC            PGM / RUN BY / DATE
Z 1525                                                      MARKER NAME
3034                                                        MARKER NUMBER
CSMIDDLETON NGS                                             OBSERVER / AGENCY
4624K01647 TRIMBLE NETR5 4.41                               REC # / TYPE / VERS
12694052 TRM41249.00 NONE                                   ANT # / TYPE
  -757667.1960 -5560746.1975  3020580.3052                  APPROX POSITION XYZ
        2.0040        0.0000        0.0000                  ANTENNA: DELTA H/E/N
     1     1                                                WAVELENGTH FACT L1/2
     5    L1    L2    C1    P1    P2                        # / TYPES OF OBSERV
    15                                                      LEAP SECONDS
  2011     8    19     0     0    0.0000000     GPS         TIME OF FIRST OBS
                                                            END OF HEADER
 11  8 19  0  0  0.0000000  0  7G12G17G05G09G10G04G02
 116121998.96218  90484740.83417  22097283.516                    22097290.219
 119403275.70417  93041569.76217  22721680.578                    22721689.055
 120230289.72917  93686068.60017  22879062.953                    22879072.715
 120737672.00217  94081381.76354  22975619.516                    22975628.836
 110544886.45218  86138978.17556  21035979.797                    21035987.594
 110492020.79518  86097778.40056  21025918.844                    21025926.934
 108735701.45518  84729272.47256  20691712.492                    20691717.844
 11  8 19  0  0 30.0000000  0  7G12G17G05G09G10G04G02
 116043827.697 8  90423828.193 7  22082407.766                    22082415.191
 119448800.741 7  93077043.791 7  22730343.391                    22730352.273
 120129157.892 7  93607264.691 7  22859817.461                    22859827.332
 120803534.962 7  94132703.51444  22988152.859                    22988162.535
 110514971.941 8  86115668.18246  21030287.375                    21030295.195
 110559525.571 8  86150379.49646  21038764.742                    21038772.328
 108720188.425 8  84717184.41946  20688760.672                    20688766.094
 11  8 19  0  1  0.0000000  0  7G12G17G05G09G10G04G02
 115965961.557 7  90363153.318 7  22067590.352                    22067597.480
 119494451.122 7  93112615.471 7  22739030.383                    22739038.918
 120028185.962 7  93528585.375 7  22840603.211                    22840612.922
 120869729.736 7  94184283.78944  23000749.148                    23000759.090
 110485641.201 8  86092813.09246  21024705.695                    21024713.719
 110627273.258 8  86203169.88846  21051656.609                    21051664.414
 108705012.534 8  84705359.06546  20685872.781                    20685877.965
 11  8 19  0  1 30.0000000  0  7G12G17G05G09G10G04G02
 115888403.429 7  90302718.421 7  22052831.406                    22052838.348
 119540227.044 7  93148285.000 7  22747741.508                    22747749.934
 119927376.390 7  93450032.569 7  22821419.609                    22821429.500
 120936252.871 7  94236119.96044  23013408.109                    23013418.168
 110456895.330 8  86070413.73746  21019235.750                    21019243.641
 110695261.135 8  86256147.42246  21064594.250                    21064602.094
 108690172.789 8  84693795.65046  20683048.797                    20683054.188
 11  8 19  0  2  0.0000000  0  7G12G17G05G09G10G04G02
 115811155.783 7  90242525.483 7  22038131.633                    22038139.098
 119586129.995 7  93184053.492 7  22756476.695                    22756485.355
 119826732.753 7  93371609.074 7  22802267.977                    22802277.469
 121003101.398 7  94288209.65644  23026129.414                    23026138.922
 110428736.477 8  86048471.80446  21013876.984                    21013885.016
 110763487.487 8  86309310.79146  21077577.625                    21077585.512
 108675669.091 8  84682494.09446  20680288.945                    20680294.258
 11  8 19  0  2 30.0000000  0  7G12G17G05G09G10G04G02
 115734221.509 8  90182576.733 7  22023491.422                    22023498.941
 119632160.343 7  93219921.281 7  22765236.016                    22765244.039
 119726258.210 7  93293317.342 7  22783148.117                    22783157.809
 121070272.098 7  94340550.42844  23038911.703                    23038921.086
 110401166.136 8  86026988.46246  21008630.617                    21008639.004
 110831950.039 8  86362658.21646  21090605.141                    21090613.438
 108661500.629 8  84671453.75346  20677592.750                    20677597.988
 11  8 19  0  3  0.0000000  0  7G12G17G05G09G10G04G02
 115657602.910 7  90122873.953 7  22008911.633                    22008918.992
 119678318.536 7  93255888.691 7  22774019.430                    22774027.934
 119625955.260 7  93215159.300 7  22764060.477                    22764069.980
 121137761.386 7  94393139.44244  23051754.133                    23051764.457
 110374185.600 8  86005964.70846  21003496.125                    21003504.707
 110900646.245 8  86416187.69646  21103678.008                    21103685.555
 108647666.103 8  84660673.62546  20674959.781                    20674965.297
 11  8 19  0  3 30.0000000  0  7G12G17G05G09G10G04G02
 115581302.989 7  90063419.498 7  21994391.586                    21994399.691
 119724605.584 7  93291956.505 7  22782827.758                    22782836.078
 119525827.188 7  93137137.524 7  22745007.313                    22745016.516
 121205566.347 7  94445974.41444  23064657.203                    23064667.176
 110347797.071 8  85985402.24646  20998474.742                    20998483.066
 110969574.198 8  86469897.77446  21116794.164                    21116802.074
 108634165.147 8  84650153.42246  20672390.703                    20672395.781
 11  8 19  0  4  0.0000000  0  7G12G17G05G09G10G04G02
 115505324.047 7  90004215.154 7  21979933.516                    21979941.176
 119771021.894 7  93328125.001 7  22791660.688                    22791669.219
 119425877.198 7  93059254.527 7  22725987.141                    22725997.160
 121273683.252 7  94499052.46744  23077619.188                    23077629.090
 110322001.746 8  85965302.04046  20993565.969                    20993574.141
 111038731.402 8  86523786.50246  21129954.625                    21129962.805
 108620996.645 8  84639892.27446  20669884.953                    20669890.301
 11  8 19  0  4 30.0000000  0  7G12G17G05G09G10G04G02
 115429668.654 7  89945262.921 7  21965536.703                    21965543.879
 119817568.128 7  93364394.720 7  22800517.852                    22800526.152
 119326108.074 7  92981512.453 7  22707001.742                    22707011.207
 121342108.727 7  94552370.97244  23090640.422                    23090650.207
 110296800.806 8  85945664.97346  20988770.422                    20988778.523
 111108115.364 8  86577851.92346  21143157.602                    21143166.207
 108608159.577 8  84629889.39046  20667442.430                    20667447.668
 11  8 19  0  5  0.0000000  0  7G12G17G05G09G10G04G02
 115354339.460 7  89886564.881 7  21951202.305                    21951209.551
 119864244.867 7  93400766.147 7  22809400.898                    22809408.672
 119226522.740 7  92903913.593 7  22688051.328                    22688060.613
 121410839.355 7  94605927.24344  23103719.750                    23103729.063
 110272195.846 8  85926492.30946  20984088.602                    20984096.340
 111177724.103 8  86632092.49246  21156403.945                    21156412.039
 108595653.173 8  84620144.15446  20665061.906                    20665067.242
 11  8 19  0  5 30.0000000  0  7G12G17G05G09G10G04G02
 115279338.915 7  89828122.929 7  21936930.141                    21936937.746
 119911052.662 7  93437239.730 6  22818307.773                    22818315.711
 119127123.884 7  92826460.061 7  22669136.609                    22669145.703
 121479871.947 6  94659718.82843  23116855.375                    23116865.395
 110248187.881 8  85907784.82946  20979519.891                    20979527.441
 111247554.861 8  86686506.06346  21169692.063                    21169700.418
 108583476.346 8  84610655.75446  20662744.688                    20662749.719
 11  8 19  0  6  0.0000000  0  7G12G17G05G09G10G04G02
 115204669.604 7  89769939.084 7  21922721.086                    21922728.680
 119957992.432 7  93473816.124 7  22827239.570                    22827248.352
 119027915.051 7  92749154.584 7  22650257.617                    22650266.641
 121549203.319 7  94713743.20444  23130049.680                    23130059.156
 110224778.923 8  85889544.10046  20975064.938                    20975073.398
 111317605.945 8  86741091.32046  21183022.555                    21183030.355
 108571628.495 8  84601423.67146  20660490.445                    20660495.488
 11  8 19  0  6 30.0000000  0  8G12G17G05G09G10G30G04G02
 115130334.433 8  89712015.600 7  21908575.820                    21908583.188
 120005064.870 7  93510495.873 7  22836197.813                    22836205.992
 118928899.178 7  92671999.476 7  22631414.859                    22631424.207
 121618830.032 6  94767997.72044  23143299.063                    23143308.629
 110201970.284 7  85871771.15746  20970724.727                    20970732.461
 128012435.98116  99750035.43753  24359967.469                    24359977.648
 111387874.842 8  86795846.30246  21196393.852                    21196401.996
 108560108.979 8  84592447.44346  20658298.055                    20658303.469
 11  8 19  0  7  0.0000000  0  8G12G17G05G09G10G30G04G02
 115056335.154 7  89654353.874 7  21894493.516                    21894501.316
 120052269.913 7  93547278.984 6  22845181.016                    22845188.762
 118830078.597 7  92594996.550 7  22612610.344                    22612618.781
 121688748.121 6  94822479.31244  23156603.906                    23156613.543
 110179762.424 8  85854466.34446  20966498.633                    20966507.172
 127906902.162 6  99667801.29543  24339884.992                    24339894.766
 111458358.637 8  86850768.73746  21209807.023                    21209814.813
 108548915.904 8  84583725.58446  20656168.172                    20656173.652
 11  8 19  0  7 30.0000000  0  8G12G17G05G09G10G30G04G02
 114982674.566 7  89596956.051 7  21880476.516                    21880484.371
 120099608.654 7  93584166.286 6  22854188.773                    22854196.742
 118731456.550 7  92518148.319 7  22593842.469                    22593852.297
 121758954.502 6  94877185.53144  23169963.492                    23169973.355
 110158157.104 8  85837631.05546  20962387.211                    20962395.473
 127801535.799 6  99585697.62943  24319835.141                    24319844.383
 111529055.516 8  86905857.20645  21223260.094                    21223267.906
 108538048.797 8  84575257.72346  20654100.453                    20654105.488
 11  8 19  0  8  0.0000000  0  8G12G17G05G09G10G30G04G02
 114909355.523 7  89539824.378 7  21866524.367                    21866532.254
 120147081.811 7  93621158.343 6  22863221.703                    22863230.648
 118633036.147 7  92441457.197 7  22575114.102                    22575123.027
 121829446.207 6  94932114.04243  23183378.219                    23183387.598
 110137155.835 8  85821266.46446  20958390.680                    20958398.836
 127696339.825 6  99503726.76443  24299816.828                    24299826.617
 111599963.575 8  86961110.22646  21236753.508                    21236761.289
 108527506.857 8  84567043.23846  20652094.117                    20652099.609
 11  8 19  0  8 30.0000000  0  8G12G17G05G09G10G30G04G02
 114836381.053 7  89482961.186 7  21852637.922                    21852645.977
 120194689.711 7  93658255.356 6  22872282.164                    22872290.438
 118534820.484 7  92364925.606 7  22556423.938                    22556433.145
 121900219.806 6  94987262.26343  23196845.758                    23196855.457
 110116759.613 8  85805373.32446  20954509.898                    20954517.715
 127591316.774 6  99421890.60843  24279832.258                    24279841.516
 111671080.087 8  87016525.67945  21250286.234                    21250294.129
 108517289.093 8  84559081.35346  20650150.195                    20650155.418
 11  8 19  0  9  0.0000000  0  8G12G17G05G09G10G30G04G02
 114763753.173 7  89426368.080 7  21838817.367                    21838825.043
 120242433.291 7  93695458.117 6  22881367.563                    22881375.926
 118436812.467 7  92288555.841 7  22537773.719                    22537782.820
 121971272.088 7  95042627.63844  23210366.875                    23210376.465
 110096969.633 8  85789952.59146  20950743.523                    20950751.516
 127486469.618 6  99340191.58343  24259879.352                    24259889.750
 111742403.302 8  87072102.19146  21263858.586                    21263866.473
 108507394.732 8  84551371.48546  20648266.859                    20648272.574
 11  8 19  0  9 30.0000000  0  8G12G17G05G09G10G30G04G02
 114691474.594 7  89370047.154 7  21825062.930                    21825070.063
 120290313.154 7  93732767.061 6  22890478.078                    22890486.672
 118339015.430 7  92212350.450 7  22519164.023                    22519172.488
 122042599.546 7  95098207.39843  23223939.797                    23223950.000
 110077787.417 8  85775005.43446  20947093.711                    20947101.676
 127381801.241 6  99258631.90543  24239961.648                    24239972.395
 111813930.854 8  87127837.93946  21277469.930                    21277477.875
 108497823.112 8  84543913.09246  20646445.359                    20646450.676
 11  8 19  0 10  0.0000000  0  8G12G17G05G09G10G30G04G02
 114619547.749 7  89314000.288 7  21811375.852                    21811383.277
 120338330.149 7  93770182.875 6  22899616.211                    22899623.695
 118241432.086 7  92136311.568 7  22500593.930                    22500602.773
 122114198.733 6  95153998.89843  23237564.852                    23237574.328
 110059214.236 8  85760532.86046  20943559.195                    20943567.227
 127277314.181 6  99177213.45643  24220079.023                    24220088.332
 111885660.411 8  87183731.08846  21291119.664                    21291128.184
 108488573.062 8  84536705.28146  20644685.383                    20644690.758
 11  8 19  0 10 30.0000000  0  8G12G17G05G09G10G30G04G02
 114547975.089 8  89258229.408 7  21797755.625                    21797763.496
 120386484.604 7  93807705.787 6  22908779.242                    22908787.820
 118144065.232 7  92060441.401 7  22482065.469                    22482074.383
 122186066.025 7  95209999.33143  23251241.289                    23251250.230
 110041250.651 8  85746535.29546  20940140.695                    20940148.820
 127173010.968 6  99095938.31243  24200230.484                    24200240.371
 111957589.762 8  87239779.92345  21304807.305                    21304815.344
 108479643.055 8  84529746.84446  20642986.109                    20642991.547
 11  8 19  0 11  0.0000000  0  8G12G17G05G09G10G30G04G02
 114476759.330 7  89202736.644 7  21784204.063                    21784211.590
 120434777.099 7  93845336.262 6  22917969.781                    22917977.699
 118046918.193 7  91984742.527 7  22463578.984                    22463588.449
 122258198.209 7  95266206.17444  23264967.156                    23264976.277
 110023898.118 8  85733013.88346  20936838.430                    20936846.641
 127068894.669 6  99014808.81643  24180417.555                    24180426.605
 112029716.638 8  87295982.67645  21318532.344                    21318540.789
 108471032.641 8  84523037.44546  20641347.398                    20641352.609
 11  8 19  0 11 30.0000000  0  9G12G17G05G09G10G30G25G04G02
 114405903.644 8  89147524.450 7  21770720.398                    21770727.953
 120483208.597 7  93883075.062 7  22927185.422                    22927194.055
 117949993.862 7  91909217.177 7  22445135.250                    22445143.746
 122330591.985 6  95322616.85943  23278743.109                    23278752.797
 110007157.733 8  85719969.45646  20933652.836                    20933661.230
 126964968.166 6  98933827.22142  24160640.656                    24160650.063
 129550910.19316 100948852.07616  24652735.625                    24652747.105
 112102039.241 8  87352337.94046  21332295.500                    21332303.645
 108462741.142 8  84516576.55146  20639769.727                    20639775.094
 11  8 19  0 12  0.0000000  0  9G12G17G05G09G10G30G25G04G02
 114335409.412 8  89092593.906 7  21757305.820                    21757313.316
 120531779.463 7  93920922.472 6  22936428.523                    22936436.383
 117853294.851 7  91833867.424 7  22426733.594                    22426742.836
 122403243.799 6  95379228.59944  23292567.711                    23292578.164
 109991030.169 8  85707402.56446  20930583.813                    20930591.727
 126861233.720 5  98852995.29642  24140900.297                    24140909.387
 129447708.326 6 100868435.075 6  24633097.539                    24633109.098
 112174554.924 8  87408843.66145  21346094.516                    21346102.473
 108454766.856 8  84510362.82746  20638252.016                    20638257.414
 11  8 19  0 12 30.0000000  0  9G12G17G05G09G10G30G25G04G02
 114265279.353 8  89037947.146 7  21743960.516                    21743968.211
 120580490.354 7  93958878.981 6  22945698.242                    22945705.910
 117756824.443 7  91758695.805 7  22408375.523                    22408384.613
 122476150.384 7  95436038.85244  23306442.250                    23306452.391
 109975516.855 8  85695314.29646  20927632.008                    20927639.633
 126757694.486 5  98772315.43442  24121196.883                    24121206.188
 129344612.332 6 100788100.617 6  24613479.406                    24613490.391
 112247261.392 8  87465498.03245  21359930.133                    21359938.320
 108447109.248 8  84504395.87846  20636795.359                    20636800.148
 11  8 19  0 13  0.0000000  0  9G12G17G05G09G10G30G25G04G02
 114195516.374 7  88983586.406 7  21730684.945                    21730692.184
 120629342.118 7  93996945.245 6  22954994.070                    22955002.469
 117660585.762 7  91683704.744 7  22390061.539                    22390071.031
 122549308.531 6  95493045.13844  23320363.313                    23320373.547
 109960618.702 8  85683705.36946  20924796.906                    20924804.477
 126654353.159 6  98691789.84742  24101533.297                    24101541.059
 129241624.511 6 100707850.442 6  24593880.727                    24593892.055
 112320156.773 8  87522299.61945  21373801.375                    21373809.789
 108439767.259 8  84498674.86146  20635397.586                    20635403.434
 11  8 19  0 13 30.0000000  0  9G12G17G05G09G10G30G25G04G02
 114126123.277 7  88929513.895 7  21717480.055                    21717487.371
 120678335.059 7  94035121.517 7  22964317.109                    22964325.613
 117564581.728 7  91608896.520 7  22371792.914                    22371801.777
 122622714.871 6  95550244.83744  23334332.391                    23334342.254
 109946336.893 7  85672576.71046  20922078.938                    20922086.813
 126551212.862 6  98611420.83542  24081905.273                    24081913.551
 129138747.614 7 100627686.721 6  24574303.945                    24574315.684
 112393238.840 7  87579246.66245  21387708.672                    21387717.234
 108432740.083 8  84493199.14946  20634060.695                    20634066.148
 11  8 19  0 14  0.0000000  0  9G12G17G05G09G10G30G25G04G02
 114057102.189 7  88875731.236 7  21704345.914                    21704353.555
 120727469.872 7  94073408.353 7  22973666.969                    22973675.605
 117468815.515 7  91534273.602 7  22353569.523                    22353577.738
 122696365.745 6  95607635.05144  23348347.188                    23348357.211
 109932672.244 8  85661928.93546  20919478.953                    20919486.824
 126448276.134 6  98531210.44443  24062317.203                    24062325.559
 129035984.003 7 100547611.286 6  24554748.297                    24554760.160
 112466505.469 7  87636337.52945  21401650.914                    21401659.094
 108426026.523 8  84487967.81746  20632782.867                    20632788.438
 11  8 19  0 14 30.0000000  0  9G12G17G05G09G10G30G25G04G02
 113988455.578 7  88822240.385 7  21691282.836                    21691290.250
 120776747.249 7  94111806.255 7  22983044.680                    22983052.477
 117373289.642 7  91459837.951 7  22335391.695                    22335399.945
 122770257.665 6  95665213.08544  23362408.867                    23362419.469
 109919625.435 8  85651762.61746  20916995.688                    20917003.945
 126345545.570 6  98451160.67643  24042768.242                    24042777.586
 128933335.879 6 100467625.829 7  24535214.953                    24535226.898
 112539954.339 7  87693570.40545  21415627.656                    21415635.715
 108419625.312 8  84482979.86746  20631564.836                    20631570.047
 11  8 19  0 15  0.0000000  0  9G12G17G05G09G10G30G25G04G02
 113920185.816 7  88769043.197 7  21678290.875                    21678298.469
 120826167.820 7  94150315.753 7  22992448.648                    22992457.332
 117278006.985 7  91385591.804 7  22317259.383                    22317267.754
 122844387.417 7  95722976.44244  23376515.500                    23376525.703
 109907197.102 8  85642078.21946  20914631.109                    20914638.902
 126243023.965 6  98371273.70743  24023258.797                    24023268.535
 128830805.741 6 100387732.303 6  24515704.289                    24515716.566
 112613583.131 8  87750943.46645  21429638.875                    21429647.047
 108413535.405 8  84478234.49546  20630406.141                    20630411.434
 11  8 19  0 15 30.0000000  0  9G12G17G05G09G10G30G25G04G02
 113852295.525 7  88716141.695 7  21665371.836                    21665379.656
 120875732.165 7  94188937.256 6  23001880.656                    23001889.328
 117182970.944 7  91311537.844 7  22299175.039                    22299182.820
 122918751.624 7  95780922.50044  23390666.500                    23390676.129
 109895388.477 8  85632876.71446  20912383.797                    20912391.820
 126140714.366 6  98291551.96543  24003790.859                    24003799.941
 128728396.295 6 100307932.832 6  24496215.719                    24496228.199
 112687389.907 8  87808455.22445  21443683.883                    21443691.992
 108407756.239 8  84473731.27246  20629306.305                    20629311.672
 11  8 19  0 16  0.0000000  0  9G12G17G05G09G10G30G25G04G02
 113784787.473 7  88663538.047 7  21652525.945                    21652533.219
 120925440.923 7  94227671.293 7  23011339.516                    23011348.270
 117088184.471 7  91237678.348 7  22281137.367                    22281145.668
 122993346.754 7  95839048.48944  23404861.781                    23404871.852
 109884200.642 8  85624158.94046  20910254.906                    20910262.387
 126038619.713 6  98211997.67143  23984362.305                    23984371.648
 128626110.120 6 100228229.407 6  24476752.148                    24476763.891
 112761372.652 8  87866104.09845  21457762.305                    21457770.445
 108402286.682 8  84469469.28546  20628265.219                    20628270.902
 11  8 19  0 16 30.0000000  0  9G12G17G05G09G10G30G25G04G02
 113717663.646 7  88611233.796 7  21639752.398                    21639759.910
 120975294.740 7  94266518.360 7  23020826.961                    23020835.688
 116993650.015 7  91164015.217 7  22263148.078                    22263156.176
 123068169.381 7  95897351.77644  23419100.305                    23419110.082
 109873633.825 8  85615925.08146  20908243.750                    20908251.957
 125936742.397 6  98132612.78043  23964976.141                    23964985.082
 128523949.506 6 100148623.810 6  24457310.992                    24457323.918
 112835528.954 8  87923888.20845  21471874.203                    21471881.645
 108397125.441 8  84465447.54946  20627283.211                    20627288.941
 11  8 19  0 17  0.0000000  0  9G12G17G05G09G10G30G25G04G02
 113650926.976 7  88559231.228 7  21627052.898                    21627059.992
 121025294.235 7  94305478.915 7  23030341.758                    23030349.754
 116899370.838 7  91090551.008 7  22245207.141                    22245215.527
 123143216.114 7  95955829.64544  23433380.805                    23433391.535
 109863688.944 8  85608175.84146  20906351.398                    20906359.652
 125835085.597 6  98053399.70943  23945631.609                    23945640.516
 128421917.227 6 100069118.188 6  24437895.227                    24437907.230
 112909856.737 8  87981805.94545  21486018.156                    21486026.098
 108392271.633 8  84461665.36946  20626359.914                    20626365.309
 11  8 19  0 17 30.0000000  0  9G12G17G05G09G10G30G25G04G02
 113584579.979 7  88507532.296 7  21614427.516                    21614434.883
 121075440.101 7  94344553.547 7  23039884.086                    23039893.008
 116805350.052 7  91017288.152 7  22227315.477                    22227324.133
 123218483.723 7  96014479.65744  23447704.344                    23447714.227
 109854367.027 8  85600912.03146  20904577.375                    20904585.922
 125733652.157 6  97974360.68043  23926329.391                    23926338.660
 128320015.748 6  99989714.459 6  24418503.539                    24418515.992
 112984354.267 8  88039855.95845  21500194.656                    21500202.570
 108387724.444 8  84458122.11646  20625494.125                    20625500.184
 11  8 19  0 18  0.0000000  0  9G12G17G05G09G10G30G25G04G02
 113518624.676 7  88456138.591 7  21601876.133                    21601883.797
 121125733.039 7  94383742.814 6  23049454.492                    23049462.738
 116711590.700 7  90944229.041 7  22209473.250                    22209482.387
 123293968.715 7  96073299.04944  23462068.180                    23462078.219
 109845668.859 8  85594134.25046  20902922.594                    20902930.207
 125632444.794 6  97895497.81043  23907069.789                    23907079.684
 128218247.552 6  99910414.571 6  24399137.969                    24399149.965
 113059018.906 8  88098036.18845  21514402.578                    21514410.832
 108383482.865 8  84454817.00446  20624687.336                    20624692.293
 11  8 19  0 18 30.0000000  0  9G12G17G05G09G10G30G25G04G02
 113453063.707 7  88405052.142 7  21589401.109                    21589407.945
 121176173.294 7  94423046.870 7  23059053.125                    23059061.168
 116618095.295 7  90871375.564 7  22191682.063                    22191690.961
 123369667.425 7  96132284.99244  23476473.563                    23476483.270
 109837594.800 8  85587842.78446  20901385.680                    20901393.875
 125531466.161 6  97816813.21043  23887854.188                    23887863.492
 128116614.981 6  99831220.357 6  24379798.109                    24379809.898
 113133848.728 8  88156345.11445  21528642.461                    21528649.918
 108379545.145 8  84451748.67246  20623937.766                    20623942.980
 11  8 19  0 19  0.0000000  0  9G12G17G05G09G10G30G25G04G02
 113387899.845 7  88354275.151 7  21577000.398                    21577007.773
 121226761.690 7  94462466.338 6  23068679.102                    23068688.043
 116524867.057 7  90798730.284 7  22173940.852                    22173950.051
 123445576.776 7  96191435.06144  23490918.898                    23490928.480
 109830145.262 7  85582037.96646  20899968.336                    20899976.117
 125430719.261 6  97738309.16243  23868682.398                    23868691.754
 128015120.877 6  99752133.997 6  24360484.172                    24360496.348
 113208841.625 8  88214781.12045  21542912.727                    21542920.891
 108375910.782 8  84448916.71546  20623246.055                    20623251.230
 11  8 19  0 19 30.0000000  0  9G12G17G05G09G10G30G25G04G02
 113323134.952 7  88303809.025 7  21564676.164                    21564683.660
 121277498.579 7  94502001.496 7  23078334.328                    23078343.355
 116431908.808 7  90726295.376 7  22156251.695                    22156260.246
 123521693.210 7  96250746.48344  23505402.914                    23505413.258
 109823320.866 8  85576720.27546  20898669.844                    20898677.703
 125330206.698 6  97659987.75643  23849554.523                    23849564.953
 127913767.500 7  99673157.335 6  24341197.914                    24341209.316
 113283995.390 8  88273342.48345  21557214.289                    21557222.344
 108372578.213 8  84446319.92046  20622612.141                    20622617.098
 11  8 19  0 20  0.0000000  0  9G12G17G05G09G10G30G25G04G02
 113258771.898 7  88253656.029 7  21552427.992                    21552435.535
 121328384.629 7  94541652.868 7  23088017.969                    23088027.121
 116339223.643 7  90654073.265 7  22138614.063                    22138623.270
 123598013.508 7  96310216.75544  23519926.336                    23519936.633
 109817122.232 7  85571890.18746  20897490.188                    20897497.965
 125229931.589 6  97581851.31843  23830473.641                    23830482.867
 127812557.587 7  99594292.464 6  24321938.227                    24321949.621
 113359308.040 8  88332027.64445  21571545.898                    21571554.070
 108369546.979 7  84443957.93146  20622035.117                    20622040.441
 11  8 19  0 20 30.0000000  0  9G12G17G05G09G10G30G25G04G02
 113194812.491 7  88203817.548 7  21540256.844                    21540264.891
 121379420.538 7  94581421.055 6  23097730.016                    23097738.750
 116246814.158 7  90582065.965 7  22121029.086                    22121037.793
 123674533.882 7  96369842.93244  23534488.031                    23534498.215
 109811549.966 7  85567548.19146  20896429.930                    20896437.387
 125129896.327 6  97503901.77543  23811437.953                    23811446.777
 127711493.488 7  99515541.209 6  24302706.383                    24302717.563
 113434777.211 8  88390834.76945  21585906.859                    21585915.063
 108366815.375 7  84441829.41946  20621515.234                    20621520.633
 11  8 19  0 21  0.0000000  0  9G12G17G05G09G10G30G25G04G02
 113131259.220 7  88154295.551 7  21528163.125                    21528170.656
 121430606.835 7  94621306.428 6  23107469.938                    23107479.391
 116154683.182 7  90510275.681 7  22103496.859                    22103505.828
 123751251.046 7  96429622.48544  23549087.641                    23549097.152
 109806604.696 8  85563694.75246  20895488.602                    20895496.215
 125030103.938 6  97426141.48943  23792448.242                    23792456.516
 127610577.812 7  99436905.613 6  24283502.945                    24283514.484
 113510401.219 8  88449762.53645  21600297.836                    21600305.727
 108364382.433 8  84439933.64046  20621052.320                    20621057.555
 11  8 19  0 21 30.0000000  0  9G12G17G05G09G10G30G25G04G02
 113068114.905 8  88105092.197 7  21516147.648                    21516154.586
 121481944.093 7  94661309.469 6  23117239.602                    23117248.133
 116062834.035 7  90438704.998 7  22086018.625                    22086027.305
 123828161.507 7  96489552.67244  23563722.891                    23563732.320
 109802286.791 7  85560330.17746  20894666.547                    20894674.688
 124930557.250 7  97348572.67343  23773504.602                    23773513.773
 127509813.082 7  99358387.668 6  24264327.773                    24264339.297
 113586177.723 8  88508809.13945  21614718.125                    21614725.957
 108362247.044 7  84438269.71046  20620646.164                    20620651.121
 11  8 19  0 22  0.0000000  0  9G12G17G05G09G10G30G25G04G02
 113005381.750 8  88056209.236 7  21504209.742                    21504216.938
 121533433.034 7  94701430.709 6  23127037.281                    23127046.453
 115971269.380 7  90367356.001 7  22068594.648                    22068603.164
 123905262.142 7  96549631.03644  23578393.938                    23578404.828
 109798596.905 8  85557454.96846  20893965.219                    20893973.109
 124831259.229 7  97271197.64343  23754608.523                    23754618.715
 127409202.032 7  99279989.463 6  24245181.852                    24245193.668
 113662104.638 8  88567972.95845  21629166.102                    21629174.047
 108360408.396 8  84436837.00446  20620296.180                    20620301.590
 11  8 19  0 22 30.0000000  0  9G12G17G05G09G10G30G25G04G02
 112943062.643 8  88007648.920 7  21492350.766                    21492358.246
 121585074.323 7  94741670.656 6  23136864.102                    23136872.438
 115879992.363 7  90296231.127 7  22051224.797                    22051233.539
 123982549.547 7  96609854.90144  23593101.711                    23593111.973
 109795535.656 7  85555069.60746  20893382.047                    20893390.262
 124732212.813 7  97194018.65043  23735760.430                    23735770.688
 127308747.350 6  99201713.103 6  24226065.508                    24226077.883
 113738180.450 8  88627252.77845  21643643.109                    21643650.848
 108358865.441 7  84435634.71146  20620002.320                    20620008.039
 11  8 19  0 23  0.0000000  0  9G12G17G05G09G10G30G25G04G02
 112881159.540 8  87959412.760 7  21480570.516                    21480578.188
 121636868.533 7  94782029.729 6  23146720.531                    23146729.426
 115789005.852 7  90225332.640 7  22033910.422                    22033919.801
 124060020.150 7  96670221.53443  23607844.477                    23607854.020
 109793102.993 7  85553174.05246  20892919.336                    20892926.910
 124633420.802 7  97117037.93143  23716961.508                    23716971.133
 127208451.620 6  99123560.591 6  24206979.852                    24206991.633
 113814402.682 8  88686646.70145  21658147.523                    21658155.777
 108357617.057 8  84434661.96746  20619764.844                    20619770.133
 11  8 19  0 23 30.0000000  0  9G12G17G05G09G10G30G25G04G02
 112819675.179 8  87911502.897 7  21468871.141                    21468878.660
 121688816.292 7  94822508.443 6  23156606.078                    23156614.578
 115698313.074 7  90154663.015 7  22016652.523                    22016661.281
 124137670.810 6  96730728.49843  23622620.063                    23622629.605
 109791299.922 8  85551769.08746  20892576.156                    20892583.859
 124534886.248 7  97040257.76343  23698210.391                    23698220.469
 127108317.541 6  99045534.090 6  24187924.938                    24187936.723
 113890769.706 8  88746153.44945  21672679.875                    21672687.934
 108356662.495 8  84433918.15646  20619583.211                    20619588.117
 11  8 19  0 24  0.0000000  0  9G12G17G05G09G10G30G25G04G02
 112758611.474 8  87863920.811 7  21457250.938                    21457258.098
 121740917.984 7  94863107.095 6  23166520.766                    23166528.742
 115607916.146 7  90084223.917 7  21999450.328                    21999458.918
 124215497.874 6  96791372.91643  23637430.703                    23637440.227
 109790126.115 8  85550854.45446  20892352.586                    20892360.395
 124436611.597 7  96963680.16943  23679509.938                    23679519.918
 127008347.421 6  98967635.341 6  24168902.211                    24168913.305
 113967279.078 8  88805771.11745  21687238.859                    21687246.992
 108355999.830 8  84433401.80746  20619457.234                    20619462.422
 11  8 19  0 24 30.0000000  0  9G12G17G05G09G10G30G25G04G02
 112697971.138 8  87816668.613 7  21445711.156                    21445718.266
 121793174.202 7  94903826.185 6  23176464.414                    23176473.375
 115517818.565 8  90014018.093 7  21982305.297                    21982313.797
 124293498.122 7  96852152.26843  23652273.211                    23652283.563
 109789582.291 8  85550430.71046  20892249.313                    20892257.281
 124338599.886 6  96887307.47343  23660859.469                    23660868.219
 126908544.008 6  98889866.500 6  24149909.445                    24149920.813
 114043928.926 8  88865498.24545  21701825.383                    21701833.066
 108355628.494 8  84433112.48446  20619386.766                    20619392.102
 11  8 19  0 25  0.0000000  0  9G12G17G05G09G10G30G25G04G02
 112637755.852 8  87769747.630 7  21434252.719                    21434260.051
 121845585.344 7  94944665.997 6  23186438.984                    23186447.164
 115428022.651 7  89944047.328 7  21965217.977                    21965226.434
 124371667.924 7  96913063.70643  23667148.352                    23667158.488
 109789668.367 8  85550497.80846  20892265.703                    20892273.676
 124240853.663 7  96811141.69444  23642258.516                    23642267.688
 126808909.611 6  98812229.353 6  24130949.875                    24130960.980
 114120717.109 8  88925333.16145  21716437.039                    21716445.168
 108355546.806 8  84433048.85246  20619370.781                    20619375.934
 11  8 19  0 25 30.0000000  0  9G12G17G05G09G10G30G25G04G02
 112577968.344 8  87723159.981 7  21422875.367                    21422883.066
 121898152.233 7  94985627.192 6  23196441.258                    23196450.680
 115338531.743 7  89874314.222 7  21948188.375                    21948196.754
 124450003.711 7  96974104.50343  23682055.375                    23682065.766
 109790384.522 8  85551055.86746  20892401.828                    20892410.211
 124143375.807 6  96735185.02643  23623708.672                    23623718.164
 126709446.905 7  98734725.972 6  24112022.828                    24112034.105
 114197641.612 8  88985274.30245  21731075.586                    21731083.605
 108355753.790 8  84433210.14946  20619410.484                    20619415.258
 11  8 19  0 26  0.0000000  0  9G12G17G05G09G10G30G25G04G02
 112518610.834 8  87676907.391 7  21411580.172                    21411587.570
 121950875.271 7  95026710.077 6  23206474.086                    23206482.273
 115249348.611 7  89804820.943 7  21931217.078                    21931225.242
 124528502.262 7  97035272.13043  23696993.445                    23697003.422
 109791731.204 8  85552105.24946  20892658.477                    20892666.426
 124046169.268 6  96659439.79043  23605210.484                    23605220.496
 126610158.614 7  98657358.514 6  24093128.766                    24093140.551
 114274700.384 8  89045320.06145  21745739.359                    21745746.875
 108356248.424 8  84433595.59246  20619504.805                    20619509.789
 11  8 19  0 26 30.0000000  0  9G12G17G05G09G10G30G25G04G02
 112459685.880 8  87630991.860 7  21400367.055                    21400374.555
 122003755.373 7  95067915.296 6  23216537.258                    23216545.410
 115160476.284 7  89735569.859 7  21914304.898                    21914313.859
 124607160.183 7  97096563.94843  23711961.945                    23711971.609
 109793708.681 7  85553646.15746  20893034.469                    20893042.313
 123949237.163 6  96583908.34943  23586765.625                    23586774.492
 126511047.481 7  98580129.095 6  24074268.023                    24074279.883
 114351891.745 8  89105469.13445  21760428.414                    21760436.699
 108357030.009 7  84434204.62446  20619653.148                    20619658.785
 11  8 19  0 27  0.0000000  0  9G12G17G05G09G10G30G25G04G02
 112401196.207 8  87585415.526 7  21389236.867                    21389244.305
 122056792.927 7  95109243.188 6  23226630.508                    23226637.883
 115071917.482 7  89666563.065 7  21897452.813                    21897460.855
 124685974.483 7  97157977.64543  23726958.891                    23726969.227
 109796316.904 8  85555678.54646  20893530.945                    20893538.594
 123852581.988 6  96508592.77043  23568371.875                    23568381.250
 126412116.026 7  98503039.702 6  24055442.875                    24055454.211
 114429213.566 7  89165719.87945  21775142.578                    21775150.992
 108358097.028 8  84435036.08046  20619856.242                    20619861.637
 11  8 19  0 27 30.0000000  0  9G12G17G05G09G10G30G25G04G02
 112343143.415 8  87540179.598 7  21378190.008                    21378197.102
 122109988.394 7  95150694.183 6  23236752.758                    23236762.074
 114983675.072 7  89597802.811 7  21880660.836                    21880669.641
 124764941.384 6  97219510.19743  23741986.430                    23741996.156
 109799556.342 7  85558202.80246  20894147.141                    20894155.176
 123756206.809 6  96433495.31143  23550032.117                    23550042.586
 126313366.847 7  98426092.353 6  24036651.500                    24036662.859
 114506663.965 7  89226070.80445  21789880.656                    21789888.961
 108359448.288 7  84436089.02446  20620113.438                    20620118.398
 11  8 19  0 28  0.0000000  0  9G12G17G05G09G10G30G25G04G02
 112285530.005 7  87495286.055 7  21367226.414                    21367233.844
 122163342.470 7  95192268.732 6  23246905.250                    23246915.180
 114895751.904 7  89529291.339 7  21863929.617                    21863938.051
 124844057.692 7  97281159.20743  23757041.148                    23757051.617
 109803427.169 8  85561219.04246  20894884.023                    20894891.191
 123660114.534 7  96358618.31743  23531746.750                    23531755.992
 126214802.790 7  98349289.267 6  24017894.625                    24017906.152
 114584241.081 8  89286520.47145  21804643.180                    21804651.078
 108361082.989 8  84437362.82346  20620424.422                    20620429.637
 11  8 19  0 28 30.0000000  0  9G12G17G05G09G10G30G25G04G02
 112228358.299 7  87450736.694 7  21356346.914                    21356353.637
 122216855.727 7  95233967.307 6  23257088.992                    23257097.488
 114808150.703 7  89461030.733 7  21847259.672                    21847267.949
 124923319.831 6  97342921.82443  23772124.156                    23772134.840
 109807929.317 7  85564727.23246  20895740.297                    20895748.277
 123564307.824 7  96283963.85444  23513515.375                    23513524.598
 126116426.265 7  98272632.308 6  23999173.914                    23999185.633
 114661942.758 7  89347067.20445  21819429.633                    21819437.152
 108362999.691 7  84438856.37446  20620789.063                    20620794.348
 11  8 19  0 29  0.0000000  0  9G12G17G05G09G10G30G25G04G02
 112171629.927 7  87406532.793 7  21345551.648                    21345559.035
 122270528.460 7  95275790.140 6  23267302.594                    23267310.973
 114720874.554 7  89393023.399 7  21830651.602                    21830659.961
 125002724.450 6  97404795.47043  23787234.672                    23787245.426
 109813062.422 7  85568727.07746  20896717.398                    20896725.051
 123468789.213 7  96209533.86044  23495338.273                    23495347.973
 126018239.628 7  98196123.362 6  23980489.352                    23980501.027
 114739766.882 8  89407709.33345  21834238.531                    21834247.035
 108365196.998 7  84440568.58346  20621207.516                    20621212.320
 11  8 19  0 29 30.0000000  0  9G12G17G05G09G10G30G25G04G02
 112115348.076 7  87362676.815 7  21334841.445                    21334848.910
 122324361.255 7  95317737.735 6  23277547.078                    23277555.742
 114633925.944 7  89325271.306 7  21814105.281                    21814114.227
 125082268.515 6  97466777.76943  23802371.156                    23802382.535
 109818826.939 7  85573218.92546  20897814.102                    20897822.020
 123373562.051 7  96135331.00344  23477217.602                    23477226.973
 125920245.939 7  98119764.753 6  23961842.023                    23961853.809
 114817711.764 7  89468445.56745  21849071.992                    21849079.383
 108367674.082 8  84442498.78546  20621678.875                    20621683.609
 11  8 19  0 30  0.0000000  0  9G12G17G05G09G10G30G25G04G02
 112059514.354 7  87319170.033 7  21324216.906                    21324223.750
 122378355.023 7  95359810.758 6  23287821.211                    23287830.754
 114547307.683 7  89257776.630 7  21797622.633                    21797631.215
 125161948.191 6  97528865.76343  23817534.367                    23817545.105
 109825222.629 7  85578202.60146  20899031.383                    20899039.207
 123278628.950 7  96061357.26644  23459152.539                    23459161.590
 125822447.664 6  98043558.419 6  23943231.766                    23943243.410
 114895775.533 8  89529274.47245  21863925.820                    21863934.777
 108370429.785 8  84444646.09646  20622203.117                    20622208.305
 11  8 19  0 30 30.0000000  0  9G12G17G05G09G10G30G25G04G02
 112004131.181 7  87276014.346 7  21313677.586                    21313684.781
 122432509.843 7  95402009.274 6  23298126.773                    23298135.727
 114461022.589 7  89190541.550 7  21781202.961                    21781211.277
 125241760.480 7  97591057.05544  23832722.133                    23832732.695
 109832249.411 7  85583678.03046  20900368.523                    20900376.148
 123183992.694 7  95987614.80844  23441143.594                    23441152.813
 125724847.422 7  97967506.405 6  23924659.211                    23924670.762
 114973956.222 8  89590194.46845  21878803.328                    21878811.824
 108373462.642 8  84447009.36546  20622779.813                    20622785.473
 11  8 19  0 31  0.0000000  0  9G12G17G05G09G10G30G25G04G02
 111949200.906 7  87233211.555 7  21303224.383                    21303232.211
 122486826.337 7  95444333.768 6  23308462.992                    23308471.586
 114375074.029 7  89123568.707 7  21764847.578                    21764855.605
 125321701.859 6  97653348.95744  23847934.641                    23847945.121
 109839907.511 8  85589645.39246  20901825.367                    20901833.078
 123089656.306 7  95914106.04244  23423191.227                    23423201.145
 125627447.924 6  97891610.800 7  23906123.844                    23906136.223
 115052252.015 8  89651204.15645  21893702.734                    21893711.480
 108376771.854 8  84449587.97846  20623409.672                    20623415.082
 11  8 19  0 31 30.0000000  0  9G12G17G05G09G10G30G25G04G02
 111894725.767 7  87190763.406 7  21292858.266                    21292865.473
 122541305.191 7  95486784.770 6  23318829.609                    23318838.742
 114289464.740 7  89056860.232 7  21748556.320                    21748564.828
 125401768.913 6  97715738.79044  23863171.289                    23863181.398
 109848196.713 8  85596104.52346  20903402.938                    20903411.051
 122995622.464 7  95840832.98443  23405297.133                    23405306.820
 125530251.773 7  97815873.692 7  23887627.758                    23887640.125
 115130660.825 8  89712301.90845  21908623.414                    21908631.930
 108380355.971 8  84452380.80246  20624091.797                    20624096.879
 11  8 19  0 32  0.0000000  0  9G12G17G05G09G10G30G25G04G02
 111840707.876 7  87148671.577 7  21282579.094                    21282585.988
 122595946.980 6  95529362.718 6  23329227.266                    23329236.922
 114204196.929 7  88990417.848 7  21732330.602                    21732339.004
 125481958.318 6  97778223.94144  23878430.594                    23878441.402
 109857116.739 8  85603055.20246  20905100.281                    20905107.789
 122901894.086 6  95767797.96544  23387461.758                    23387470.305
 125433261.741 7  97740297.187 6  23869171.570                    23869183.254
 115209181.066 7  89773486.49445  21923565.328                    21923573.625
 108384214.089 8  84455387.13446  20624826.039                    20624831.145
 11  8 19  0 32 30.0000000  0  9G12G17G05G09G10G30G25G04G02
 111787149.186 7  87106937.560 7  21272387.195                    21272394.258
 122650752.243 6  95572068.060 7  23339656.688                    23339665.996
 114119273.745 8  88924244.004 7  21716170.352                    21716178.676
 125562266.689 6  97840801.79944  23893712.617                    23893723.934
 109866667.625 8  85610497.45846  20906917.844                    20906925.453
 122808474.050 6  95695003.19743  23369684.359                    23369693.598
 125336480.374 7  97664883.251 6  23850754.703                    23850766.141
 115287810.545 7  89834756.20445  21938527.906                    21938536.309
 108388345.015 8  84458606.04346  20625612.344                    20625617.359
 11  8 19  0 33  0.0000000  0  9G12G17G05G09G10G30G25G04G02
 111734052.031 8  87065563.177 7  21262283.102                    21262290.336
 122705721.565 7  95614901.213 7  23350117.055                    23350126.246
 114034697.553 7  88858340.531 7  21700075.898                    21700084.102
 125642690.604 6  97903469.68044  23909016.227                    23909027.945
 109876848.767 8  85618430.83146  20908855.406                    20908863.074
 122715364.920 6  95622450.70843  23351965.375                    23351975.180
 125239910.284 7  97589633.977 6  23832377.938                    23832389.152
 115366547.629 7  89896109.75545  21953511.117                    21953519.195
 108392747.481 8  84462036.53546  20626449.789                    20626455.043
 11  8 19  0 33 30.0000000  0  9G12G17G05G09G10G30G25G04G02
 111681418.620 8  87024550.154 7  21252267.250                    21252274.848
 122760855.082 6  95657862.313 6  23360609.172                    23360617.902
 113950471.411 7  88792709.827 7  21684048.227                    21684056.590
 125723226.896 6  97966225.14044  23924342.867                    23924353.109
 109887660.448 8  85626855.52346  20910912.602                    20910920.406
 122622569.767 7  95550142.85043  23334307.719                    23334316.465
 125143554.090 7  97514551.356 6  23814041.961                    23814052.953
 115445390.275 8  89957545.55845  21968514.508                    21968522.664
 108397420.131 8  84465677.56646  20627339.055                    20627344.234
 11  8 19  0 34  0.0000000  0  9G12G17G05G09G10G30G25G04G02
 111629250.768 7  86983899.911 7  21242340.297                    21242347.828
 122816153.488 6  95700951.927 6  23371131.852                    23371140.586
 113866598.053 7  88727354.019 7  21668087.727                    21668095.770
 125803871.887 6  98029065.27244  23939689.133                    23939699.719
 109899102.164 8  85635771.16746  20913089.992                    20913097.707
 122530091.253 6  95478081.70744  23316709.836                    23316718.230
 125047414.425 7  97439637.446 6  23795747.266                    23795758.184
 115524336.747 7  90019062.26245  21983537.813                    21983545.828
 108402361.718 8  84469528.15446  20628279.328                    20628284.691
 11  8 19  0 34 30.0000000  0  9G12G17G05G09G10G30G25G04G02
 111577551.253 8  86943614.608 7  21232502.148                    21232509.039
 122871617.284 7  95744170.424 6  23381685.969                    23381695.711
 113783080.517 7  88662275.482 7  21652194.867                    21652203.012
 125884622.765 7  98091987.90243  23955055.398                    23955066.262
 109911173.860 8  85645177.69546  20915386.906                    20915394.863
 122437932.448 6  95406269.70144  23299171.953                    23299181.000
 124951494.236 7  97364894.538 6  23777494.555                    23777505.125
 115603385.215 7  90080658.45545  21998580.250                    21998588.504
 108407571.618 8  84473587.81646  20629270.719                    20629276.320
 11  8 19  0 35  0.0000000  0  9G12G17G05G09G10G30G25G04G02
 111526321.807 7  86903695.594 7  21222753.680                    21222760.672
 122927246.993 6  95787518.194 6  23392272.664                    23392281.730
 113699921.154 7  88597476.027 7  21636369.828                    21636378.281
 125965475.965 6  98154990.26943  23970441.789                    23970451.945
 109923874.886 8  85655074.61646  20917803.953                    20917811.922
 122346096.102 6  95334708.95044  23281695.727                    23281705.555
 124855795.958 7  97290324.517 6  23759283.250                    23759294.301
 115682534.035 7  90142332.85945  22013641.594                    22013649.996
 108413048.377 8  84477855.42146  20630313.266                    20630318.250
 11  8 19  0 35 30.0000000  0  9G12G17G05G09G10G30G25G04G02
 111475564.392 8  86864144.389 7  21213094.477                    21213101.684
 122983043.091 7  95830995.604 6  23402889.719                    23402899.574
 113617122.683 7  88532957.792 7  21620614.047                    21620622.008
 126046428.128 7  98218069.72643  23985845.570                    23985856.891
 109937204.860 8  85665461.61746  20920340.633                    20920348.750
 122254584.858 7  95263401.50644  23264282.336                    23264291.270
 124760322.227 7  97215929.486 6  23741115.109                    23741126.035
 115761781.091 7  90204083.79545  22028721.984                    22028729.996
 108418790.645 8  84482329.92246  20631405.797                    20631411.211
 11  8 19  0 36  0.0000000  0  9G12G17G05G09G10G30G25G04G02
 111425281.280 8  86824962.771 7  21203526.055                    21203533.199
 123039006.113 7  95874603.077 6  23413539.109                    23413548.730
 113534687.947 8  88468722.974 7  21604926.805                    21604935.051
 126127475.831 6  98281223.63443  24001268.984                    24001279.672
 109951163.884 8  85676338.79346  20922996.773                    20923004.273
 122163401.649 7  95192349.67844  23246930.594                    23246939.895
 124665075.721 7  97141711.487 6  23722989.898                    23723001.090
 115841124.623 7  90265909.91845  22043820.266                    22043828.594
 108424797.198 8  84487010.36046  20632548.813                    20632554.055
 11  8 19  0 36 30.0000000  0  9G12G17G05G09G10G30G25G04G02
 111375474.112 8  86786152.024 7  21194047.867                    21194055.133
 123095136.465 7  95918340.982 6  23424221.500                    23424229.836
 113452619.344 7  88404773.465 7  21589309.695                    21589318.074
 126208615.632 6  98344449.32143  24016709.781                    24016720.188
 109965751.143 8  85687705.48846  20925772.500                    20925780.367
 122072549.069 7  95121555.48544  23229642.234                    23229651.152
 124570058.980 7  97067672.510 6  23704908.633                    23704920.340
 115920562.763 7  90327809.74545  22058937.211                    22058945.535
 108431066.743 8  84491895.72046  20633741.656                    20633746.652
 11  8 19  0 37  0.0000000  0  9G12G17G05G09G10G30G25G04G02
 111326145.520 8  86747714.189 7  21184661.148                    21184668.266
 123151434.755 7  95962209.735 6  23434934.492                    23434943.418
 113370920.141 7  88341111.805 7  21573762.969                    21573771.027
 126289844.667 7  98407744.52043  24032166.977                    24032177.402
 109980966.546 8  85699561.67546  20928668.125                    20928675.797
 121982030.263 6  95051021.37843  23212417.375                    23212425.922
 124475274.976 7  96993814.853 6  23686872.063                    23686883.266
 116000093.935 7  90389782.05645  22074070.844                    22074079.363
 108437598.476 8  84496985.37846  20634984.750                    20634989.531
 11  8 19  0 37 30.0000000  0  9G12G17G05G09G10G30G25G04G02
 111277296.960 8  86709650.392 7  21175365.406                    21175372.531
 123207901.450 7  96006209.692 6  23445679.469                    23445688.852
 113289592.607 8  88277739.759 7  21558287.023                    21558295.176
 126371159.180 7  98471106.32143  24047640.602                    24047651.504
 109996809.123 8  85711906.55046  20931682.906                    20931690.270
 121891847.728 7  94980749.30444  23195255.625                    23195264.668
 124380726.025 7  96920140.371 6  23668879.438                    23668891.238
 116079715.992 7  90451825.20245  22089222.461                    22089231.066
 108444390.723 8  84502278.03246  20636277.523                    20636282.578
 11  8 19  0 38  0.0000000  0  9G12G17G05G09G10G30G25G04G02
 111228931.071 8  86671962.710 7  21166161.695                    21166168.898
 123264536.961 7  96050341.200 6  23456456.695                    23456465.879
 113208639.816 7  88214659.708 7  21542882.039                    21542889.953
 126452556.058 7  98534532.30743  24063130.039                    24063141.355
 110013278.441 8  85724739.80446  20934816.641                    20934824.719
 121802004.703 7  94910741.77644  23178159.414                    23178168.531
 124286415.231 7  96846651.482 6  23650933.398                    23650944.953
 116159427.793 7  90513938.26645  22104391.367                    22104400.273
 108451442.974 8  84507773.28246  20637619.336                    20637624.039
 11  8 19  0 38 30.0000000  0  9G12G17G05G09G10G30G25G04G02
 111181049.826 8  86634652.683 7  21157050.648                    21157057.441
 123321341.610 7  96094604.522 6  23467266.984                    23467274.977
 113128064.226 7  88151873.581 7  21527548.945                    21527556.820
 126534032.044 6  98598019.94743  24078634.883                    24078645.672
 110030374.180 8  85738061.17446  20938069.945                    20938078.059
 121712503.755 7  94841000.81944  23161127.633                    23161136.617
 124192345.102 7  96773350.103 6  23633032.523                    23633043.734
 116239227.223 7  90576119.61945  22119576.680                    22119584.961
 108458753.557 8  84513469.83446  20639010.516                    20639015.539
 11  8 19  0 39  0.0000000  0  9G12G17G05G09G10G30G25G04G02
 111133654.955 8  86597721.648 7  21148031.023                    21148038.242
 123378315.851 7  96138999.970 6  23478108.461                    23478116.957
 113047868.721 7  88089383.637 7  21512288.094                    21512296.402
 126615583.878 6  98661566.67243  24094154.000                    24094164.762
 110048095.821 8  85751870.27046  20941442.578                    20941449.945
 121623347.506 7  94771528.46243  23144161.945                    23144171.137
 124098518.214 7  96700238.260 6  23615178.164                    23615188.547
 116319112.398 7  90638367.78945  22134778.477                    22134787.129
 108466321.252 8  84519366.74046  20640450.469                    20640455.594
 11  8 19  0 39 30.0000000  0  9G12G17G05G09G10G30G25G04G02
 111086748.535 8  86561171.220 7  21139105.523                    21139112.215
 123435460.445 7  96183528.178 6  23488982.688                    23488991.852
 112968055.442 7  88027191.524 7  21497099.953                    21497108.191
 126697208.068 6  98725169.78743  24109685.828                    24109696.820
 110066442.570 8  85766166.46446  20944933.250                    20944941.785
 121534538.863 6  94702326.97443  23127261.359                    23127270.449
 124004937.273 7  96627318.055 6  23597369.633                    23597380.945
 116399081.613 7  90700681.45045  22149995.961                    22150004.664
 108474144.924 8  84525463.10146  20641939.281                    20641944.684
 11  8 19  0 40  0.0000000  0  9G12G17G05G09G10G30G25G04G02
 111040332.498 8  86525002.900 7  21130271.938                    21130279.480
 123492775.797 7  96228189.417 6  23499889.586                    23499899.168
 112888627.315 7  87965299.528 7  21481985.258                    21481993.594
 126778901.548 6  98788826.92743  24125232.305                    24125242.953
 110085414.169 8  85780949.54345  20948543.844                    20948551.531
 121446080.682 7  94633398.58344  23110428.359                    23110437.531
 123911605.020 7  96554591.622 6  23579608.641                    23579620.215
 116479133.448 7  90763059.47545  22165228.898                    22165237.762
 108482223.422 8  84531758.02446  20643476.648                    20643481.637
 11  8 19  0 40 30.0000000  0  9G12G17G05G09G10G30G25G04G02
 110994408.506 8  86489217.980 7  21121533.484                    21121540.891
 123550262.095 7  96272983.916 6  23510829.477                    23510837.660
 112809586.842 7  87903709.605 7  21466944.523                    21466952.406
 126860661.040 6  98852535.49143  24140790.586                    24140801.094
 110105009.771 8  85796218.86846  20952272.695                    20952280.512
 121357975.618 7  94564745.30944  23093663.117                    23093671.742
 123818523.990 7  96482060.959 6  23561896.016                    23561907.492
 116559265.765 7  90825500.20145  22180478.109                    22180486.371
 108490555.426 8  84538250.49146  20645062.367                    20645067.387
 11  8 19  0 41  0.0000000  0  9G12G17G05G09G10G30G25G04G02
 110948978.915 8  86453818.315 7  21112888.117                    21112895.824
 123607920.146 7  96317912.251 6  23521800.672                    23521809.418
 112730936.747 8  87842423.870 7  21451977.828                    21451985.848
 126942483.173 6  98916292.85343  24156360.609                    24156372.113
 110125229.010 8  85811974.12946  20956120.586                    20956128.172
 121270226.577 7  94496369.50443  23076964.875                    23076973.320
 123725697.117 7  96409728.354 6  23544232.039                    23544243.336
 116639477.059 7  90888002.48445  22195742.023                    22195750.121
 108499139.970 8  84544939.74446  20646695.711                    20646700.777
 11  8 19  0 41 30.0000000  0  9G12G17G05G09G10G30G25G04G02
 110904045.584 8  86418805.346 7  21104338.031                    21104344.895
 123665750.267 7  96362974.651 6  23532805.711                    23532814.297
 112652679.503 7  87781444.252 7  21437086.164                    21437094.055
 127024364.497 6  98980096.36943  24171941.820                    24171953.684
 110146071.011 8  85828214.65546  20960086.500                    20960094.398
 121182836.239 6  94428273.18444  23060335.219                    23060343.523
 123633126.924 7  96337595.771 6  23526616.891                    23526627.680
 116719765.746 7  90950565.07245  22211020.852                    22211028.645
 108507975.478 8  84551824.56346  20648377.242                    20648382.324
 11  8 19  0 42  0.0000000  0  9G12G17G05G09G10G30G25G04G02
 110859610.338 8  86384180.499 7  21095882.289                    21095889.074
 123723752.922 6  96408171.451 6  23543843.500                    23543852.191
 112574817.950 7  87720772.968 7  21422269.555                    21422277.621
 127106301.987 7  99043943.62744  24187534.516                    24187546.363
 110167535.163 8  85844939.98446  20964170.813                    20964178.543
 121095807.491 7  94360458.62544  23043773.688                    23043782.262
 123540816.224 7  96265665.392 6  23509050.211                    23509060.891
 116800130.167 7  91013186.67945  22226312.945                    22226321.672
 108517061.360 8  84558904.47446  20650105.633                    20650111.191
 11  8 19  0 42 30.0000000  0  9G12G17G05G09G10G30G25G04G02
 110815675.076 8  86349945.249 7  21087521.656                    21087528.746
 123781928.458 7  96453502.958 6  23554913.609                    23554923.055
 112497354.474 7  87660411.872 7  21407528.641                    21407536.531
 127188292.251 7  99107832.05843  24203136.758                    24203148.469
 110189620.447 8  85862149.30646  20968373.695                    20968381.359
 121009142.935 7  94292927.85244  23027282.398                    23027291.094
 123448767.551 7  96193939.182 6  23491534.367                    23491545.020
 116880568.252 7  91075865.66845  22241620.547                    22241628.594
 108526395.860 8  84566178.13646  20651882.758                    20651887.410
 11  8 19  0 43  0.0000000  0  9G12G17G05G09G10G30G25G04G02
 110772241.248 8  86316100.709 7  21079256.500                    21079263.137
 123840277.026 6  96498969.334 6  23566016.789                    23566026.355
 112420291.917 8  87600363.182 7  21392863.805                    21392871.945
 127270332.128 6  99171759.09544  24218748.508                    24218760.652
 110212326.372 8  85879842.25446  20972694.289                    20972702.137
 120922845.310 7  94225683.00444  23010860.313                    23010869.148
 123356983.458 7  96122419.149 6  23474068.391                    23474079.031
 116961078.519 7  91138600.92945  22256940.719                    22256948.965
 108535977.497 8  84573644.35246  20653705.648                    20653711.164
 11  8 19  0 43 30.0000000  0  9G12G17G05G09G10G30G25G04G02
 110729311.368 8  86282648.875 7  21071087.148                    21071093.977
 123898799.308 6  96544571.064 6  23577153.047                    23577162.535
 112343632.738 8  87540628.809 7  21378276.250                    21378283.797
 127352418.450 7  99235722.31843  24234369.984                    24234381.008
 110235652.117 8  85898018.17146  20977132.938                    20977140.953
 120836917.390 7  94158726.24144  22994508.555                    22994517.875
 123265466.786 7  96051107.499 6  23456652.961                    23456664.184
 117041659.341 7  91201391.16945  22272274.398                    22272282.898
 108545805.523 8  84581302.56146  20655575.820                    20655581.367
 11  8 19  0 44  0.0000000  0  9G12G17G05G09G10G30G25G04G02
 110686887.261 8  86249591.123 7  21063014.094                    21063020.801
 123957495.893 6  96590308.629 6  23588322.594                    23588332.422
 112267379.123 8  87481210.459 7  21363765.672                    21363773.141
 127434548.094 6  99299719.27043  24249998.461                    24250009.879
 110259596.622 8  85916676.23646  20981689.719                    20981697.359
 120751362.093 7  94092059.80544  22978228.109                    22978237.195
 123174220.315 7  95980006.397 6  23439288.930                    23439299.934
 117122309.238 7  91264235.20045  22287621.844                    22287629.996
 108555878.878 8  84589151.95146  20657492.727                    20657497.957
 11  8 19  0 44 30.0000000  0  9G12G17G05G09G10G30G25G04G02
 110644970.314 8  86216928.565 7  21055037.438                    21055044.379
 124016367.040 6  96636182.205 6  23599525.680                    23599535.145
 112191533.701 8  87422110.182 7  21349332.727                    21349339.992
 127516717.634 6  99363747.32343  24265635.094                    24265646.395
 110284159.149 8  85935815.87746  20986363.602                    20986371.070
 120666181.924 7  94025685.67444  22962018.719                    22962028.527
 123083246.618 7  95909117.842 6  23421977.281                    23421988.922
 117203026.437 7  91327131.68445  22302982.156                    22302990.656
 108566196.066 8  84597191.32446  20659456.164                    20659460.746
 11  8 19  0 45  0.0000000  0  9G12G17G05G09G10G30G25G04G02
 110603562.714 8  86184662.904 7  21047157.523                    21047164.645
 124075413.183 6  96682192.152 6  23610762.227                    23610771.637
 112116099.370 8  87363330.241 7  21334978.297                    21334985.953
 127598923.919 6  99427804.00343  24281278.414                    24281289.313
 110309338.887 8  85955436.46446  20991155.180                    20991162.984
 120581380.014 7  93959606.32144  22945881.344                    22945890.813
 122992548.561 7  95838444.061 6  23404717.922                    23404729.184
 117283809.521 7  91390079.48845  22318354.266                    22318362.895
 108576756.273 8  84605420.05746  20661465.641                    20661470.844
 11  8 19  0 45 30.0000000  0  9G12G17G05G09G10G30G25G04G02
 110562665.863 8  86152795.224 7  21039375.703                    21039382.820
 124134634.800 6  96728338.808 6  23622030.992                    23622041.148
 112041078.692 8  87304872.620 7  21320702.031                    21320709.535
 127681163.354 6  99491886.50643  24296928.641                    24296939.559
 110335134.984 8  85975537.32946  20996063.945                    20996071.512
 120496958.662 7  93893823.49744  22929816.305                    22929825.703
 122902128.564 7  95767986.992 6  23387511.938                    23387522.730
 117364656.642 7  91453077.19945  22333739.375                    22333747.477
 108587557.698 8  84613836.76046  20663521.281                    20663526.082
 11  8 19  0 46  0.0000000  0  9G12G17G05G09G10G30G25G04G02
 110522281.743 8  86121327.070 7  21031690.609                    21031697.324
 124194032.014 6  96774622.273 6  23633334.836                    23633343.730
 111966473.833 8  87246739.020 7  21306505.070                    21306512.539
 127763433.170 6  99555992.68643  24312583.070                    24312594.711
 110361546.473 8  85996117.73346  21001089.875                    21001097.355
 120412920.782 7  93828339.45444  22913824.914                    22913833.813
 122811989.283 7  95697748.660 6  23370358.781                    23370369.715
 117445566.054 7  91516123.44645  22349135.891                    22349144.426
 108598599.369 8  84622440.67146  20665622.094                    20665627.734
 11  8 19  0 46 30.0000000  0  9G12G17G05G09G10G30G25G04G02
 110482412.457 8  86090260.093 7  21024103.953                    21024111.016
 124253605.353 6  96821043.041 6  23644671.859                    23644680.664
 111892287.160 8  87188931.265 7  21292387.625                    21292395.352
 127845730.234 6  99620120.07743  24328243.563                    24328256.031
 110388571.919 8  86017176.53246  21006232.797                    21006240.316
 120329268.928 7  93763156.24144  22897906.000                    22897914.992
 122722133.518 7  95627731.215 6  23353260.094                    23353270.668
 117526536.491 7  91579217.25245  22364543.711                    22364552.434
 108609879.957 8  84631230.75146  20667768.789                    20667773.977
 11  8 19  0 47  0.0000000  0  9G12G17G05G09G10G30G25G04G02
 110443059.443 8  86059595.410 7  21016615.016                    21016621.797
 124313355.244 6  96867601.367 6  23656040.461                    23656050.328
 111818521.564 8  87131451.633 7  21278350.203                    21278358.613
 127928051.342 6  99684266.22243  24343909.711                    24343921.305
 110416210.754 7  86038713.29746  21011492.078                    21011499.566
 120246006.076 7  93698276.13744  22882062.000                    22882070.645
 122632564.071 7  95557936.878 6  23336215.227                    23336226.422
 117607566.194 7  91642357.24445  22379963.727                    22379971.879
 108621398.642 8  84640206.35546  20669960.492                    20669965.590
 11  8 19  0 47 30.0000000  0  9G12G17G05G09G10G30G25G04G02
 110404223.948 8  86029333.983 7  21009224.805                    21009231.613
 124373282.054 6  96914297.541 6  23667444.305                    23667454.039
 111745179.312 8  87074301.868 7  21264393.813                    21264401.625
 128010393.131 6  99748428.49343  24359578.359                    24359590.332
 110444461.833 8  86060727.13346  21016868.141                    21016875.824
 120163134.652 7  93633701.03344  22866291.445                    22866300.992
 122543283.325 7  95488367.526 6  23319225.219                    23319236.578
 117688653.438 7  91705542.07944  22395394.195                    22395402.617
 108633153.944 8  84649366.33346  20672197.461                    20672203.008
 11  8 19  0 48  0.0000000  0  9G12G17G05G09G10G30G25G04G02
 110365908.157 8  85999477.536 7  21001933.852                    21001940.949
 124433386.346 6  96961132.040 6  23678882.523                    23678891.875
 111672262.736 8  87017483.809 7  21250518.414                    21250526.254
 128092752.479 6  99812604.43643  24375251.523                    24375263.160
 110473324.362 8  86083217.40746  21022360.742                    21022368.230
 120080657.550 7  93569433.19344  22850597.242                    22850606.168
 122454294.212 7  95419025.420 7  23302291.703                    23302302.613
 117769797.031 7  91768770.81645  22410835.008                    22410843.938
 108645145.037 8  84658710.04646  20674480.031                    20674485.137
 11  8 19  0 48 30.0000000  0  9G12G17G05G09G10G30G25G04G02
 110328113.718 8  85970027.317 7  20994741.406                    20994748.469
 124493667.995 7  97008104.764 6  23690353.664                    23690362.750
 111599774.285 8  86960999.349 7  21236724.375                    21236732.043
 128175126.162 6  99876791.54043  24390926.133                    24390939.035
 110502796.951 8  86106183.05746  21027969.156                    21027976.832
 119998577.283 7  93505474.58644  22834977.953                    22834986.664
 122365599.164 7  95349912.453 7  23285413.891                    23285424.641
 117850995.006 7  91832041.92045  22426286.594                    22426294.746
 108657369.913 8  84668235.93246  20676805.586                    20676810.887
 11  8 19  0 49  0.0000000  0  9G12G17G05G09G10G30G25G04G02
 110290842.321 8  85940984.679 7  20987649.211                    20987656.063
 124554127.631 7  97055216.132 6  23701858.164                    23701867.980
 111527716.458 8  86904850.437 7  21223012.102                    21223020.137
 128257511.020 6  99940987.34843  24406604.406                    24406615.652
 110532879.020 8  86129623.62446  21033693.891                    21033701.211
 119916896.547 7  93441827.29744  22819434.820                    22819443.254
 122277200.911 7  95281030.741 7  23268592.281                    23268603.094
 117932245.946 7  91895354.30845  22441748.453                    22441756.766
 108669827.598 8  84677943.22946  20679176.266                    20679181.625
 11  8 19  0 49 30.0000000  0  9G12G17G05G09G10G30G25G04G02
 110254095.892 8  85912351.103 7  20980656.469                    20980663.160
 124614765.683 7  97102466.534 6  23713398.000                    23713407.129
 111456091.786 8  86849039.055 7  21209382.180                    21209390.258
 128339904.005 6 100005189.50043  24422283.328                    24422294.965
 110563569.184 8  86153538.03045  21039533.680                    21039541.207
 119835618.157 7  93378493.54044  22803967.969                    22803976.117
 122189102.285 7  95212382.523 7  23251826.859                    23251838.488
 118013548.527 7  91958706.92845  22457219.625                    22457228.090
 108682517.296 8  84687831.31846  20681591.266                    20681596.770
 11  8 19  0 50  0.0000000  0  9G12G17G05G09G10G30G25G04G02
 110217875.263 8  85884127.238 7  20973763.938                    20973771.023
 124675582.257 7  97149856.035 6  23724970.961                    23724980.078
 111384902.479 8  86793566.918 7  21195835.109                    21195843.078
 128422301.724 6 100069395.33844  24437963.438                    24437975.133
 110594866.031 8  86177925.18646  21045489.352                    21045496.770
 119754744.745 7  93315475.34644  22788577.648                    22788585.992
 122101305.824 7  95143969.747 7  23235120.289                    23235131.445
 118094901.175 7  92022098.57045  22472700.695                    22472708.770
 108695437.578 8  84697899.08046  20684049.992                    20684055.215
 11  8 19  0 50 30.0000000  0  9G12G17G05G09G10G30G25G04G02
 110182182.686 8  85856314.854 7  20966972.055                    20966979.207
 124736578.087 7  97197385.226 6  23736577.836                    23736587.348
 111314151.088 8  86738436.014 7  21182371.656                    21182379.859
 128504701.221 6 100133602.55943  24453643.633                    24453655.410
 110626768.587 7  86202784.32645  21051559.914                    21051567.848
 119674279.051 7  93252774.87044  22773265.477                    22773273.879
 122013814.396 7  95075794.675 6  23218470.898                    23218482.336
 118176302.280 7  92085527.98344  22488190.297                    22488199.121
 108708587.518 8  84708145.79046  20686552.203                    20686557.320
 11  8 19  0 51  0.0000000  0  9G12G17G05G09G10G30G25G04G02
 110147019.427 8  85828914.931 7  20960280.398                    20960287.594
 124797753.186 6  97245054.097 6  23748218.836                    23748228.457
 111243840.173 8  86683648.336 7  21168992.039                    21169000.172
 128587099.252 6 100197808.59043  24469323.641                    24469334.984
 110659275.411 7  86228114.31945  21057745.633                    21057753.434
 119594223.497 7  93190393.98344  22758031.422                    22758039.906
 121926630.321 7  95007859.085 7  23201880.586                    23201891.418
 118257750.370 7  92148994.01244  22503689.578                    22503697.668
 108721965.435 8  84718570.14846  20689098.102                    20689102.879
 11  8 19  0 51 30.0000000  0  9G12G17G05G09G10G30G25G04G02
 110112387.368 8  85801928.928 7  20953690.328                    20953697.250
 124859108.186 6  97292863.176 6  23759894.930                    23759903.945
 111173971.685 8  86629205.399 7  21155696.523                    21155704.195
 128669492.835 6 100262011.17243  24485002.336                    24485014.422
 110692385.498 8  86253914.37846  21064046.289                    21064054.418
 119514580.755 7  93128334.74544  22742875.961                    22742884.691
 121839756.447 7  94940165.213 7  23185348.703                    23185359.891
 118339243.930 7  92212495.47044  22519197.242                    22519206.059
 108735570.576 8  84729171.55846  20691686.664                    20691692.320
 11  8 19  0 52  0.0000000  0  9G12G17G05G09G10G30G25G04G02
 110078287.699 8  85775357.779 7  20947201.398                    20947208.484
 124920643.052 7  97340812.395 6  23771604.602                    23771613.563
 111104547.530 8  86575108.704 7  21142485.367                    21142492.895
 128751878.681 6 100326207.73843  24500679.625                    24500691.828
 110726097.503 8  86280183.45846  21070461.875                    21070469.184
 119435353.312 7  93066599.13244  22727799.211                    22727808.250
 121753195.262 7  94872714.985 6  23168876.695                    23168887.410
 118420781.402 7  92276031.12644  22534713.391                    22534722.031
 108749401.060 8  84739948.56146  20694318.508                    20694323.832
 11  8 19  0 52 30.0000000  0  9G12G17G05G09G10G30G25G04G02
 110044722.133 8  85749202.801 7  20940813.570                    20940821.211
 124982358.076 6  97388901.965 6  23783348.266                    23783357.746
 111035570.653 8  86521360.519 7  21129359.563                    21129367.336
 128834253.922 6 100390396.04743  24516355.781                    24516367.859
 110760410.106 8  86306920.56146  21076990.859                    21076998.672
 119356544.057 7  93005189.37144  22712803.039                    22712811.426
 121666949.604 7  94805510.642 6  23152464.664                    23152475.121
 118502361.524 7  92339600.02444  22550237.438                    22550246.340
 108763456.060 8  84750900.49746  20696993.523                    20696998.617
 11  8 19  0 53  0.0000000  0  9G12G17G05G09G10G30G25G04G02
 110011692.109 8  85723465.134 7  20934528.672                    20934535.797
 125044253.850 6  97437132.405 6  23795126.906                    23795136.199
 110967043.104 8  86467962.481 7  21116319.555                    21116327.254
 128916615.259 6 100454573.51843  24532028.563                    24532040.973
 110795322.020 8  86334124.65746  21083634.594                    21083642.383
 119278155.451 7  92944107.39644  22697886.055                    22697894.352
 121581022.075 7  94738554.177 7  23136112.641                    23136123.199
 118583982.560 7  92403200.81144  22565769.367                    22565778.375
 108777734.476 8  84762026.53046  20699710.406                    20699715.578
 11  8 19  0 53 30.0000000  0  9G12G17G05G09G10G30G25G04G02
 109979199.222 8  85698146.009 7  20928345.508                    20928352.441
 125106330.581 6  97485503.861 6  23806939.219                    23806948.449
 110898967.322 8  86414916.459 7  21103364.766                    21103372.727
 128998959.600 6 100518737.71543  24547698.750                    24547710.730
 110830832.016 8  86361794.77746  21090392.094                    21090399.820
 119200190.249 7  92883355.36844  22683049.117                    22683058.180
 121495415.390 7  94671847.715 7  23119822.820                    23119833.504
 118665643.425 7  92466832.62244  22581309.328                    22581318.012
 108792235.159 8  84773325.76446  20702469.703                    20702474.965
 11  8 19  0 54  0.0000000  0  9G12G17G05G09G10G30G25G04G02
 109947244.812 8  85673246.469 7  20922264.531                    20922271.992
 125168588.563 6  97534016.539 6  23818786.859                    23818795.906
 110831345.565 8  86362224.218 7  21090496.742                    21090504.277
 129081283.929 6 100582886.30243  24563364.836                    24563377.512
 110866938.701 8  86389929.86346  21097262.938                    21097270.785
 119122650.856 7  92822935.13644  22668294.391                    22668302.793
 121410132.053 7  94605393.206 6  23103593.711                    23103604.730
 118747342.277 7  92530494.03544  22596856.133                    22596864.691
 108806956.610 8  84784797.03046  20705271.125                    20705276.395
 11  8 19  0 54 30.0000000  0  9G12G17G05G09G10G30G25G04G02
 109915830.577 8  85648767.860 7  20916286.625                    20916293.996
 125231028.063 6  97582670.681 6  23830669.414                    23830677.930
 110764180.320 8  86309887.700 7  21077715.984                    21077723.184
 129163585.388 6 100647017.06143  24579025.906                    24579038.637
 110903640.767 7  86418528.87746  21104247.078                    21104254.715
 119045540.022 7  92762848.82244  22653620.570                    22653629.852
 121325174.855 7  94539192.851 6  23087426.617                    23087437.668
 118829078.133 7  92594184.26444  22612410.133                    22612418.871
 108821898.272 8  84796439.87046  20708114.563                    20708119.465
 11  8 19  0 55  0.0000000  0  9G12G17G05G09G10G30G25G04G02
 109884957.303 8  85624710.772 7  20910411.859                    20910418.879
 125293649.453 6  97631466.542 6  23842584.898                    23842594.219
 110697473.178 8  86257908.158 8  21065021.672                    21065029.273
 129245860.397 6 100711127.28843  24594682.164                    24594694.730
 110940936.447 8  86447590.45646  21111343.875                    21111352.195
 118968859.962 7  92703098.19944  22639027.867                    22639037.316
 121240546.096 7  94473248.410 7  23071323.164                    23071333.305
 118910848.993 7  92657901.77844  22627969.930                    22627979.754
 108837058.015 8  84808252.65446  20710999.250                    20711004.324
 11  8 19  0 55 30.0000000  0  9G12G17G05G09G10G30G25G04G02
 109854627.113 8  85601076.860 7  20904639.758                    20904647.230
 125356453.124 6  97680404.434 6  23854536.328                    23854544.973
 110631227.025 8  86206287.824 7  21052415.328                    21052423.086
 129328106.326 6 100775214.78643  24610333.680                    24610345.707
 110978824.974 8  86477113.99046  21118554.281                    21118561.699
 118892613.600 7  92643685.51844  22624519.164                    22624528.168
 121156248.790 7  94407562.267 7  23055281.180                    23055291.996
 118992653.812 7  92721645.77845  22643537.367                    22643545.656
 108852435.378 8  84820235.01946  20713925.594                    20713930.828
 11  8 19  0 56  0.0000000  0  9G12G17G05G09G10G30G25G04G02
 109824841.428 8  85577867.227 7  20898972.203                    20898979.066
 125419439.072 6  97729484.383 5  23866522.617                    23866530.527
 110565443.910 8  86155028.303 7  21039897.125                    21039904.980
 129410319.989 6 100839277.14643  24625979.008                    24625991.285
 111017304.444 8  86507098.01445  21125876.539                    21125884.180
 118816803.407 7  92584612.72544  22610092.961                    22610101.906
 121072285.460 7  94342136.358 7  23039303.367                    23039314.387
 119074491.305 7  92785415.20744  22659110.359                    22659119.156
 108868028.840 8  84832385.75746  20716892.820                    20716898.215
 11  8 19  0 56 30.0000000  0  9G12G17G05G09G10G30G25G04G02
 109795600.797 8  85555082.316 7  20893407.867                    20893414.699
 125482607.365 6  97778706.445 6  23878542.617                    23878551.711
 110500125.913 8  86104131.211 7  21027467.617                    21027475.090
 129492498.388 6 100903312.04243  24641617.023                    24641629.555
 111056373.209 8  86537541.22346  21133310.734                    21133318.656
 118741431.781 7  92525881.66744  22595750.203                    22595759.113
 120988658.657 7  94276972.677 7  23023389.914                    23023400.543
 119156359.805 7  92849208.82145  22674689.859                    22674698.430
 108883837.034 8  84844703.83046  20719901.102                    20719906.027
 11  8 19  0 57  0.0000000  0  9G12G17G05G09G10G30G25G04G02
 109766907.174 8  85532723.654 7  20887947.242                    20887954.066
 125545958.608 6  97828070.977 6  23890598.422                    23890607.301
 110435275.061 8  86053598.119 7  21015126.953                    21015134.367
 129574638.215 6 100967316.86243  24657248.133                    24657260.047
 111096030.070 8  86568442.67645  21140857.539                    21140865.031
 118666501.387 7  92467494.41844  22581491.570                    22581500.383
 120905371.010 7  94212073.269 7  23007540.867                    23007551.070
 119238258.002 7  92913025.56944  22690274.203                    22690283.086
 108899858.903 8  84857188.40946  20722949.867                    20722955.348
 11  8 19  0 57 30.0000000  0  9G12G17G05G09G10G30G25G04G02
 109738761.809 8  85510792.197 7  20882591.422                    20882598.215
 125609492.992 6  97877578.231 6  23902688.711                    23902697.797
 110370893.476 8  86003430.697 7  21002875.523                    21002882.832
 129656736.631 6 101031289.41743  24672870.953                    24672883.395
 111136273.523 8  86599801.22446  21148515.414                    21148522.844
 118592014.675 7  92409452.88544  22567316.453                    22567325.516
 120822425.171 7  94147440.210 7  22991756.945                    22991766.914
 119320184.656 7  92976864.46844  22705864.875                    22705872.871
 108916093.449 8  84869838.70046  20726038.969                    20726044.512
 11  8 19  0 58  0.0000000  0  9G12G17G05G09G10G30G25G04G02
 109711165.754 8  85489288.775 7  20877340.102                    20877346.895
 125673210.814 6  97927228.469 6  23914813.852                    23914823.020
 110306983.575 8  85953630.819 7  20990714.164                    20990721.160
 129738790.651 6 101095227.36443  24688485.070                    24688498.191
 111177101.659 8  86631615.37245  21156284.531                    21156292.230
 118517974.040 7  92351758.95544  22553227.492                    22553235.727
 120739823.642 7  94083075.462 7  22976037.773                    22976048.512
 119402138.169 7  93040724.30844  22721460.141                    22721468.539
 108932539.294 8  84882653.63946  20729169.000                    20729174.242
 11  8 19  0 58 30.0000000  0  9G12G17G05G09G10G30G25G04G02
 109684120.705 8  85468214.711 7  20872193.672                    20872200.453
 125737112.142 6  97977021.721 6  23926973.680                    23926982.773
 110243547.648 8  85904200.270 7  20978642.266                    20978649.695
 129820797.296 6 101159128.43243  24704090.680                    24704102.773
 111218513.093 8  86663884.03545  21164164.703                    21164172.656
 118444382.124 7  92294414.65445  22539223.414                    22539231.727
 120657569.095 7  94018981.087 7  22960385.133                    22960395.977
 119484117.630 7  93104604.37944  22737060.273                    22737068.926
 108949195.423 8  84895632.42246  20732338.195                    20732344.051
 11  8 19  0 59  0.0000000  0  9G12G17G05G09G10G30G25G04G02
 109657627.585 8  85447570.718 7  20867152.539                    20867159.355
 125801197.300 6  98026958.216 6  23939168.563                    23939177.805
 110180587.147 8  85855140.180 7  20966661.148                    20966668.879
 129902753.594 6 101222990.28643  24719686.805                    24719699.367
 111260506.212 8  86696605.94445  21172156.023                    21172163.813
 118371241.298 7  92237421.86544  22525305.172                    22525313.652
 120575664.104 7  93955159.092 7  22944799.031                    22944810.305
 119566121.211 7  93168503.23344  22752664.484                    22752673.391
 108966060.343 8  84908773.90246  20735547.836                    20735553.160
 11  8 19  0 59 30.0000000  0  9G12G17G05G09G10G30G25G04G02
 109631687.546 8  85427357.706 7  20862216.156                    20862222.863
 125865466.434 6  98077037.994 6  23951397.703                    23951407.895
 110118104.418 8  85806452.398 7  20954770.898                    20954778.684
 129984656.471 6 101286810.44143  24735272.789                    24735284.914
 111303079.166 7  86729779.66545  21180257.414                    21180264.953
 118298553.877 7  92180782.36644  22511472.859                    22511481.500
 120494111.184 7  93891611.435 7  22929280.578                    22929291.301
 119648147.703 7  93232419.92644  22768273.922                    22768281.949
 108983132.800 8  84922077.10646  20738796.438                    20738801.887
 11  8 19  1  0  0.0000000  0  9G12G17G05G09G10G30G25G04G02
 109606302.039 8  85407576.783 7  20857385.328                    20857392.355
 125929919.860 7  98127261.407 6  23963664.086                    23963673.523
 110056101.968 8  85758138.844 7  20942972.227                    20942979.930
 130066503.022 6 101350586.76643  24750847.672                    24750859.855
 111346230.859 8  86763404.37045  21188469.039                    21188476.613
 118226322.722 7  92124498.40844  22497727.445                    22497735.559
 120412913.169 7  93828340.310 7  22913829.086                    22913839.453
 119730196.087 7  93296353.69544  22783886.539                    22783895.902
 109000412.281 8  84935541.63146  20742084.617                    20742090.188
 11  8 19  1  0 30.0000000  0  9G12G17G05G09G10G30G25G04G02
 109581472.116 8  85388228.786 7  20852660.328                    20852667.094
 125994557.633 7  98177628.478 6  23975964.375                    23975973.230
 109994581.238 8  85710200.646 7  20931265.367                    20931273.227
 130148290.110 6 101414316.73043  24766411.500                    24766423.871
 111389959.267 8  86797478.46145  21196790.500                    21196797.859
 118154549.874 7  92068571.56744  22484069.914                    22484077.723
 120332072.383 7  93765347.574 7  22898445.531                    22898455.832
 119812264.841 7  93360303.36244  22799503.945                    22799512.617
 109017897.026 8  84949166.10146  20745412.148                    20745417.273
 11  8 19  1  1  0.0000000  0  9G12G17G05G09G10G30G25G04G02
 109557199.149 8  85369314.794 7  20848041.563                    20848048.375
 126059380.285 6  98228139.632 6  23988299.422                    23988308.668
 109933544.590 8  85662639.665 7  20919650.602                    20919658.215
 130230014.899 6 101477998.16343  24781963.078                    24781975.816
 111434262.879 8  86832000.75445  21205221.133                    21205228.641
 118083238.013 7  92013003.93745  22470499.938                    22470507.652
 120251591.570 7  93702635.325 7  22883129.875                    22883140.324
 119894352.969 7  93424268.11744  22815124.859                    22815133.906
 109035586.223 8  84962949.88546  20748777.945                    20748783.305
 11  8 19  1  1 30.0000000  0  9G12G17G05G09G10G30G25G04G02
 109533484.029 8  85350835.477 7  20843528.703                    20843535.809
 126124387.686 6  98278794.736 6  24000670.469                    24000678.547
 109872994.181 8  85615457.576 7  20908128.016                    20908135.758
 130311674.441 6 101541628.76643  24797502.172                    24797516.043
 111479139.629 7  86866969.65145  21213760.914                    21213768.453
 118012389.363 7  91957797.24844  22457017.664                    22457025.730
 120171473.173 7  93640205.468 7  22867884.141                    22867894.438
 119976458.699 7  93488246.57844  22830749.453                    22830758.371
 109053478.450 8  84976891.87046  20752182.766                    20752188.234
 11  8 19  1  2  0.0000000  0  9G12G17G05G09G10G30G25G04G02
 109510327.975 8  85332791.816 7  20839122.195                    20839129.070
 126189580.077 7  98329593.983 6  24013075.477                    24013084.707
 109812931.738 8  85568655.703 7  20896698.773                    20896705.910
 130393265.855 6 101605206.28043  24813029.102                    24813042.637
 111524587.991 8  86902383.97045  21222409.047                    21222416.957
 117942006.533 7  91902953.53245  22443624.211                    22443632.359
 120091719.840 7  93578060.090 7  22852707.742                    22852717.578
 120058580.700 7  93552237.70844  22846376.680                    22846385.438
 109071572.523 8  84990991.14146  20755625.984                    20755631.230
 11  8 19  1  2 30.0000000  0  9G12G17G05G09G10G30G25G04G02
 109487732.059 8  85315184.612 7  20834822.398                    20834829.289
 126254957.811 6  98380537.662 6  24025516.227                    24025526.230
 109753359.352 8  85522235.706 7  20885362.258                    20885369.906
 130474785.980 6 101668728.21343  24828541.969                    24828555.781
 111570606.362 7  86938242.45145  21231166.336                    21231173.813
 117872091.707 7  91848474.49144  22430319.367                    22430328.328
 120012334.066 7  93516201.102 7  22837601.117                    22837611.566
 120140718.004 7  93616240.76144  22862007.391                    22862016.172
 109089867.251 8  85005246.77246  20759107.367                    20759112.961
 11  8 19  1  3  0.0000000  0  9G12G17G05G09G10G30G25G04G02
 109465697.518 8  85298014.863 7  20830629.156                    20830636.250
 126320520.918 6  98431625.745 6  24037992.469                    24038002.262
 109694279.047 8  85476199.154 7  20874119.508                    20874126.863
 130556231.959 6 101732192.39243  24844040.695                    24844053.879
 111617192.889 8  86974543.65445  21240031.563                    21240039.254
 117802647.387 7  91794362.07444  22417104.617                    22417113.605
 119933318.439 7  93454630.520 7  22822564.781                    22822574.930
 120222869.360 7  93680254.76844  22877640.039                    22877648.836
 109108361.480 8  85019657.86846  20762626.578                    20762632.219
 11  8 19  1  3 30.0000000  0  9G12G17G05G09G10G30G25G04G02
 109444225.385 8  85281283.345 7  20826542.961                    20826549.922
 126386269.590 6  98482858.455 6  24050504.344                    24050513.676
 109635692.407 8  85430547.272 7  20862970.914                    20862978.461
 130637601.134 6 101795596.75543  24859524.539                    24859537.879
 111664345.599 8  87011286.02945  21249004.117                    21249011.945
 117733676.003 7  91740618.17944  22403979.398                    22403988.422
 119854675.583 7  93393350.421 6  22807599.234                    22807610.090
 120305033.539 7  93744278.78444  22893275.461                    22893283.895
 109127054.371 8  85034223.75346  20766184.203                    20766189.000
 11  8 19  1  4  0.0000000  0  8G12G17G05G10G30G25G04G02
 109423317.332 8  85264991.373 7  20822564.523                    20822571.051
 126452204.620 7  98534236.441 6  24063051.336                    24063060.875
 109577602.406 8  85385282.378 7  20851916.648                    20851924.172
 111712063.395 7  87048468.74745  21258084.695                    21258092.734
 117665180.542 7  91687245.11744  22390945.570                    22390953.996
 119776408.648 7  93332363.243 6  22792705.688                    22792715.918
 120387210.150 7  93808312.49244  22908913.141                    22908921.547
 109145945.183 8  85048943.87046  20769778.531                    20769783.859
 11  8 19  1  4 30.0000000  0  8G12G17G05G10G30G25G04G02
 109402973.493 8  85249139.042 7  20818693.219                    20818699.836
 126518325.655 6  98585759.328 6  24075633.453                    24075643.250
 109520010.065 8  85340405.263 7  20840957.609                    20840964.785
 111760343.779 8  87086089.82645  21267272.219                    21267279.656
 117597162.541 7  91634244.11244  22378001.836                    22378010.617
 119698519.508 7  93271670.439 6  22777883.586                    22777894.199
 120469397.120 7  93872354.28044  22924553.289                    22924561.414
 109165032.077 8  85063816.77446  20773411.070                    20773416.254
 11  8 19  1  5  0.0000000  0  8G12G17G05G10G30G25G04G02
 109383195.048 8  85233727.281 7  20814929.469                    20814936.102
 126584632.799 6  98637427.248 6  24088251.516                    24088260.426
 109462917.262 8  85295917.405 8  20830092.953                    20830099.793
 111809184.961 8  87124147.89545  21276566.570                    21276573.488
 117529624.347 7  91581616.98544  22365150.008                    22365158.719
 119621010.545 7  93211273.873 7  22763134.250                    22763144.230
 120551593.179 7  93936403.14344  22940194.422                    22940202.984
 109184314.026 8  85078841.65646  20777079.961                    20777085.262
 11  8 19  1  5 30.0000000  0  8G12G17G05G10G30G25G04G02
 109363983.302 8  85218757.108 7  20811273.750                    20811280.637
 126651126.192 6  98689240.249 6  24100904.484                    24100914.445
 109406326.524 8  85251820.764 8  20819323.930                    20819331.688
 111858585.440 8  87162641.76445  21285966.852                    21285974.602
 117462568.617 7  91529365.79245  22352389.680                    22352398.391
 119543884.709 7  93151175.831 7  22748457.594                    22748467.910
 120633797.204 7  94000458.19944  22955836.453                    22955845.945
 109203790.217 8  85094017.90546  20780786.070                    20780791.395
 11  8 19  1  6  0.0000000  0  8G12G17G05G10G30G25G04G02
 109345338.402 8  85204228.630 7  20807725.625                    20807732.227
 126717805.674 6  98741198.350 6  24113593.328                    24113602.918
 109350238.944 8  85208116.197 8  20808650.922                    20808657.887
 111908542.640 7  87201569.46045  21295473.688                    21295481.305
 117395997.152 7  91477491.94145  22339721.273                    22339731.055
 119467143.989 7  93091377.906 7  22733854.563                    22733865.070
 120716007.966 6  94064518.49444  22971481.375                    22971489.723
 109223458.812 8  85109344.07546  20784529.094                    20784534.434
 11  8 19  1  6 30.0000000  0  8G12G17G05G10G30G25G04G02
 109327261.615 8  85190142.837 7  20804285.594                    20804292.508
 126784671.277 6  98793301.442 6  24126316.844                    24126326.793
 109294656.290 8  85164805.073 8  20798073.852                    20798081.246
 111959054.506 8  87240929.34345  21305085.172                    21305092.965
 117329912.076 7  91425997.12245  22327145.922                    22327154.883
 119390790.749 7  93031881.921 7  22719324.641                    22719334.746
 120798223.878 6  94128582.81244  22987126.773                    22987134.949
 109243318.236 8  85124818.94546  20788308.492                    20788313.719
 11  8 19  1  7  0.0000000  0  8G12G17G05G10G30G25G04G02
 109309753.680 8  85176500.304 7  20800953.922                    20800960.930
 126851723.389 6  98845549.864 6  24139076.695                    24139086.492
 109239580.694 8  85121889.064 8  20787593.391                    20787600.379
 112010119.494 7  87280720.24245  21314802.508                    21314810.637
 117264316.045 7  91374883.36345  22314663.430                    22314672.039
 119314827.976 7  92972690.169 7  22704869.523                    22704879.871
 120880444.327 7  94192650.66044  23002772.508                    23002781.340
 109263368.247 8  85140442.32346  20792123.742                    20792129.258
 11  8 19  1  7 30.0000000  0  8G12G17G05G10G30G25G04G02
 109292815.743 8  85163301.922 7  20797730.781                    20797737.527
 126918962.343 6  98897943.846 6  24151872.109                    24151881.699
 109185014.127 8  85079369.688 8  20777209.273                    20777216.973
 112061735.718 7  87320940.67045  21324624.938                    21324632.965
 117199211.484 7  91324152.56745  22302274.031                    22302282.750
 119239258.132 7  92913804.598 7  22690488.797                    22690499.258
 120962668.288 7  94256721.26644  23018418.922                    23018428.219
 109283607.968 8  85156213.53646  20795975.016                    20795980.395
 11  8 19  1  8  0.0000000  0  8G12G17G05G10G30G25G04G02
 109276448.383 8  85150548.139 7  20794616.453                    20794623.121
 126986388.078 6  98950483.356 6  24164702.766                    24164712.348
 109130957.788 8  85037247.918 8  20766922.688                    20766930.039
 112113900.904 7  87361588.87545  21334551.797                    21334559.254
 117134600.265 7  91273806.19945  22289979.242                    22289987.582
 119164083.471 7  92855226.974 7  22676183.391                    22676194.043
 121044894.306 7  94320793.46544  23034065.813                    23034075.250
 109304035.854 8  85172131.36646  20799862.328                    20799867.836
 11  8 19  1  8 30.0000000  0  8G12G17G05G10G30G25G04G02
 109260652.334 8  85138239.536 7  20791610.445                    20791617.359
 127054000.283 6  99003168.236 6  24177569.086                    24177578.594
 109077413.365 8  84995525.033 8  20756733.430                    20756741.035
 112166612.556 7  87402662.88445  21344582.992                    21344589.793
 117070484.342 7  91223845.76145  22277778.672                    22277787.109
 119089306.190 7  92796958.980 7  22661954.281                    22661964.648
 121127120.906 7  94384866.10944  23049713.805                    23049722.117
 109324650.002 8  85188194.33746  20803785.234                    20803790.391
 11  8 19  1  9  0.0000000  0  8G12G17G05G10G30G25G04G02
 109245428.828 8  85126377.077 7  20788713.250                    20788719.855
 127121799.310 6  99055998.687 5  24190470.648                    24190480.254
 109024383.131 8  84954202.812 8  20746642.367                    20746649.941
 112219869.395 7  87444161.72045  21354716.570                    21354724.754
 117006866.273 7  91174273.26745  22265672.203                    22265680.789
 119014929.146 7  92739002.870 7  22647800.594                    22647811.488
 121209347.471 6  94448938.74744  23065360.656                    23065369.488
 109345449.963 8  85204402.10546  20807742.578                    20807748.402
 11  8 19  1  9 30.0000000  0  8G12G17G05G10G30G25G04G02
 109230778.130 8  85114960.953 7  20785925.484                    20785932.395
 127189785.356 6  99108974.849 5  24203407.820                    24203417.520
 108971868.487 8  84913282.358 7  20736649.148                    20736656.504
 112273669.175 7  87486083.62345  21364954.336                    21364962.164
 116943748.215 7  91125090.39845  22253661.203                    22253669.848
 118940954.620 7  92681360.413 7  22633723.766                    22633733.973
 121291572.511 7  94513010.17244  23081007.875                    23081016.496
 109366434.663 8  85220753.80946  20811736.320                    20811742.063
 11  8 19  1 10  0.0000000  0  8G12G17G05G10G30G25G04G02
 109216701.751 8  85103992.356 7  20783246.844                    20783253.754
 127257958.318 6  99162096.658 6  24216380.805                    24216390.508
 108919871.387 8  84872765.175 8  20726754.141                    20726761.684
 112328009.958 7  87528427.08645  21375295.406                    21375303.219
 116881132.615 7  91076299.02945  22241746.234                    22241754.191
 118867385.423 7  92624033.792 7  22619723.969                    22619734.441
 121373795.384 7  94577079.90544  23096653.523                    23096662.855
 109387603.096 8  85237248.70846  20815764.688                    20815770.738
 11  8 19  1 10 30.0000000  0  8G12G17G05G10G30G25G04G02
 109203199.665 8  85093471.254 7  20780677.211                    20780684.125
 127326318.381 6  99215364.190 6  24229390.258                    24229399.883
 108868393.320 8  84832652.436 7  20716958.359                    20716965.719
 112382889.483 7  87571190.35145  21385738.313                    21385746.520
 116819021.252 7  91027900.59445  22229926.531                    22229935.141
 118794223.663 7  92567024.681 7  22605801.758                    22605811.945
 121456014.818 7  94641146.96544  23112300.492                    23112308.879
 109408954.052 8  85253885.81346  20819827.594                    20819833.102
 11  8 19  1 11  0.0000000  0  8G12G17G05G10G30G25G04G02
 109190272.984 8  85083398.533 7  20778217.484                    20778224.305
 127394865.532 6  99268777.597 5  24242432.953                    24242441.773
 108817436.121 8  84792945.574 7  20707261.406                    20707268.918
 112438305.990 7  87614372.04445  21396283.875                    21396291.508
 116757416.414 7  90979896.86445  22218203.320                    22218211.902
 118721471.953 7  92510335.073 7  22591957.305                    22591967.938
 121538229.700 7  94705210.48044  23127945.219                    23127953.488
 109430486.365 8  85270664.24646  20823925.117                    20823930.125
 11  8 19  1 11 30.0000000  0  8G12G17G05G10G30G25G04G02
 109177922.093 8  85073774.465 7  20775867.258                    20775874.039
 127463599.864 6  99322336.846 6  24255513.227                    24255521.801
 108767001.306 8  84753645.747 8  20697664.188                    20697671.637
 112494257.157 7  87657970.36845  21406930.695                    21406939.074
 116696320.170 7  90932289.42145  22206577.391                    22206585.727
 118649132.553 7  92453966.742 7  22578191.703                    22578202.039
 121620438.808 7  94769269.51344  23143589.148                    23143597.285
 109452198.909 8  85287583.11746  20828056.852                    20828062.277
 11  8 19  1 12  0.0000000  0  8G12G17G05G10G30G25G04G02
 109166147.382 8  85064599.361 7  20773626.484                    20773633.906
 127532521.314 6  99376041.912 6  24268628.938                    24268637.445
 108717090.137 8  84714753.972 8  20688166.367                    20688173.516
 112550740.314 7  87701983.20945  21417679.617                    21417687.098
 116635734.259 7  90885079.65345  22195048.430                    22195056.230
 118577207.496 8  92397921.281 7  22564504.664                    22564515.246
 121702640.949 7  94833323.08744  23159231.891                    23159240.086
 109474090.055 8  85304641.17146  20832222.695                    20832228.102
 11  8 19  1 12 30.0000000  0  8G12G17G05G10G30G25G04G02
 109154950.019 8  85055874.151 7  20771495.680                    20771502.746
 127601629.874 6  99429892.748 6  24281779.867                    24281789.176
 108667704.326 8  84676271.562 8  20678768.359                    20678775.215
 112607753.702 7  87746409.23045  21428529.023                    21428536.270
 116575661.220 7  90838269.52645  22183616.672                    22183624.969
 118505699.797 7  92342201.033 7  22550897.531                    22550907.582
 121784835.530 7  94897370.78744  23174872.789                    23174881.414
 109496159.391 8  85321838.07246  20836421.969                    20836427.289
 11  8 19  1 13  0.0000000  0  8G12G17G05G10G30G25G04G02
 109144330.532 8  85047599.234 7  20769474.961                    20769481.738
 127670925.740 6  99483889.534 6  24294966.102                    24294975.922
 108618845.484 8  84638199.770 8  20669471.086                    20669477.895
 112665295.188 7  87791246.75545  21439478.570                    21439486.281
 116516103.000 7  90791860.56845  22172282.516                    22172291.082
 118434611.577 7  92286807.655 7  22537369.867                    22537379.988
 121867021.217 7  94961411.54144  23190512.883                    23190521.176
 109518405.769 8  85339172.90946  20840655.313                    20840660.969
 11  8 19  1 13 30.0000000  0  8G12G17G05G10G30G25G04G02
 109134289.546 8  85039775.081 7  20767564.039                    20767571.125
 127740409.048 6  99538032.386 6  24308187.953                    24308197.793
 108570515.483 8  84600540.074 8  20660274.219                    20660281.359
 112723362.916 7  87836494.33245  21450528.672                    21450536.059
 116457061.851 7  90745854.50045  22161047.883                    22161056.504
 118363945.409 7  92231743.146 7  22523922.391                    22523932.848
 121949197.212 7  95025444.77844  23206149.500                    23206158.652
 109540828.304 8  85356645.02546  20844922.164                    20844927.719
 11  8 19  1 14  0.0000000  0  9G12G17G05G29G10G30G25G04G02
 109124827.268 8  85032401.885 7  20765763.430                    20765770.945
 127810079.665 6  99592321.243 6  24321446.414                    24321455.320
 108522715.808 8  84563293.612 8  20651177.563                    20651185.473
 129536857.21816 100937852.44216  24650050.016                    24650059.379
 112781954.331 7  87882149.98345  21461678.344                    21461685.352
 116398539.508 7  90700252.69444  22149911.180                    22149919.930
 118293703.356 7  92177009.109 7  22510555.719                    22510566.043
 122031362.349 7  95089469.52244  23221784.695                    23221793.832
 109563425.529 7  85374253.26746  20849222.602                    20849227.730
 11  8 19  1 14 30.0000000  0  9G12G17G05G29G10G30G25G04G02
 109115945.065 8  85025480.670 7  20764073.500                    20764080.262
 127879937.726 6  99646756.132 6  24334739.672                    24334749.203
 108475448.203 8  84526461.752 8  20642183.102                    20642190.152
 129457379.627 6 100875921.876 6  24634926.047                    24634935.188
 112841067.674 7  87928212.31445  21472926.867                    21472934.809
 116340538.493 7  90655057.12045  22138874.289                    22138882.258
 118223888.470 7  92122607.934 7  22497270.227                    22497280.750
 122113516.128 7  95153485.37844  23237418.695                    23237427.773
 109586196.937 8  85391997.23446  20853555.680                    20853561.332
 11  8 19  1 15  0.0000000  0  9G12G17G05G29G10G30G25G04G02
 109107642.821 8  85019011.388 7  20762493.563                    20762500.668
 127949983.345 6  99701337.221 6  24348068.906                    24348078.238
 108428713.700 8  84490045.288 8  20633289.648                    20633297.059
 129377824.208 6 100813930.701 6  24619787.367                    24619796.660
 112900700.451 8  87974679.41245  21484274.602                    21484282.344
 116283060.572 7  90610269.16445  22127936.398                    22127944.770
 118154502.672 7  92068541.128 7  22484066.633                    22484076.910
 122195657.256 6  95217491.42144  23253049.484                    23253058.191
 109609141.130 8  85409875.82946  20857921.641                    20857926.988
 11  8 19  1 15 30.0000000  0  9G12G17G05G29G10G30G25G04G02
 109099920.795 8  85012994.224 7  20761024.016                    20761031.234
 128020216.028 6  99756064.041 6  24361432.906                    24361443.277
 108382513.261 8  84454044.994 8  20624498.102                    20624505.527
 129298191.060 6 100751878.955 6  24604632.953                    24604643.309
 112960849.814 7  88021549.04845  21495721.375                    21495728.871
 116226107.208 7  90565889.93645  22117098.672                    22117106.844
 118085547.846 7  92014810.124 7  22470944.852                    22470955.168
 122277784.164 6  95281486.36944  23268677.672                    23268686.707
 109632256.354 8  85427887.70346  20862320.758                    20862326.012
 11  8 19  1 16  0.0000000  0  9G12G17G05G29G10G30G25G04G02
 109092779.528 8  85007429.592 7  20759665.203                    20759672.156
 128090635.959 6  99810936.746 6  24374833.766                    24374844.094
 108336849.034 8  84418462.519 8  20615808.359                    20615815.945
 129218480.597 6 100689766.992 6  24589465.297                    24589474.586
 113021513.797 7  88068819.68545  21507264.672                    21507272.555
 116169680.692 7  90521921.26845  22106360.633                    22106369.563
 118017026.632 7  91961416.981 7  22457905.555                    22457916.363
 122359896.380 7  95345469.84344  23284303.250                    23284311.859
 109655542.132 8  85446032.47146  20866751.617                    20866757.074
 11  8 19  1 16 30.0000000  0  9G12G17G05G29G10G30G25G04G02
 109086219.561 8  85002317.928 7  20758416.672                    20758423.730
 128161243.058 6  99865955.315 6  24388268.969                    24388279.133
 108291722.112 8  84383298.726 8  20607220.805                    20607228.543
 129138693.709 6 100627595.461 6  24574282.352                    24574291.449
 113082690.251 7  88116489.65445  21518906.578                    21518913.930
 116113782.955 7  90478364.59245  22095723.953                    22095732.336
 117948941.279 7  91908363.504 7  22444949.586                    22444960.180
 122441992.766 6  95409440.99844  23299925.555                    23299934.570
 109678997.273 8  85464309.20546  20871214.859                    20871220.203
 11  8 19  1 17  0.0000000  0  9G12G17G05G29G10G30G25G04G02
 109080241.060 8  84997659.355 7  20757279.297                    20757286.621
 128232037.233 6  99921119.658 6  24401742.211                    24401750.867
 108247133.845 8  84348554.653 8  20598736.219                    20598743.500
 129058831.184 6 100565365.031 6  24559084.063                    24559094.473
 113144377.149 7  88164557.37145  21530644.844                    21530652.594
 116058415.916 7  90435221.45645  22085187.797                    22085196.543
 117881294.229 7  91855651.544 7  22432076.563                    22432087.121
 122524072.464 6  95473399.16344  23315544.164                    23315553.879
 109702620.962 8  85482717.27746  20875710.117                    20875715.324
 11  8 19  1 17 30.0000000  0  9G12G17G05G29G10G30G25G04G02
 109074844.580 8  84993454.303 7  20756252.164                    20756259.375
 128303018.343 6  99976429.695 6  24415248.711                    24415257.781
 108203085.941 8  84314231.654 8  20590354.055                    20590361.594
 128978893.368 6 100503075.929 6  24543871.695                    24543882.582
 113206571.799 7  88213020.73245  21542479.945                    21542487.797
 116003581.543 7  90392493.39345  22074753.258                    22074761.348
 117814087.757 7  91803282.895 7  22419287.734                    22419297.828
 122606134.652 6  95537343.68344  23331159.969                    23331169.805
 109726411.860 8  85501255.63646  20880237.609                    20880242.770
 11  8 19  1 18  0.0000000  0  9G12G17G05G29G10G30G25G04G02
 109070030.485 8  84989703.063 7  20755336.242                    20755342.832
 128374186.621 6 100031885.553 6  24428792.047                    24428800.773
 108159579.619 8  84280330.667 8  20582074.820                    20582082.355
 128898880.817 6 100440728.578 6  24528645.734                    24528655.996
 113269271.784 7  88261877.85345  21554411.625                    21554419.344
 115949281.623 7  90350181.77445  22064420.391                    22064428.180
 117747324.000 7  91751259.224 7  22406582.664                    22406593.129
 122688177.966 6  95601273.51444  23346773.617                    23346782.313
 109750369.089 8  85519923.61446  20884796.422                    20884802.227
 11  8 19  1 18 30.0000000  0  9G12G17G05G29G10G30G25G04G02
 109065799.146 8  84986405.918 7  20754531.094                    20754538.113
 128445541.799 6 100087487.020 6  24442368.891                    24442379.473
 108116615.982 8  84246852.537 8  20573899.461                    20573906.617
 128818794.009 6 100378323.337 6  24513406.469                    24513415.910
 113332474.703 7  88311126.87145  21566438.500                    21566446.672
 115895517.882 7  90308287.98545  22054189.492                    22054197.801
 117681005.150 7  91699582.214 7  22393962.594                    22393972.922
 122770201.870 7  95665188.20243  23362382.117                    23362390.777
 109774491.415 8  85538720.22646  20889386.961                    20889392.203
 11  8 19  1 19  0.0000000  0  9G12G17G05G29G10G30G25G04G02
 109062150.859 7  84983563.100 7  20753836.516                    20753843.609
 128517083.837 6 100143234.069 6  24455984.172                    24455993.426
 108074196.276 8  84213798.268 8  20565827.359                    20565834.629
 128738633.524 6 100315860.661 6  24498152.781                    24498161.770
 113396178.421 7  88360766.12645  21578561.156                    21578568.531
 115842292.373 7  90266813.56245  22044061.180                    22044068.941
 117615133.697 7  91648253.843 7  22381427.734                    22381437.863
 122852205.331 6  95729086.94043  23377986.781                    23377995.742
 109798778.057 8  85557644.86646  20894008.766                    20894013.785
 11  8 19  1 19 30.0000000  0  9G12G17G05G29G10G30G25G04G02
 109059085.694 8  84981174.675 8  20753253.836                    20753260.516
 128588812.517 6 100199126.595 6  24469632.742                    24469642.676
 108032321.867 8  84181168.888 8  20557858.703                    20557865.973
 128658400.015 6 100253341.111 6  24482884.758                    24482893.945
 113460380.264 7  88410793.53045  21590778.383                    21590785.848
 115789606.700 7  90225759.82045  22034035.477                    22034043.656
 117549711.602 7  91597275.609 7  22368978.789                    22368988.453
 122934187.382 6  95792969.02444  23393588.125                    23393596.129
 109823227.646 8  85576696.49146  20898661.102                    20898666.453
 11  8 19  1 20  0.0000000  0  9G12G17G05G29G10G30G25G04G02
 109056603.898 8  84979240.823 7  20752780.781                    20752788.289
 128660727.922 6 100255164.639 6  24483319.023                    24483327.352
 107990993.833 8  84148965.263 8  20549994.555                    20550001.719
 128578094.189 6 100190765.202 6  24467603.000                    24467612.348
 113525077.828 7  88461207.20745  21603089.766                    21603097.383
 115737462.700 8  90185128.15245  22024112.094                    22024121.055
 117484741.108 7  91546649.271 7  22356615.273                    22356625.066
 123016147.004 6  95856833.65743  23409184.313                    23409192.656
 109847839.242 8  85595874.36446  20903344.578                    20903350.027
 11  8 19  1 20 30.0000000  0  9G12G17G05G29G10G30G25G04G02
 109054705.599 7  84977761.647 7  20752420.117                    20752427.094
 128732829.792 6 100311348.020 6  24497038.391                    24497047.477
 107950213.683 8  84117188.567 8  20542233.727                    20542241.102
 128497716.646 6 100128133.413 6  24452307.461                    24452317.410
 113590268.778 7  88512005.34545  21615495.352                    21615503.223
 115685862.264 7  90144920.03545  22014293.414                    22014302.004
 117420224.580 7  91496376.665 7  22344337.664                    22344348.176
 123098083.498 6  95920680.26244  23424776.234                    23424784.391
 109872611.919 8  85615177.75246  20908058.445                    20908064.027
 11  8 19  1 21  0.0000000  0  9G12G17G05G29G10G30G25G04G02
 109053392.011 8  84976738.091 7  20752169.828                    20752176.801
 128805118.995 6 100367677.309 6  24510794.617                    24510804.473
 107909983.273 8  84085840.231 8  20534578.422                    20534585.453
 128417268.749 6 100065446.795 6  24436998.242                    24437008.754
 113655951.496 8  88563186.67845  21627994.273                    21628001.570
 115634807.914 7  90105137.44145  22004577.766                    22004586.367
 117356164.983 7  91446460.135 7  22332147.500                    22332157.691
 123179996.721 7  95984508.71543  23440363.898                    23440372.324
 109897545.285 8  85634606.34346  20912803.492                    20912808.598
 11  8 19  1 21 30.0000000  0  8G12G05G29G10G30G25G04G02
 109052663.284 8  84976170.271 7  20752031.141                    20752038.086
 107870303.800 8  84054921.204 8  20527027.375                    20527034.773
 128336751.064 6 100002705.784 6  24421676.805                    24421686.703
 113722123.638 7  88614749.37945  21640586.531                    21640594.051
 115584301.261 7  90065781.62445  21994966.719                    21994975.262
 117292564.386 7  91396901.251 7  22320044.789                    22320054.914
 123261885.585 6  96048318.18144  23455946.586                    23455955.461
 109922638.553 8  85654159.52946  20917578.391                    20917583.957
 11  8 19  1 22  0.0000000  0  8G12G05G29G10G30G25G04G02
 109052518.312 8  84976057.322 8  20752003.711                    20752010.871
 107831175.294 8  84024431.493 8  20519581.313                    20519588.375
 128256163.354 6  99939910.202 6  24406341.945                    24406349.996
 113788781.806 7  88666690.79445  21653271.031                    21653278.688
 115534343.228 7  90026853.31845  21985460.508                    21985468.527
 117229424.041 7  91347700.999 7  22308030.031                    22308040.129
 123343748.578 6  96112107.50943  23471524.727                    23471533.445
 109947889.554 8  85673835.63346  20922383.789                    20922389.211
 11  8 19  1 22 30.0000000  0  8G12G05G29G10G30G25G04G02
 109052957.669 8  84976399.696 7  20752087.570                    20752094.566
 107792599.288 8  83994372.295 8  20512240.578                    20512248.273
 128175506.348 6  99877060.587 6  24390993.266                    24391001.898
 113855923.562 7  88719009.03745  21666047.680                    21666055.520
 115484935.519 7  89988353.82745  21976058.219                    21976066.109
 117166746.218 7  91298861.181 7  22296102.055                    22296112.914
 123425584.796 6  96175875.94743  23487097.063                    23487106.813
 109973297.569 8  85693634.08546  20927218.414                    20927223.969
 11  8 19  1 23  0.0000000  0  8G12G05G29G10G30G25G04G02
 109053980.812 8  84977196.966 7  20752282.055                    20752289.313
 107754576.178 8  83964743.927 8  20505005.266                    20505012.355
 128094780.521 6  99814157.365 5  24375631.375                    24375640.387
 113923545.996 7  88771701.84545  21678915.602                    21678923.570
 115436079.336 7  89950284.10045  21966761.188                    21966769.262
 117104532.588 7  91250383.052 7  22284263.719                    22284273.621
 123507393.143 6  96239622.70143  23502664.898                    23502674.664
 109998860.887 8  85713553.55246  20932082.750                    20932088.578
 11  8 19  1 23 30.0000000  0  8G12G05G29G10G30G25G04G02
 109055588.181 7  84978449.481 7  20752587.680                    20752594.879
 107717107.434 8  83935547.536 8  20497874.867                    20497882.391
 128013986.786 6  99751201.237 5  24360256.039                    24360265.852
 113991646.896 7  88824767.48745  21691875.164                    21691882.816
 115387776.713 7  89912645.72645  21957569.266                    21957577.313
 117042785.725 7  91202268.652 7  22272513.688                    22272524.066
 123589173.197 6  96303347.40843  23518226.922                    23518235.785
 110024579.093 8  85733593.72446  20936977.328                    20936982.578
 11  8 19  1 24  0.0000000  0  8G12G05G29G10G30G25G04G02
 109057780.916 8  84980158.120 7  20753005.359                    20753011.719
 107680194.729 8  83906784.427 8  20490850.828                    20490858.105
 127933126.310 6  99688193.091 6  24344869.820                    24344878.879
 114060224.523 7  88878204.60645  21704925.016                    21704932.484
 115340029.965 7  89875440.48245  21948483.586                    21948491.195
 116981508.284 7  91154520.016 7  22260852.758                    22260862.605
 123670924.438 6  96367049.62143  23533783.953                    23533793.094
 110050451.872 8  85753754.32746  20941900.344                    20941905.773
 11  8 19  1 24 30.0000000  0  8G12G05G29G10G30G25G04G02
 109060557.218 7  84982321.482 7  20753533.594                    20753540.211
 107643838.859 8  83878455.203 8  20483932.289                    20483940.211
 127852199.127 6  99625132.966 5  24329469.586                    24329478.777
 114129275.476 7  88932010.55045  21718065.305                    21718072.852
 115292839.859 7  89838669.01345  21939503.188                    21939511.918
 116920701.620 7  91107138.239 7  22249281.695                    22249291.723
 123752645.494 6  96430728.30943  23549335.148                    23549344.191
 110076477.416 8  85774033.97546  20946852.984                    20946858.375
 11  8 19  1 25  0.0000000  0  8G12G05G29G10G30G25G04G02
 109063917.942 8  84984940.250 8  20754172.930                    20754180.168
 107608040.679 8  83850560.552 8  20477120.523                    20477127.758
 127771206.479 6  99562021.835 6  24314056.570                    24314066.371
 114198797.638 7  88986183.66545  21731294.547                    21731302.395
 115246208.427 7  89802332.86945  21930630.141                    21930638.063
 116860368.240 8  91060125.243 7  22237800.516                    22237810.828
 123834335.856 6  96494383.09644  23564880.273                    23564889.270
 110102655.190 8  85794432.24746  20951834.297                    20951839.691
 11  8 19  1 25 30.0000000  0  8G12G05G29G10G30G25G04G02
 109067862.746 8  84988014.128 7  20754923.539                    20754930.266
 107572800.942 8  83823101.044 8  20470414.727                    20470421.742
 127690148.670 6  99498859.949 6  24298631.938                    24298641.063
 114268787.779 7  89040721.43645  21744613.141                    21744620.750
 115200136.904 7  89766433.02245  21921862.523                    21921870.684
 116800509.863 7  91013482.378 7  22226409.789                    22226420.371
 123915994.497 6  96558013.16843  23580419.750                    23580428.551
 110128983.667 8  85814947.94046  20956844.609                    20956850.156
 11  8 19  1 26  0.0000000  0  8G12G05G29G10G30G25G04G02
 109072391.598 8  84991543.110 7  20755785.117                    20755791.855
 107538120.728 8  83796077.532 8  20463814.969                    20463822.152
 127609026.491 6  99435647.901 6  24283195.578                    24283204.488
 114339243.793 7  89095622.23045  21758020.695                    21758028.438
 115154626.982 7  89730970.76445  21913202.703                    21913210.273
 116741128.708 7  90967211.391 7  22215110.383                    22215120.070
 123997620.844 7  96621618.05144  23595952.383                    23595961.965
 110155462.216 8  85835580.59346  20961883.258                    20961888.883
 11  8 19  1 26 30.0000000  0  8G12G05G29G10G30G25G04G02
 109077505.002 8  84995527.579 7  20756758.195                    20756765.238
 107504001.178 8  83769490.900 8  20457322.273                    20457329.402
 127527840.905 6  99372386.468 6  24267745.594                    24267755.270
 114410163.538 8  89150884.36845  21771515.820                    21771523.613
 115109680.432 7  89695947.50645  21904649.117                    21904657.402
 116682227.009 7  90921313.993 7  22203901.719                    22203911.258
 124079214.183 7  96685197.23943  23611478.500                    23611488.297
 110182090.041 8  85856329.55146  20966950.125                    20966955.449
 11  8 19  1 27  0.0000000  0  8G12G05G29G10G30G25G04G02
 109083202.353 8  84999967.082 7  20757842.773                    20757849.727
 107470443.099 8  83743341.773 8  20450936.156                    20450943.227
 127446592.684 7  99309076.201 6  24252285.492                    24252293.965
 114481544.062 7  89206505.55945  21785099.305                    21785107.352
 115065298.480 7  89661364.20945  21896203.766                    21896211.758
 116623806.627 7  90875791.649 7  22192784.211                    22192794.563
 124160773.720 7  96748750.05844  23626999.672                    23627008.695
 110208866.119 8  85877194.02946  20972045.672                    20972050.832
 11  8 19  1 27 30.0000000  0  8G12G05G29G10G30G25G04G02
 109089483.385 8  85004861.396 7  20759037.914                    20759044.727
 107437447.407 8  83717630.879 8  20444657.250                    20444664.648
 127365282.344 7  99245717.517 6  24236812.703                    24236821.004
 114553382.569 7  89262483.60845  21798770.031                    21798777.305
 115021482.424 8  89627221.85845  21887866.031                    21887872.961
 116565869.407 7  90830645.793 7  22181759.070                    22181769.273
 124242298.543 7  96812275.84744  23642513.617                    23642522.176
 110235789.287 8  85898173.13146  20977168.820                    20977174.266
 11  8 19  1 28  0.0000000  0  8G12G05G29G10G30G25G04G02
 109096348.146 8  85010210.556 7  20760343.930                    20760351.148
 107405015.088 8  83692358.969 8  20438485.523                    20438492.723
 127283910.726 6  99182311.111 6  24221328.680                    24221337.098
 114625676.786 7  89318816.75445  21812526.844                    21812534.625
 114978234.152 8  89593521.94745  21879635.766                    21879643.461
 116508417.667 7  90785878.238 7  22170826.477                    22170836.375
 124323788.034 7  96875774.11644  23658020.555                    23658028.816
 110262858.873 8  85919266.31946  20982320.078                    20982325.371
 11  8 19  1 28 30.0000000  0  8G12G05G29G10G30G25G04G02
 109103796.271 8  85016014.277 7  20761761.453                    20761768.691
 107373146.666 8  83667526.466 8  20432421.258                    20432428.434
 127202478.672 6  99118857.634 6  24205831.852                    24205840.918
 114698423.701 7  89375502.65745  21826370.297                    21826377.906
 114935554.782 7  89560265.32445  21871514.086                    21871522.008
 116451453.143 8  90741490.328 7  22159986.516                    22159996.332
 124405241.504 7  96939244.28343  23673520.672                    23673529.559
 110290073.684 7  85940472.67646  20987499.305                    20987504.242
 11  8 19  1 29  0.0000000  0  8G12G05G29G10G30G25G04G02
 109111828.123 8  85022272.857 7  20763289.719                    20763297.211
 107341843.249 8  83643134.226 8  20426464.500                    20426471.840
 127120986.952 6  99055357.690 6  24190323.781                    24190333.816
 114771621.191 7  89432539.65545  21840298.820                    21840306.824
 114893446.021 8  89527453.32545  21863501.313                    21863509.074
 116394978.029 8  90697483.769 7  22149239.906                    22149249.859
 124486658.367 7  97002685.93943  23689013.219                    23689023.004
 110317432.995 8  85961791.62746  20992704.992                    20992710.602
 11  8 19  1 29 30.0000000  0  8G12G05G29G10G30G25G04G02
 109120442.979 8  85028985.723 8  20764929.219                    20764936.344
 107311105.601 8  83619182.840 8  20420615.156                    20420622.223
 127039436.433 6  98991811.931 6  24174805.297                    24174815.258
 114845266.383 7  89489925.51045  21854313.086                    21854320.977
 114851909.185 7  89495086.97745  21855596.875                    21855604.895
 116338994.289 8  90653860.111 7  22138586.594                    22138595.852
 124568037.960 7  97066098.57643  23704499.570                    23704508.660
 110344935.898 8  85983222.46446  20997939.211                    20997944.293
 11  8 19  1 30  0.0000000  0  8G12G05G29G10G30G25G04G02
 109129640.725 8  85036152.788 7  20766679.773                    20766686.633
 107280934.611 8  83595673.010 8  20414873.758                    20414880.770
 126957828.141 6  98928221.118 6  24159275.320                    24159285.633
 114919356.662 7  89547658.16245  21868412.516                    21868420.109
 114810945.607 8  89463167.32545  21847801.984                    21847809.855
 116283503.769 8  90610620.778 7  22128026.797                    22128036.445
 124649379.484 7  97129481.54243  23719978.219                    23719987.848
 110372581.556 8  86004764.53746  21003199.688                    21003205.094
 11  8 19  1 30 30.0000000  0  8G12G05G29G10G30G25G04G02
 109139420.959 8  85043773.738 7  20768540.859                    20768547.070
 107251330.984 8  83572605.278 8  20409240.508                    20409247.766
 126876163.036 6  98864586.013 6  24143735.484                    24143744.488
 114993889.772 7  89605735.90145  21882595.336                    21882602.836
 114770556.864 7  89431695.59845  21840115.953                    21840124.012
 116228508.678 8  90567767.494 7  22117561.656                    22117571.840
 124730682.582 7  97192834.56443  23735449.359                    23735458.973
 110400369.447 8  86026417.45446  21008487.578                    21008493.059
 11  8 19  1 31  0.0000000  0  8G12G05G29G10G30G25G04G02
 109149783.206 8  85051848.209 7  20770512.453                    20770519.527
 107222295.371 8  83549980.160 8  20403715.117                    20403722.594
 126794441.493 6  98800906.943 6  24128184.766                    24128193.359
 115068862.580 7  89664156.25945  21896862.586                    21896869.973
 114730743.803 8  89400672.45345  21832540.016                    21832547.844
 116174010.402 8  90525301.330 7  22107191.359                    22107201.059
 124811946.052 7  97256156.70443  23750913.672                    23750922.359
 110428298.119 8  86048180.05646  21013801.961                    21013807.227
 11  8 19  1 31 30.0000000  0  8G12G05G29G10G30G25G04G02
 109160727.068 8  85060375.884 7  20772595.086                    20772601.852
 107193828.059 8  83527797.875 8  20398298.109                    20398305.090
 126712664.312 6  98737184.537 6  24112622.750                    24112631.426
 115144272.261 8  89722917.05045  21911211.969                    21911220.219
 114691507.639 8  89370098.82445  21825073.289                    21825081.637
 116120010.760 8  90483223.711 7  22096915.070                    22096924.625
 124893169.143 7  97319447.38343  23766369.828                    23766379.156
 110456366.417 8  86070051.47546  21019143.594                    21019148.949
 11  8 19  1 32  0.0000000  0  8G12G05G29G10G30G25G04G02
 109172252.030 8  85069356.354 7  20774787.859                    20774795.098
 107165929.853 8  83506059.036 8  20392988.883                    20392995.918
 126630832.085 6  98673419.225 5  24097050.398                    24097059.051
 115220116.080 7  89782016.10645  21925644.930                    21925652.809
 114652849.677 8  89339975.73345  21817717.086                    21817725.289
 116066511.634 8  90441536.087 7  22086733.977                    22086744.129
 124974351.356 6  97382706.21043  23781818.422                    23781827.379
 110484573.383 8  86092030.94246  21024510.797                    21024516.293
 11  8 19  1 32 30.0000000  0  8G12G05G29G10G30G25G04G02
 109184358.154 8  85078789.700 7  20777092.008                    20777098.898
 107138601.611 8  83484764.333 8  20387788.773                    20387795.680
 126548946.258 6  98609612.111 5  24081468.070                    24081476.445
 115296391.685 7  89841451.62945  21940159.555                    21940167.500
 114614771.494 7  89310304.42445  21810470.492                    21810479.234
 116013515.174 8  90400240.164 7  22076649.438                    22076659.176
 125055492.117 6  97445932.71143  23797259.406                    23797268.242
 110512918.680 8  86114118.19046  21029905.125                    21029909.840
 11  8 19  1 33  0.0000000  0  8G12G05G29G10G30G25G04G02
 109197044.260 8  85088674.965 7  20779505.922                    20779512.832
 107111843.539 8  83463913.920 8  20382696.547                    20382704.000
 126467007.203 7  98545763.511 5  24065875.508                    24065883.426
 115373095.719 7  89901220.98845  21954756.469                    21954763.410
 114577273.619 7  89281085.30745  21803335.391                    21803343.129
 115961022.625 8  90359336.898 7  22066660.750                    22066670.121
 125136590.260 6  97509126.00743  23812691.930                    23812700.492
 110541400.486 8  86136311.82046  21035324.641                    21035329.797
 11  8 19  1 33 30.0000000  0  8G12G05G29G10G30G25G04G02
 109210310.259 8  85099012.097 7  20782030.578                    20782037.387
 107085656.502 8  83443508.453 8  20377713.570                    20377720.754
 126385015.838 7  98481874.150 5  24050273.180                    24050281.930
 115450225.837 7  89961322.36945  21969433.367                    21969441.285
 114540357.646 8  89252319.61745  21796310.492                    21796318.816
 115909036.119 8  90318827.951 7  22056767.648                    22056777.551
 125217645.572 6  97572285.97243  23828116.055                    23828124.758
 110570018.517 8  86158611.60346  21040770.836                    21040775.844
 11  8 19  1 34  0.0000000  0  8G12G05G29G10G30G25G04G02
 109224156.704 8  85109801.542 7  20784665.289                    20784672.176
 107060042.043 8  83423549.167 8  20372839.047                    20372846.188
 126302974.026 6  98417945.521 6  24034661.086                    24034670.359
 115527780.467 7  90021754.53245  21984191.688                    21984199.414
 114504025.825 8  89224009.10845  21789396.945                    21789404.930
 115857558.562 8  90278715.585 7  22046972.086                    22046982.094
 125298658.456 6  97635412.88043  23843532.805                    23843541.512
 110598773.454 8  86181018.06846  21046242.469                    21046247.699
 11  8 19  1 34 30.0000000  0  8G12G05G29G10G30G25G04G02
 109238581.421 8  85121041.570 7  20787410.219                    20787417.043
 107034999.345 8  83404035.398 8  20368073.758                    20368080.949
 126220881.374 6  98353977.301 6  24019039.570                    24019048.277
 115605755.182 7  90082514.03545  21999030.016                    21999037.320
 114468277.701 7  89196153.42345  21782594.594                    21782601.859
 115806590.077 8  90238999.899 7  22037273.336                    22037283.059
 125379626.839 6  97698505.10243  23858940.172                    23858949.734
 110627662.154 8  86203528.74546  21051739.891                    21051745.164
 11  8 19  1 35  0.0000000  0  8G12G05G29G10G30G25G04G02
 109253584.302 8  85132732.122 7  20790265.133                    20790271.570
 107010529.245 8  83384967.810 8  20363417.281                    20363424.375
 126138739.180 6  98289970.470 6  24003408.086                    24003417.051
 115684148.063 7  90143599.39845  22013947.828                    22013955.156
 114433114.798 7  89168753.76645  21775902.930                    21775910.973
 115756132.917 8  90199682.649 7  22027671.227                    22027681.430
 125460550.577 6  97761562.52343  23874338.977                    23874348.727
 110656684.374 8  86226143.47946  21057262.461                    21057268.086
 11  8 19  1 35 30.0000000  0  8G12G05G29G10G30G25G04G02
 109269165.271 8  85144873.131 7  20793229.977                    20793237.098
 106986632.063 8  83366346.649 8  20358869.414                    20358876.906
 126056548.581 6  98225925.955 6  23987768.070                    23987776.531
 115762955.941 7  90205008.10845  22028943.930                    22028951.984
 114398538.382 7  89141811.11845  21769322.734                    21769331.430
 115706188.846 8  90160765.200 7  22018167.359                    22018177.215
 125541428.959 6  97824584.60743  23889730.281                    23889739.012
 110685839.415 8  86248861.70546  21062810.867                    21062815.941
 11  8 19  1 36  0.0000000  0  8G12G05G29G10G30G25G04G02
 109285324.015 8  85157464.362 7  20796305.305                    20796311.836
 106963309.386 8  83348173.161 8  20354431.508                    20354439.160
 125974311.266 6  98161844.991 6  23972118.867                    23972127.422
 115842177.134 7  90266738.87945  22044019.656                    22044027.477
 114364550.335 7  89115326.92445  21762855.805                    21762863.844
 115656760.497 8  90122249.628 7  22008761.141                    22008771.148
 125622262.210 6  97887571.49343  23905112.469                    23905121.727
 110715127.654 8  86271683.73046  21068384.195                    21068389.352
 11  8 19  1 36 30.0000000  0  8G12G05G29G10G30G25G04G02
 109302059.352 8  85170504.890 7  20799489.781                    20799496.973
 106940560.725 8  83330446.946 8  20350102.727                    20350109.484
 125892027.180 6  98097727.597 6  23956460.797                    23956469.211
 115921807.807 7  90328788.73045  22059172.891                    22059180.379
 114331150.645 7  89089301.21545  21756499.930                    21756507.863
 115607848.473 8  90084136.371 7  21999453.336                    21999463.598
 125703048.888 6  97950522.13143  23920485.188                    23920494.848
 110744546.852 8  86294607.78246  21073982.117                    21073987.617
 11  8 19  1 37  0.0000000  0  8G12G05G29G10G30G25G04G02
 109319370.020 8  85183993.713 7  20802783.633                    20802790.871
 106918386.175 8  83313168.109 8  20345882.781                    20345889.844
 125809697.214 6  98033574.448 6  23940793.539                    23940801.957
 116001845.240 7  90391155.53745  22074403.398                    22074411.266
 114298340.168 7  89063734.61145  21750256.469                    21750263.766
 115559454.373 8  90046426.697 7  21990244.180                    21990254.539
 125783788.237 6  98013435.86343  23935849.367                    23935858.473
 110774095.754 8  86317632.90946  21079605.180                    21079610.805
 11  8 19  1 37 30.0000000  0  8G12G05G29G10G30G25G04G02
 109337256.554 8  85197931.278 7  20806187.500                    20806194.406
 106896786.737 8  83296337.395 8  20341772.797                    20341779.949
 125727322.594 6  97969386.531 6  23925117.547                    23925127.238
 116082286.999 7  90453837.41345  22089711.227                    22089719.066
 114266120.593 7  89038628.47645  21744124.867                    21744133.289
 115511580.484 8  90009122.372 7  21981134.383                    21981144.543
 125864480.424 6  98076312.86843  23951204.766                    23951213.727
 110803774.643 8  86340759.32046  21085252.813                    21085258.070
 11  8 19  1 38  0.0000000  0  8G12G05G29G10G30G25G04G02
 109355717.475 8  85212316.411 7  20809700.297                    20809707.473
 106875762.484 8  83279954.892 8  20337772.008                    20337778.852
 125644904.072 6  97905164.393 6  23909432.898                    23909442.996
 116163129.649 7  90516831.68845  22105094.523                    22105102.496
 114234492.257 7  89013983.03945  21738106.031                    21738114.512
 115464227.837 8  89972224.221 7  21972123.469                    21972133.344
 125945124.238 6  98139152.21643  23966550.234                    23966560.430
 110833581.816 8  86363985.68546  21090924.953                    21090930.305
 11  8 19  1 38 30.0000000  0  8G12G05G29G10G30G25G04G02
 109374752.513 8  85227148.910 7  20813322.602                    20813329.375
 106855314.219 8  83264021.198 8  20333880.594                    20333888.051
 125562443.147 6  97840909.224 6  23893742.047                    23893751.375
 116244371.223 7  90580136.79445  22120554.375                    22120562.523
 114203456.793 7  88989799.59945  21732200.547                    21732207.918
 115417398.770 8  89935734.061 7  21963212.188                    21963222.652
 126025719.941 6  98201954.05743  23981887.625                    23981897.074
 110863517.389 8  86387312.10046  21096621.422                    21096626.664
 11  8 19  1 39  0.0000000  0  8G12G05G29G10G30G25G04G02
 109394360.633 8  85242427.965 7  20817054.078                    20817060.742
 106835441.740 8  83248536.179 8  20330099.070                    20330106.109
 125479940.488 6  97776621.487 6  23878042.391                    23878051.430
 116326008.640 7  90643750.36645  22136089.492                    22136097.668
 114173014.809 8  88966078.60845  21726407.727                    21726415.945
 115371094.546 8  89899652.867 7  21954400.867                    21954411.492
 126106266.488 6  98264717.54043  23997215.055                    23997224.805
 110893580.076 8  86410737.55446  21102342.148                    21102347.691
 11  8 19  1 39 30.0000000  0  8G12G05G29G10G30G25G04G02
 109414541.102 8  85258153.012 7  20820893.938                    20820901.371
 106816145.478 8  83233500.162 8  20326427.047                    20326434.160
 125397397.357 6  97712302.195 6  23862334.578                    23862344.109
 116408039.304 7  90707670.34145  22151699.313                    22151707.039
 114143167.240 8  88942820.77845  21720727.383                    21720735.738
 115325316.868 8  89863981.970 7  21945689.039                    21945699.410
 126186763.558 7  98327442.49244  24012533.000                    24012542.547
 110923769.381 8  86434261.68446  21108086.828                    21108092.074
 11  8 19  1 40  0.0000000  0  8G12G05G29G10G30G25G04G02
 109435292.963 8  85274323.285 7  20824843.234                    20824850.082
 106797425.294 8  83218913.035 8  20322864.703                    20322871.945
 125314814.084 7  97647951.607 6  23846619.984                    23846628.969
 116490459.901 7  90771894.17944  22167383.406                    22167391.273
 114113914.508 7  88920026.47245  21715161.164                    21715169.250
 115280066.829 8  89828722.224 7  21937078.445                    21937088.754
 126267210.278 7  98390128.22443  24027842.328                    24027851.273
 110954083.856 8  86457883.33646  21113856.156                    21113861.320
 11  8 19  1 40 30.0000000  0  8G12G05G29G10G30G25G04G02
 109456615.383 8  85290938.160 7  20828900.688                    20828908.086
 106779281.760 8  83204775.244 8  20319412.148                    20319419.223
 125232191.569 7  97583570.413 6  23830897.836                    23830906.297
 116573267.788 7  90836419.80644  22183141.500                    22183149.484
 114085257.542 7  88897696.41645  21709707.727                    21709715.625
 115235346.073 8  89793874.907 7  21928568.789                    21928578.813
 126347606.201 6  98452774.37843  24043140.883                    24043149.941
 110984522.764 8  86481601.96346  21119648.344                    21119653.289
 11  8 19  1 41  0.0000000  0  8G12G05G29G10G30G25G04G02
 109478507.766 8  85307997.164 7  20833066.641                    20833074.105
 106761715.284 8  83191087.108 8  20316069.305                    20316076.273
 125149531.730 7  97519160.141 6  23815167.594                    23815176.711
 116656460.379 7  90901245.21745  22198972.766                    22198980.199
 114057197.462 7  88875831.45245  21704367.992                    21704375.820
 115191156.363 8  89759441.401 7  21920159.438                    21920170.066
 126427951.103 6  98515380.77643  24058429.328                    24058438.996
 111015085.948 8  86505417.42146  21125464.211                    21125469.684
 11  8 19  1 41 30.0000000  0  8G12G05G29G10G30G25G04G02
 109500969.086 8  85325499.497 7  20837340.930                    20837347.738
 106744726.096 8  83177848.801 8  20312836.461                    20312843.559
 125066835.447 7  97454721.482 6  23799431.109                    23799440.176
 116740034.667 7  90966368.04445  22214875.961                    22214884.047
 114029734.934 7  88854432.09845  21699142.203                    21699150.105
 115147499.175 8  89725422.846 7  21911851.695                    21911861.836
 126508244.275 6  98577946.89943  24073708.648                    24073718.664
 111045772.422 8  86529328.94846  21131303.461                    21131308.980
 11  8 19  1 42  0.0000000  0  8G12G05G29G10G30G25G04G02
 109523998.906 8  85343444.807 7  20841723.523                    20841730.438
 106728314.569 8  83165060.621 8  20309713.352                    20309720.453
 124984103.920 7  97390255.332 6  23783688.703                    23783696.027
 116823988.413 7  91031786.55145  22230852.125                    22230860.160
 114002871.190 7  88833499.33745  21694030.391                    21694037.859
 115104376.505 8  89691820.797 7  21903645.836                    21903656.078
 126588485.820 6  98640472.78243  24088978.078                    24088987.836
 111076582.021 8  86553336.41046  21137166.516                    21137171.711
 11  8 19  1 42 30.0000000  0  8G12G05G29G10G30G25G04G02
 109547595.216 8  85361831.549 7  20846213.820                    20846221.035
 106712479.884 8  83152721.939 8  20306700.031                    20306707.129
 124901337.492 7  97325761.993 6  23767938.039                    23767946.492
 116908317.681 7  91097497.65044  22246899.234                    22246907.199
 113976605.955 7  88813032.93445  21689032.391                    21689039.828
 115061788.668 8  89658635.519 7  21895541.695                    21895551.883
 126668674.418 6  98702957.39243  24104237.875                    24104247.332
 111107512.545 8  86577438.11546  21143052.383                    21143057.781
 11  8 19  1 43  0.0000000  0  8G12G05G29G10G30G25G04G02
 109571757.649 8  85380659.418 7  20850811.734                    20850819.012
 106697222.406 8  83140833.017 8  20303796.359                    20303803.242
 124818537.374 7  97261242.431 6  23752181.992                    23752190.691
 116993019.924 7  91163499.40345  22263017.219                    22263025.230
 113950940.183 7  88793033.64545  21684148.164                    21684155.449
 115019737.518 8  89625868.414 7  21887539.500                    21887549.719
 126748809.759 6  98765400.49943  24119487.359                    24119496.598
 111138563.713 8  86601633.82446  21148961.078                    21148966.398
 11  8 19  1 43 30.0000000  0  8G12G05G29G10G30G25G04G02
 109596485.711 8  85399928.036 7  20855517.070                    20855524.176
 106682542.899 8  83129394.455 8  20301003.219                    20301010.227
 124735705.410 7  97196698.035 6  23736419.133                    23736427.914
 117078092.972 7  91229790.11444  22279206.539                    22279214.715
 113925875.334 7  88773502.61845  21679378.531                    21679386.004
 114978225.130 8  89593521.136 7  21879640.398                    21879650.328
 126828892.248 6  98827802.42743  24134726.734                    24134735.578
 111169735.965 8  86625923.87546  21154893.055                    21154898.309
 11  8 19  1 44  0.0000000  0  8G12G05G29G10G30G25G04G02
 109621777.953 8  85419636.280 7  20860330.211                    20860337.184
 106668440.839 8  83118405.855 8  20298319.289                    20298326.730
 124652841.950 7  97132129.096 6  23720650.438                    23720659.223
 117163533.370 7  91296367.03944  22295464.961                    22295473.473
 113901411.420 8  88754439.83145  21674722.805                    21674730.656
 114937252.260 8  89561594.256 7  21871842.953                    21871853.398
 126908920.629 6  98890162.20443  24149955.664                    24149965.473
 111201027.418 8  86650306.82746  21160847.633                    21160853.184
 11  8 19  1 44 30.0000000  0  8G12G05G29G10G30G25G04G02
 109647633.242 8  85439783.254 7  20865250.102                    20865257.570
 106654916.378 8  83107867.332 8  20295745.953                    20295752.621
 124569948.469 6  97067536.793 6  23704876.766                    23704885.395
 117249338.518 7  91363228.17645  22311792.859                    22311801.578
 113877549.280 8  88735845.94845  21670181.805                    21670190.578
 114896820.534 8  89530089.036 7  21864149.375                    21864159.582
 126988894.802 6  98952479.73443  24165173.938                    24165183.539
 111232437.694 8  86674782.36846  21166825.109                    21166830.414
 11  8 19  1 45  0.0000000  0  8G12G05G29G10G30G25G04G02
 109674050.587 8  85460368.202 7  20870277.336                    20870284.547
 106641969.695 8  83097779.023 8  20293282.273                    20293289.137
 124487026.094 7  97002922.020 6  23689097.125                    23689106.137
 117335505.430 7  91430371.21744  22328190.133                    22328197.832
 113854289.313 8  88717721.29345  21665755.922                    21665764.082
 114856931.136 8  89499006.403 7  21856558.492                    21856568.348
 127068814.167 6  99014754.56843  24180381.789                    24180391.910
 111263965.971 8  86699349.85546  21172824.648                    21172830.273
 11  8 19  1 45 30.0000000  0  8G12G05G29G10G30G25G04G02
 109701029.431 8  85481390.678 7  20875411.031                    20875418.215
 106629601.089 8  83088141.163 8  20290928.531                    20290935.746
 124404076.175 7  96938285.782 6  23673312.180                    23673320.629
 117422031.770 7  91497794.31845  22344655.969                    22344663.309
 113831632.462 8  88700066.60745  21661444.234                    21661452.398
 114817585.811 8  89468347.720 7  21849071.258                    21849081.563
 127148678.512 6  99076986.52342  24195579.672                    24195588.871
 111295612.027 8  86724009.12746  21178846.477                    21178852.016
 11  8 19  1 46  0.0000000  0  8G12G05G29G10G30G25G04G02
 109728567.952 8  85502849.272 7  20880651.633                    20880658.441
 106617810.019 8  83078953.340 8  20288684.992                    20288691.844
 124321099.494 6  96873628.677 6  23657522.633                    23657531.074
 117508914.201 7  91565494.90144  22361189.258                    22361196.922
 113809578.816 8  88682881.94245  21657248.320                    21657255.770
 114778785.387 8  89438113.642 7  21841687.883                    21841697.770
 127228487.233 6  99139175.10842  24210766.008                    24210775.906
 111327374.548 8  86748759.13946  21184890.359                    21184895.973
 11  8 19  1 46 30.0000000  0  8G12G05G29G10G30G25G04G02
 109756664.873 8  85524742.979 7  20885998.156                    20886005.359
 106606596.176 8  83070215.299 8  20286550.609                    20286558.176
 124238096.697 6  96808951.227 6  23641727.398                    23641735.707
 117596149.335 7  91633470.32045  22377789.438                    22377797.195
 113788128.624 8  88666167.51045  21653165.961                    21653174.266
 114740530.891 8  89408304.955 7  21834408.328                    21834418.531
 127308239.588 6  99201319.84042  24225943.789                    24225952.727
 111359252.361 8  86773598.99646  21190956.750                    21190962.023
 11  8 19  1 47  0.0000000  0  8G12G05G29G10G30G25G04G02
 109785320.049 8  85547071.688 7  20891450.984                    20891458.266
 106595959.970 8  83061927.371 8  20284526.992                    20284534.051
 124155070.023 7  96744255.194 6  23625927.477                    23625936.875
 117683735.529 7  91701719.29744  22394456.398                    22394464.496
 113767283.432 8  88649924.50545  21649199.219                    21649207.281
 114702824.595 8  89378923.433 7  21827233.164                    21827242.801
 127387935.900 6  99263420.83043  24241109.016                    24241118.336
 111391246.291 8  86798529.34246  21197044.883                    21197050.500
 11  8 19  1 47 30.0000000  0  8G12G05G29G10G30G25G04G02
 109814531.350 7  85569833.754 7  20897010.008                    20897016.961
 106585900.877 8  83054089.140 8  20282612.648                    20282619.816
 124072019.805 7  96679540.825 6  23610123.734                    23610132.766
 117771668.946 7  91770238.82544  22411190.172                    22411197.602
 113747042.727 8  88634152.53245  21645347.625                    21645355.426
 114665666.845 8  89349969.366 7  21820162.297                    21820171.766
 127467575.512 6  99325477.64143  24256263.500                    24256272.801
 111423354.517 7  86823548.74546  21203155.172                    21203160.348
 11  8 19  1 48  0.0000000  0  9G12G26G05G29G10G30G25G04G02
 109844298.176 7  85593028.681 7  20902674.336                    20902681.254
 130489099.94315                  24831255.633
 106576419.070 8  83046700.748 8  20280808.266                    20280815.039
 123988947.620 7  96614809.326 6  23594315.727                    23594324.156
 117859946.970 7  91839026.87244  22427988.203                    22427996.191
 113727407.357 8  88618852.25745  21641611.367                    21641618.848
 114629059.153 8  89321443.885 7  21813196.133                    21813206.035
 127547157.787 6  99387489.81843  24271408.063                    24271417.164
 111455576.682 7  86848656.93446  21209287.117                    21209291.820
 11  8 19  1 48 30.0000000  0  9G12G26G05G29G10G30G25G04G02
 109874618.923 8  85616655.241 7  20908443.867                    20908451.313
 130397082.48014                  24813743.930
 106567514.598 8  83039762.215 8  20279113.781                    20279121.066
 123905854.680 7  96550061.660 6  23578503.695                    23578511.969
 117948566.782 7  91908081.26545  22444851.977                    22444859.422
 113708377.643 8  88604023.90845  21637990.023                    21637997.816
 114593002.790 8  89293348.033 7  21806334.117                    21806344.074
 127626682.600 6  99449457.19343  24286541.156                    24286550.102
 111487911.977 8  86873853.28446  21215440.023                    21215445.254
 11  8 19  1 49  0.0000000  0  9G12G26G05G29G10G30G25G04G02
 109905492.850 7  85640712.838 7  20914319.289                    20914326.082
 130304930.257 5 101536367.91153  24796208.469                    24796218.852
 106559186.989 8  83033273.190 8  20277528.891                    20277536.070
 123822742.152 7  96485298.712 6  23562688.117                    23562696.109
 118037525.785 7  91977399.95244  22461780.227                    22461788.230
 113689954.240 8  88589668.02345  21634484.430                    21634492.039
 114557499.168 8  89265682.877 7  21799578.461                    21799588.031
 127706149.995 6  99511379.77943  24301663.258                    24301672.488
 111520360.257 7  86899137.67146  21221614.680                    21221620.289
 11  8 19  1 49 30.0000000  0  9G12G26G05G29G10G30G25G04G02
 109936918.842 7  85665200.626 7  20920299.336                    20920305.965
 130212646.533 6 101464458.63343  24778648.141                    24778658.180
 106551436.801 8  83027234.107 8  20276054.375                    20276061.262
 123739612.056 7  96420522.090 6  23546868.336                    23546877.848
 118126821.468 7  92046980.98644  22478772.367                    22478780.445
 113672137.979 8  88575785.24445  21631093.555                    21631101.621
 114522549.944 8  89238449.728 7  21792927.672                    21792937.441
 127785559.987 6  99573257.66543  24316774.367                    24316783.656
 111552921.209 7  86924509.85546  21227810.750                    21227816.133
 11  8 19  1 50  0.0000000  0  9G12G26G05G29G10G30G25G04G02
 109968894.682 8  85690116.868 7  20926384.625                    20926391.605
 130120233.173 6 101392448.30843  24761061.867                    24761071.434
 106544262.582 8  83021643.834 8  20274689.031                    20274696.277
 123656464.359 7  96355731.745 6  23531046.227                    23531054.754
 118216449.761 7  92116821.16944  22495829.016                    22495836.777
 113654928.142 8  88562375.00645  21627818.875                    21627826.105
 114488155.179 8  89211648.626 7  21786382.781                    21786392.691
 127864911.352 6  99635089.88843  24331874.063                    24331884.066
 111585593.262 7  86949968.61846  21234028.219                    21234033.363
 11  8 19  1 50 30.0000000  0  9G12G26G05G29G10G30G25G04G02
 110001419.470 8  85715460.858 7  20932573.516                    20932580.707
 130027693.325 6 101320339.46443  24743452.516                    24743462.039
 106537664.455 8  83016502.453 8  20273433.234                    20273440.547
 123573300.282 7  96290928.632 6  23515220.484                    23515229.414
 118306408.065 7  92186918.52844  22512946.820                    22512955.516
 113638325.222 8  88549437.68545  21624659.281                    21624667.160
 114454316.203 8  89185280.613 7  21779943.156                    21779952.539
 127944203.752 6  99696876.13643  24346962.469                    24346972.695
 111618375.901 8  86975513.54146  21240266.484                    21240271.641
 11  8 19  1 51  0.0000000  0  9G12G26G05G29G10G30G25G04G02
 110034491.471 8  85741231.244 7  20938866.867                    20938873.633
 129935029.453 6 101248133.98543  24725819.234                    24725828.734
 106531641.801 7  83011809.492 8  20272287.313                    20272294.281
 123490121.445 7  96226113.997 6  23499392.164                    23499400.008
 118396693.400 7  92257270.68944  22530127.359                    22530135.820
 113622329.261 8  88536973.32945  21621615.141                    21621623.500
 114421033.887 8  89159346.388 7  21773609.969                    21773619.605
 128023436.654 6  99758616.05743  24362040.719                    24362049.855
 111651268.083 8  87001143.81846  21246525.492                    21246530.758
 11  8 19  1 51 30.0000000  0  9G12G26G05G29G10G30G25G04G02
 110068109.753 8  85767427.298 7  20945264.602                    20945271.082
 129842244.620 6 101175834.21743  24708162.570                    24708171.984
 106526194.479 8  83007564.849 8  20271251.117                    20271257.906
 123406928.925 7  96161288.696 6  23483561.195                    23483568.949
 118487303.134 7  92327875.66844  22547370.977                    22547378.422
 113606940.602 8  88524982.19245  21618687.031                    21618694.789
 114388309.440 8  89133846.848 7  21767382.563                    21767392.797
 128102610.109 7  99820309.69443  24377107.555                    24377116.105
 111684269.802 7  87026859.45846  21252805.492                    21252811.059
 11  8 19  1 52  0.0000000  0  9G12G26G05G29G10G30G25G04G02
 110102272.467 7  85794047.589 7  20951765.367                    20951772.234
 129749341.832 6 101103442.56143  24690483.922                    24690493.289
 106521322.158 8  83003768.235 8  20270323.461                    20270330.461
 123323724.013 6  96096453.746 6  23467727.078                    23467735.551
 118578234.337 6  92398731.10044  22564673.805                    22564682.188
 113592159.437 8  88513464.44345  21615874.148                    21615881.836
 114356143.848 8  89108782.773 7  21761261.555                    21761271.375
 128181723.586 6  99881956.58443  24392161.703                    24392171.242
 111717380.019 7  87052659.64246  21259106.203                    21259111.387
 11  8 19  1 52 30.0000000  0  9G12G26G05G29G10G30G25G04G02
 110136978.696 8  85821091.398 7  20958369.375                    20958376.594
 129656323.804 6 101030961.05342  24672782.898                    24672792.125
 106517024.572 8  83000419.487 8  20269505.758                    20269512.746
 123240508.106 6  96031610.230 6  23451891.414                    23451899.625
 118669484.302 7  92469834.94244  22582038.320                    22582046.363
 113577986.094 8  88502420.31045  21613177.414                    21613184.594
 114324538.276 8  89084155.098 7  21755247.523                    21755256.840
 128260777.110 6  99943556.75743  24407205.859                    24407214.508
 111750598.400 8  87078544.11346  21265427.664                    21265432.484
 11  8 19  1 53  0.0000000  0  9G12G26G05G29G10G30G25G04G02
 110172226.545 8  85848557.241 8  20965077.117                    20965083.797
 129563193.456 6 100958392.07042  24655059.922                    24655069.629
 106513301.081 8  82997518.074 8  20268797.063                    20268804.273
 123157282.389 7  95966759.066 6  23436054.563                    23436062.656
 118761049.935 7  92541184.74844  22599462.719                    22599470.352
 113564420.630 8  88491849.85245  21610595.313                    21610603.320
 114293493.569 8  89059964.470 7  21749339.563                    21749349.262
 128339770.187 6 100005109.80043  24422236.258                    24422246.184
 111783924.129 8  87104512.24746  21271769.078                    21271774.172
 11  8 19  1 53 30.0000000  0  9G12G26G05G29G10G30G25G04G02
 110208014.732 7  85876444.125 7  20971887.594                    20971894.156
 129469953.939 6 100885738.02742  24637317.008                    24637326.883
 106510151.153 8  82995063.604 8  20268197.758                    20268204.727
 123074047.978 6  95901901.090 6  23420215.344                    23420223.563
 118852928.081 7  92612778.07644  22616947.078                    22616954.750
 113551463.033 8  88481753.05945  21608129.438                    21608137.543
 114263010.703 8  89036211.613 7  21743538.781                    21743548.750
 128418702.302 6 100066615.36443  24437257.188                    24437266.570
 111817356.668 7  87130563.59246  21278130.875                    21278136.352
 11  8 19  1 54  0.0000000  0  9G12G26G05G29G10G30G25G04G02
 110244341.801 8  85904750.924 7  20978799.922                    20978807.324
 129376608.213 6 100813001.17242  24619554.703                    24619562.984
 106507574.722 8  82993056.017 8  20267707.750                    20267714.418
 122990806.326 7  95837037.503 6  23404374.938                    23404383.449
 118945116.137 7  92684612.92544  22634489.969                    22634497.141
 113539113.532 8  88472130.09845  21605779.711                    21605787.512
 114233090.697 8  89012897.361 7  21737844.984                    21737855.129
 128497573.543 6 100128073.44843  24452265.813                    24452275.801
 111850895.452 7  87156697.72046  21284513.242                    21284518.445
 11  8 19  1 54 30.0000000  0  9G12G26G05G29G10G30G25G04G02
 110281206.663 8  85933476.771 7  20985815.328                    20985822.660
 129283158.951 6 100740183.71542  24601771.141                    24601780.742
 106505571.317 8  82991494.935 8  20267326.180                    20267333.254
 122907558.855 7  95772169.371 6  23388533.445                    23388541.512
 119037611.070 7  92756686.88244  22652090.828                    22652098.457
 113527372.372 8  88462981.17645  21603545.609                    21603553.344
 114203734.516 7  88990022.440 7  21732258.828                    21732268.531
 128576383.586 6 100189483.84143  24467262.844                    24467272.551
 111884540.236 7  87182914.44546  21290915.844                    21290920.645
 11  8 19  1 55  0.0000000  0  9G12G26G05G29G10G30G25G04G02
 110318607.311 8  85962620.136 7  20992932.438                    20992939.344
 129189609.403 5 100667288.09943  24583969.531                    24583979.223
 106504140.714 7  82990380.204 8  20267054.195                    20267061.125
 122824306.874 7  95707297.720 6  23372691.367                    23372699.828
 119130410.259 7  92828997.91844  22669749.813                    22669758.008
 113516239.515 8  88454306.24545  21601426.641                    21601434.477
 114174943.139 8  88967587.635 7  21726779.930                    21726789.922
 128655132.374 6 100250846.48343  24482248.766                    24482257.855
 111918290.135 8  87209213.08446  21297338.063                    21297343.039
 11  8 19  1 55 30.0000000  0  9G12G26G05G29G10G30G25G04G02
 110356541.944 8  85992179.566 7  21000151.547                    21000158.098
 129095962.427 6 100594316.54943  24566149.273                    24566158.609
 106503281.952 8  82989711.050 8  20266890.539                    20266897.438
 122741051.573 6  95642423.471 6  23356848.367                    23356856.793
 119223510.490 7  92901543.52144  22687465.813                    22687474.230
 113505714.925 8  88446105.27645  21599424.305                    21599431.801
 114146717.283 7  88945593.475 7  21721408.922                    21721418.246
 128733819.269 6 100312161.00043  24497222.672                    24497231.336
 111952144.440 7  87235593.06246  21303780.484                    21303785.605
 11  8 19  1 56  0.0000000  0  9G12G26G05G29G10G30G25G04G02
 110395009.503 8  86022154.288 7  21007471.086                    21007478.230
 129002220.818 6 100521271.24943  24548310.672                    24548319.840
 106502994.480 8  82989487.068 8  20266835.930                    20266842.777
 122657794.522 7  95577547.873 6  23341004.758                    23341013.555
 119316909.111 7  92974321.64444  22705239.125                    22705246.996
 113495798.497 8  88438378.20345  21597537.047                    21597544.891
 114119057.849 7  88924040.694 7  21716145.047                    21716155.410
 128812444.331 6 100373427.25143  24512183.523                    24512193.816
 111986102.994 7  87262054.28046  21310242.461                    21310247.512
 11  8 19  1 56 30.0000000  0  9G12G26G05G29G10G30G25G04G02
 110434008.238 8  86052542.900 7  21014892.586                    21014899.418
 128908387.765 6 100448154.66343  24530454.328                    24530463.828
 106503277.993 8  82989708.004 8  20266889.758                    20266896.938
 122574536.974 6  95512671.872 6  23325161.469                    23325170.246
 119410603.179 6  93047329.98344  22723069.117                    22723076.465
 113486490.278 8  88431125.06845  21595765.688                    21595773.680
 114091965.606 7  88902929.864 7  21710990.055                    21710999.734
 128891007.056 6 100434644.95643  24527133.727                    24527143.473
 112020164.927 8  87288596.05346  21316724.242                    21316729.352
 11  8 19  1 57  0.0000000  0  9G12G26G05G29G10G30G25G04G02
 110473536.567 8  86083344.194 7  21022414.578                    21022421.578
 128814466.175 6 100374969.10343  24512581.727                    24512591.168
 106504131.692 8  82990373.239 8  20267052.336                    20267059.488
 122491280.297 7  95447796.543 6  23309318.445                    23309326.352
 119504589.440 7  93120566.02644  22740953.883                    22740961.539
 113477790.049 8  88424345.66645  21594110.172                    21594118.375
 114065441.309 8  88882261.599 7  21705942.188                    21705952.164
 128969507.216 6 100495813.89942  24542072.633                    24542081.430
 112054329.858 8  87315218.09046  21323225.625                    21323230.633
 11  8 19  1 57 30.0000000  0  9G12G26G05G29G10G30G25G04G02
 110513592.935 8  86114556.926 7  21030036.766                    21030043.855
 128720458.936 6 100301716.79843  24494692.758                    24494702.309
 106505554.987 7  82991482.311 8  20267323.078                    20267330.000
 122408025.766 6  95382922.924 6  23293475.953                    23293483.902
 119598865.455 6  93194027.84644  22758894.188                    22758901.699
 113469697.833 8  88418040.05045  21592569.969                    21592578.141
 114039485.834 8  88862036.546 7  21701003.203                    21701012.957
 129047944.748 6 100556934.01843  24556997.648                    24557007.477
 112088597.086 8  87341919.84146  21329746.273                    21329752.141
 11  8 19  1 58  0.0000000  0  9G12G26G05G29G10G30G25G04G02
 110554174.941 8  86146179.271 7  21037759.703                    21037766.109
 128626369.118 6 100228400.13743  24476788.117                    24476797.336
 106507547.016 8  82993034.555 8  20267702.195                    20267709.098
 122324774.626 7  95318051.930 6  23277632.883                    23277642.012
 119693428.218 7  93267713.11244  22776888.781                    22776895.988
 113462213.190 8  88412207.84645  21591145.914                    21591153.656
 114014099.658 8  88842255.118 7  21696172.344                    21696182.078
 129126319.390 6 100618005.19442  24571912.125                    24571921.574
 112122965.926 7  87368700.78046  21336286.508                    21336291.863
 11  8 19  1 58 30.0000000  0  9G12G26G05G29G10G30G25G04G02
 110595281.426 8  86178210.296 7  21045581.664                    21045588.613
 128532199.805 6 100155021.51743  24458868.430                    24458877.551
 106510107.333 8  82995029.619 8  20268189.125                    20268196.211
 122241528.633 7  95253184.956 6  23261791.813                    23261801.117
 119788274.741 7  93341619.44444  22794937.273                    22794945.234
 113455336.242 8  88406849.17345  21589837.320                    21589845.758
 113989283.710 8  88822918.000 7  21691450.445                    21691460.176
 129204630.873 6 100679027.09942  24586814.625                    24586824.297
 112157436.379 8  87395560.86746  21342846.133                    21342851.219
 11  8 19  1 59  0.0000000  0  9G12G26G05G29G10G30G25G04G02
 110636911.062 8  86210648.964 7  21053504.102                    21053510.453
 128437954.009 6 100081583.31442  24440933.555                    24440942.816
 106513235.327 7  82997467.016 8  20268784.867                    20268792.047
 122158289.207 7  95188323.111 6  23245952.516                    23245960.680
 119883402.141 7  93415744.67544  22813039.406                    22813047.758
 113449066.861 8  88401963.92545  21588644.133                    21588652.305
 113965038.789 7  88804025.848 7  21686836.625                    21686846.027
 129282879.118 6 100739999.77742  24601704.633                    24601715.324
 112192007.736 7  87422499.58146  21349424.789                    21349430.098
 11  8 19  1 59 30.0000000  0  9G12G26G05G29G10G30G25G04G02
 110679061.757 8  86243493.652 7  21061524.992                    21061531.930
 128343634.933 6 100008088.03742  24422984.930                    24422994.121
 106516930.158 7  83000346.122 8  20269487.953                    20269494.645
 122075057.338 7  95123467.112 6  23230113.984                    23230122.105
 119978807.779 7  93490086.70544  22831194.570                    22831202.449
 113443404.810 8  88397551.92945  21587566.961                    21587575.113
 113941365.556 8  88785579.166 7  21682331.805                    21682342.016
 129361063.813 6 100800922.87442  24616582.813                    24616591.988
 112226679.304 7  87449516.39346  21356022.641                    21356027.719
 11  8 19  2  0  0.0000000  0  9G12G26G05G29G10G30G25G04G02
 110721731.802 8  86276743.032 7  21069644.570                    21069651.449
 128249245.526 6  99934537.92143  24405023.078                    24405032.457
 106521191.215 8  83003666.431 8  20270298.727                    20270305.688
 121991834.939 6  95058618.533 6  23214276.797                    23214285.484
 120074488.562 7  93564643.17144  22849402.094                    22849410.199
 113438349.779 8  88393612.93245  21586605.141                    21586612.758
 113918264.578 8  88767578.396 7  21677935.609                    21677945.258
 129439184.795 7 100861796.44743  24631449.180                    24631458.313
 112261450.831 7  87476611.08346  21362639.117                    21362644.570
 11  8 19  2  0 30.0000000  0  9G12G26G05G29G10G30G25G04G02
 110764919.467 8  86310395.770 7  21077863.031                    21077869.648
 128154788.987 6  99860935.51242  24387049.586                    24387057.965
 106526017.891 8  83007427.491 8  20271217.133                    20271224.035
 121908623.348 6  94993778.402 6  23198442.203                    23198451.387
 120170441.394 7  93639411.61844  22867661.398                    22867669.301
 113433901.485 8  88390146.71345  21585758.813                    21585766.168
 113895736.563 8  88750024.084 7  21673649.344                    21673658.809
 129517242.000 7 100922620.18843  24646303.375                    24646312.035
 112296321.847 7  87503783.31246  21369275.156                    21369280.195
 11  8 19  2  1  0.0000000  0  9G12G26G05G29G10G30G25G04G02
 110808622.854 8  86344450.350 7  21086179.109                    21086186.215
 128060268.233 6  99787283.00942  24369062.031                    24369071.086
 106531409.245 8  83011628.551 8  20272242.867                    20272249.602
 121825423.765 7  94928947.614 6  23182609.820                    23182618.301
 120266663.535 7  93714389.87044  22885971.477                    22885980.156
 113430059.701 8  88387153.11745  21585027.398                    21585035.320
 113873782.001 8  88732916.630 7  21669471.070                    21669481.078
 129595235.218 7 100983394.17643  24661144.117                    24661153.289
 112331291.547 7  87531032.42746  21375929.516                    21375934.832
 11  8 19  2  1 30.0000000  0  9G12G26G05G29G10G30G25G04G02
 110852840.445 8  86378905.615 7  21094593.539                    21094600.809
 127965686.684 6  99713583.21842  24351062.789                    24351072.676
 106537364.555 8  83016269.064 8  20273376.047                    20273383.332
 121742238.177 7  94864127.740 6  23166780.242                    23166788.980
 120363152.273 6  93789575.86144  22904332.938                    22904341.168
 113426824.239 8  88384631.96245  21584411.695                    21584419.770
 113852401.771 8  88716256.703 7  21665402.477                    21665412.449
 129673164.631 7 101044118.40843  24675973.813                    24675982.855
 112366359.924 7  87558358.44446  21382602.805                    21382607.941
 11  8 19  2  2  0.0000000  0  8G12G26G05G29G10G30G25G02
 110897570.486 8  86413760.185 7  21103105.609                    21103112.543
 127871047.518 6  99639838.51243  24333054.828                    24333063.398
 106543883.005 8  83021348.384 8  20274616.555                    20274623.703
 121659067.786 7  94799319.701 6  23150953.664                    23150961.652
 120459904.776 6  93864967.40244  22922744.281                    22922752.395
 113424194.754 8  88382583.00245  21583911.375                    21583918.813
 113831596.371 8  88700044.710 7  21661443.281                    21661453.066
 112401526.386 8  87585760.87645  21389294.820                    21389300.105
 11  8 19  2  2 30.0000000  0  8G12G26G05G29G10G30G25G02
 110942810.642 8  86449012.261 7  21111714.672                    21111721.684
 127776353.477 6  99566051.05243  24315035.055                    24315043.980
 106550963.512 8  83026865.677 8  20275964.234                    20275970.723
 121575913.815 7  94734524.444 6  23135130.336                    23135137.922
 120556917.889 6  93940562.00744  22941205.445                    22941213.355
 113422170.761 7  88381005.86645  21583526.141                    21583533.879
 113811366.161 8  88684280.909 7  21657593.930                    21657603.699
 112436790.451 7  87613239.37346  21396005.633                    21396010.391
 11  8 19  2  3  0.0000000  0  8G12G26G05G29G10G30G25G02
 110988559.197 8  86484660.492 7  21120420.258                    21120427.043
 127681607.443 7  99492223.06943  24297005.125                    24297014.031
 106558604.980 8  83032820.072 8  20277418.180                    20277424.918
 121492777.672 7  94669743.069 6  23119309.422                    23119317.121
 120654188.481 6  94016357.26144  22959714.781                    22959723.449
 113420751.345 8  88379899.81845  21583256.313                    21583264.102
 113791711.280 8  88668965.421 7  21653853.422                    21653863.230
 112472151.177 7  87640793.19446  21402734.117                    21402739.410
 11  8 19  2  3 30.0000000  0  8G12G26G05G29G10G30G25G02
 111034813.637 8  86520702.914 7  21129222.117                    21129228.766
 127586812.641 7  99418357.05643  24278966.500                    24278974.781
 106566806.633 8  83039210.984 8  20278978.695                    20278985.965
 121409660.966 7  94604976.866 6  23103492.680                    23103501.125
 120751714.141 6  94092351.28444  22978273.750                    22978281.859
 113419936.349 7  88379264.76045  21583101.094                    21583108.773
 113772632.431 8  88654098.787 7  21650222.930                    21650232.406
 112507608.382 8  87668422.19146  21409481.578                    21409486.754
 11  8 19  2  4  0.0000000  0  8G12G26G05G29G10G30G25G02
 111081572.668 8  86557138.513 7  21138120.102                    21138126.961
 127491972.332 7  99344455.59944  24260919.414                    24260927.809
 106575567.981 8  83046038.026 8  20280645.797                    20280652.746
 121326565.362 7  94540227.092 6  23087679.883                    23087688.750
 120849491.896 6  94168541.70244  22996880.156                    22996888.457
 113419725.380 8  88379100.36745  21583061.078                    21583069.281
 113754130.123 8  88639681.427 7  21646702.156                    21646711.746
 112543161.655 7  87696126.04546  21416247.086                    21416252.281
 11  8 19  2  4 30.0000000  0  8G12G26G05G29G10G30G25G02
 111128834.743 8  86593966.102 7  21147113.750                    21147120.496
 127397089.788 7  99270521.24043  24242863.523                    24242872.145
 106584887.792 8  83053300.234 8  20282419.328                    20282426.570
 121243492.207 7  94475494.815 6  23071871.492                    23071880.273
 120947518.933 6  94244926.37544  23015534.063                    23015542.816
 113420117.905 8  88379406.24645  21583135.836                    21583143.434
 113736204.736 8  88625713.597 7  21643291.172                    21643300.797
 112578810.560 8  87723904.41146  21423031.039                    21423036.199
 11  8 19  2  5  0.0000000  0  8G12G26G05G29G10G30G25G02
 111176596.947 8  86631183.407 7  21156202.594                    21156209.684
 127302167.981 6  99196556.27543  24224800.125                    24224808.855
 106594764.661 8  83060996.520 8  20284299.117                    20284306.293
 121160442.745 7  94410781.008 6  23056068.016                    23056076.555
 121045792.021 6  94321502.78844  23034235.008                    23034243.027
 113421113.211 8  88380181.80845  21583325.102                    21583333.496
 113718856.459 8  88612195.491 7  21639989.445                    21639999.238
 112614554.617 8  87751756.92846  21429832.703                    21429837.859
 11  8 19  2  5 30.0000000  0  8G12G26G05G29G10G30G25G02
 111224858.370 8  86668789.704 7  21165386.508                    21165393.539
 127207210.412 6  99122563.47843  24206729.844                    24206739.203
 106605198.507 8  83069126.813 8  20286284.383                    20286291.555
 121077419.253 7  94346087.424 6  23040268.797                    23040277.313
 121144308.662 6  94398269.00044  23052982.750                    23052990.074
 113422711.182 8  88381426.98545  21583629.047                    21583637.066
 113702086.175 8  88599127.755 7  21636798.313                    21636808.379
 112650393.880 8  87779683.63246  21436652.688                    21436657.840
 11  8 19  2  6  0.0000000  0  8G12G26G05G29G10G30G25G02
 111273616.140 8  86706782.771 7  21174664.727                    21174671.938
 127112220.069 6  99048545.12743  24188653.422                    24188663.367
 106616187.946 8  83077690.035 8  20288375.695                    20288382.434
 120994423.052 7  94281415.102 6  23024475.320                    23024483.316
 121243065.717 6  94475222.53644  23071775.305                    23071783.012
 113424911.068 7  88383141.19145  21584047.484                    21584055.691
 113685894.014 8  88586510.492 7  21633717.078                    21633726.895
 112686327.455 8  87807683.84146  21443490.539                    21443495.699
 11  8 19  2  6 30.0000000  0  8G12G26G05G29G10G30G25G02
 111322868.612 8  86745161.315 7  21184037.250                    21184044.266
 127017200.260 6  98974503.80743  24170572.203                    24170581.055
 106627731.649 8  83086685.150 8  20290572.438                    20290579.590
 120911455.375 7  94216764.979 6  23008686.836                    23008695.121
 121342060.256 7  94552361.14644  23090613.031                    23090620.605
 113427712.073 8  88385323.79745  21584580.461                    21584588.379
 113670280.126 8  88574343.846 7  21630746.078                    21630755.746
 112722355.071 8  87835757.32446  21450346.242                    21450351.277
 11  8 19  2  7  0.0000000  0  8G12G26G05G29G10G30G25G02
 111372613.598 8  86783923.631 7  21193503.172                    21193509.852
 126922153.968 6  98900441.85743  24152484.930                    24152494.754
 106639828.767 7  83096111.490 8  20292874.453                    20292881.340
 120828518.088 7  94152138.562 6  22992904.398                    22992912.859
 121441289.644 7  94629682.70444  23109496.055                    23109503.605
 113431113.609 8  88387974.35745  21585227.734                    21585236.246
 113655244.851 7  88562628.068 7  21627884.523                    21627894.211
 112758476.326 8  87863903.76346  21457220.023                    21457225.449
 11  8 19  2  7 30.0000000  0  8G12G26G05G29G10G30G25G02
 111422849.423 8  86823068.426 7  21203062.680                    21203070.051
 126827084.721 6  98826362.02243  24134394.117                    24134403.484
 106652478.450 8  83105968.416 8  20295281.320                    20295288.379
 120745612.658 7  94087536.949 6  22977128.180                    22977136.453
 121540751.119 7  94707185.13944  23128423.195                    23128430.637
 113435115.281 7  88391092.55245  21585989.414                    21585997.285
 113640788.697 8  88551363.564 7  21625134.234                    21625143.574
 112794690.927 7  87892122.94845  21464111.461                    21464116.531
 11  8 19  2  8  0.0000000  0  8G12G26G05G29G10G30G25G02
 111473573.686 8  86862593.807 7  21212715.164                    21212722.430
 126731995.478 6  98752266.59343  24116298.477                    24116307.750
 106665679.129 8  83116254.678 8  20297793.500                    20297800.254
 120662740.561 7  94022961.291 6  22961358.156                    22961366.625
 121640441.574 6  94784865.99343  23147393.148                    23147401.320
 113439716.023 7  88394677.55045  21586865.117                    21586872.879
 113626911.534 8  88540550.200 7  21622492.836                    21622502.633
 112830998.303 8  87920414.42146  21471020.383                    21471025.930
 11  8 19  2  8 30.0000000  0  8G12G26G05G29G10G30G25G02
 111524784.383 8  86902498.247 7  21222460.383                    21222467.480
 126636889.513 6  98678158.12643  24098200.922                    24098210.066
 106679430.226 8  83126969.839 8  20300410.234                    20300417.129
 120579903.595 7  93958413.041 7  22945594.703                    22945603.234
 121740358.530 7  94862723.35544  23166406.813                    23166414.621
 113444915.330 8  88398728.96045  21587854.359                    21587862.121
 113613613.831 8  88530188.380 7  21619962.758                    21619972.406
 112867398.414 8  87948778.16246  21477947.141                    21477952.551
 11  8 19  2  9  0.0000000  0  8G12G26G05G29G10G30G25G02
 111576479.354 8  86942780.035 7  21232297.375                    21232304.590
 126541770.037 6  98604039.12143  24080100.898                    24080108.961
 106693729.986 8  83138112.526 8  20303131.523                    20303138.180
 120497102.929 7  93893893.054 6  22929838.320                    22929846.656
 121840498.718 7  94940754.65044  23185463.180                    23185470.418
 113450712.115 8  88403245.94645  21588957.320                    21588965.156
 113600895.405 8  88520277.931 7  21617542.352                    21617551.895
 112903890.426 8  87977213.51646  21484891.133                    21484896.637
 11  8 19  2  9 30.0000000  0  8G12G26G05G29G10G30G25G02
 111628656.187 8  86983437.295 7  21242226.352                    21242233.801
 126446640.049 6  98529911.89843  24061997.719                    24062005.738
 106708577.054 8  83149681.676 8  20305956.789                    20305963.680
 120414340.414 7  93829402.788 6  22914089.102                    22914097.512
 121940859.267 7  95018957.64844  23204560.516                    23204568.535
 113457105.653 8  88408227.94445  21590174.188                    21590181.566
 113588756.481 8  88510819.043 7  21615232.383                    21615242.328
 112940474.097 8  88005720.28446  21491853.016                    21491858.156
 11  8 19  2 10  0.0000000  0  8G12G26G05G29G10G30G25G02
 111681312.564 8  87024468.231 7  21252246.898                    21252253.965
 126351503.175 7  98455779.26243  24043893.570                    24043901.570
 106723970.454 8  83161676.560 8  20308885.898                    20308893.324
 120331617.508 7  93764943.395 6  22898347.258                    22898355.938
 122041437.271 7  95097330.06844  23223699.445                    23223708.203
 113464095.156 8  88413674.31045  21591503.953                    21591512.281
 113577197.239 8  88501811.858 7  21613032.922                    21613042.141
 112977148.973 8  88034298.11446  21498831.930                    21498837.039
 11  8 19  2 10 30.0000000  0  8G12G26G05G29G10G30G25G02
 111734447.337 8  87065871.944 7  21262357.719                    21262365.023
 126256362.734 6  98381643.89943  24025789.648                    24025797.852
 106739909.721 8  83174096.771 8  20311919.313                    20311925.867
 120248936.352 7  93700516.520 6  22882613.578                    22882622.016
 122142230.542 6  95175870.26044  23242880.625                    23242889.008
 113471680.201 8  88419584.75145  21592947.203                    21592955.035
 113566218.213 8  88493256.792 7  21610943.406                    21610953.070
 113013915.182 8  88062947.10246  21505827.703                    21505833.535
 11  8 19  2 11  0.0000000  0  8G12G26G05G29G10G30G25G02
 111788057.626 8  87107646.181 7  21272559.711                    21272566.625
 126161222.045 7  98307508.34643  24007684.711                    24007692.859
 106756393.101 8  83186940.982 8  20315055.625                    20315062.535
 120166298.376 7  93636123.305 7  22866888.609                    22866897.223
 122243235.597 7  95254575.45543  23262101.102                    23262109.031
 113479859.583 7  88425958.30246  21594504.219                    21594512.332
 113555819.016 8  88485153.539 7  21608964.531                    21608974.016
 113050772.029 7  88091666.71645  21512842.164                    21512846.934
 11  8 19  2 11 30.0000000  0  8G12G26G05G29G10G30G25G02
 111842141.485 7  87149789.442 7  21282851.719                    21282858.789
 126066084.057 7  98233374.90143  23989580.773                    23989588.926
 106773419.180 7  83200208.066 8  20318295.523                    20318302.438
 120083705.222 7  93571765.030 6  22851171.055                    22851179.844
 122344449.715 7  95333443.54244  23281361.391                    23281369.637
 113488632.350 7  88432794.23645  21596172.844                    21596181.219
 113545999.750 8  88477502.189 7  21607096.023                    21607105.672
 113087718.872 7  88120456.45645  21519872.641                    21519877.547
 11  8 19  2 12  0.0000000  0  8G12G26G05G29G10G30G25G02
 111896696.537 8  87192299.857 7  21293233.055                    21293240.184
 125970952.339 7  98159246.36343  23971477.961                    23971485.734
 106790986.912 8  83213897.209 8  20321638.477                    20321645.148
 120001158.632 7  93507443.026 6  22835463.422                    22835471.742
 122445870.244 7  95412472.52744  23300661.844                    23300669.285
 113497997.927 7  88440092.09045  21597955.680                    21597963.355
 113536760.729 8  88470302.963 7  21605337.836                    21605347.090
 113124756.189 7  88149316.70046  21526920.813                    21526925.703
 11  8 19  2 12 30.0000000  0  8G12G26G05G29G10G30G25G02
 111951720.624 8  87235175.755 7  21303703.844                    21303710.898
 125875830.338 6  98085125.38343  23953375.953                    23953384.645
 106809095.115 8  83228007.504 8  20325084.430                    20325091.262
 119918660.062 7  93443158.455 7  22819764.555                    22819772.305
 122547494.441 7  95491660.20744  23319999.711                    23320007.977
 113507955.167 7  88447850.99445  21599850.570                    21599858.332
 113528101.790 8  88463555.748 7  21603690.164                    21603699.711
 113161883.570 7  88178247.12746  21533985.844                    21533990.777
 11  8 19  2 13  0.0000000  0  8G12G26G05G29G10G30G25G02
 112007211.453 8  87278415.361 7  21314263.477                    21314270.387
 125780721.115 6  98011014.38843  23935277.422                    23935285.941
 106827742.403 8  83242537.864 8  20328633.047                    20328640.367
 119836211.420 7  93378912.785 6  22804075.078                    22804082.277
 122649319.589 7  95571004.47343  23339377.133                    23339384.074
 113518503.060 8  88456070.15045  21601857.383                    21601865.137
 113520022.959 8  88457260.566 7  21602152.750                    21602162.090
 113199100.429 7  88207247.28045  21541068.148                    21541072.625
 11  8 19  2 13 30.0000000  0  8G12G26G05G29G10G30G25G02
 112063167.046 8  87322017.116 7  21324911.352                    21324918.418
 125685628.246 6  97936916.12643  23917181.617                    23917190.160
 106846927.541 8  83257487.338 8  20332284.180                    20332290.672
 119753814.351 7  93314707.317 6  22788395.195                    22788403.258
 122751342.826 7  95650503.09743  23358791.031                    23358798.656
 113529640.820 8  88464748.92545  21603977.078                    21603984.465
 113512524.214 8  88451417.415 7  21600725.688                    21600735.121
 113236406.680 8  88236317.08546  21548167.250                    21548172.367
 11  8 19  2 14  0.0000000  0  8G12G26G05G29G10G30G25G02
 112119584.529 7  87365978.777 7  21335646.992                    21335653.980
 125590554.866 6  97862833.06143  23899089.031                    23899098.277
 106866649.036 8  83272854.737 8  20336036.758                    20336043.543
 119671470.859 7  93250543.609 6  22772725.359                    22772733.523
 122853561.022 7  95730153.63743  23378242.602                    23378250.254
 113541367.213 8  88473886.39145  21606208.461                    21606216.293
 113505605.390 8  88446026.157 7  21599409.141                    21599419.395
 113273801.587 8  88265455.98845  21555283.188                    21555288.117
 11  8 19  2 14 30.0000000  0  8G12G26G05G29G10G30G25G02
 112176461.925 8  87410298.817 7  21346470.438                    21346477.621
 125495504.434 6  97788767.86143  23881002.023                    23881010.789
 106886905.450 8  83288638.966 8  20339891.500                    20339898.164
 119589182.481 7  93186422.856 6  22757066.758                    22757075.211
 122955971.433 7  95809953.97543  23397730.156                    23397737.633
 113553681.200 8  88483481.72145  21608551.195                    21608559.348
 113499266.347 8  88441086.665 7  21598202.930                    21598212.695
 113311285.037 8  88294663.88845  21562415.789                    21562421.465
 11  8 19  2 15  0.0000000  0  8G12G26G05G29G10G30G25G02
 112233797.106 7  87454975.570 7  21357381.398                    21357388.090
 125400480.268 6  97714723.13443  23862919.367                    23862928.922
 106907695.517 8  83304839.027 8  20343847.578                    20343854.750
 119506950.720 7  93122346.246 7  22741418.320                    22741426.688
 123058571.712 7  95889902.26243  23417254.773                    23417262.469
 113566582.008 8  88493534.32245  21611006.125                    21611014.691
 113493507.158 8  88436599.015 7  21597106.820                    21597117.148
 113348857.246 8  88323940.93745  21569565.633                    21569571.082
 11  8 19  2 15 30.0000000  0  8G12G26G05G29G10G30G25G02
 112291587.420 8  87500006.969 7  21368378.266                    21368385.551
 125305485.771 6  97640701.52044  23844842.242                    23844852.063
 106929017.742 8  83321453.757 8  20347904.813                    20347911.816
 119424777.403 7  93058315.176 6  22725781.289                    22725788.898
 123161358.718 7  95969996.02543  23436814.305                    23436822.070
 113580068.139 8  88504042.99345  21613572.844                    21613580.594
 113488327.417 8  88432562.863 7  21596121.125                    21596130.875
 113386517.469 8  88353286.56546  21576732.359                    21576737.133
 11  8 19  2 16  0.0000000  0  8G12G26G05G29G10G30G25G02
 112349830.540 7  87545391.195 7  21379461.523                    21379469.164
 125210524.292 6  97566705.61944  23826772.125                    23826780.652
 106950870.602 8  83338481.961 8  20352063.602                    20352070.270
 119342664.007 7  92994330.801 6  22710155.266                    22710163.508
 123264329.843 6  96050233.28643  23456408.883                    23456417.219
 113594138.440 8  88515006.88645  21616250.352                    21616258.000
 113483726.961 8  88428978.105 7  21595245.773                    21595255.258
 113424265.763 8  88382700.83546  21583915.469                    21583920.445
 11  8 19  2 16 30.0000000  0  8G12G26G05G29G10G30G25G02
 112408524.155 8  87591126.469 7  21390630.578                    21390637.824
 125115599.007 6  97492737.91043  23808708.523                    23808716.848
 106973252.508 8  83355922.412 8  20356322.867                    20356329.391
 119260612.343 7  92930394.521 6  22694541.078                    22694549.645
 123367482.258 6  96130611.79143  23476038.352                    23476046.539
 113608791.759 8  88526425.06145  21619038.688                    21619046.520
 113479705.463 8  88425844.505 7  21594480.570                    21594490.098
 113462101.424 8  88412183.20445  21591115.234                    21591120.332
 11  8 19  2 17  0.0000000  0  8G12G26G05G29G10G30G25G02
 112467665.834 8  87637210.881 7  21401885.289                    21401892.098
 125020713.485 6  97418801.21543  23790652.656                    23790661.082
 106996162.252 8  83373774.177 8  20360682.563                    20360689.082
 119178624.502 7  92866507.992 6  22678939.273                    22678947.777
 123470813.139 6  96211129.32143  23495702.477                    23495710.168
 113624027.054 8  88538296.73645  21621938.305                    21621945.891
 113476262.940 8  88423162.033 7  21593825.055                    21593834.973
 113500024.611 8  88441733.77445  21598331.789                    21598337.156
 11  8 19  2 17 30.0000000  0  8G12G26G05G29G10G30G25G02
 112527253.219 7  87683642.596 7  21413224.055                    21413230.883
 124925871.167 6  97344898.18343  23772604.211                    23772613.262
 107019598.368 8  83392036.104 8  20365141.797                    20365148.746
 119096702.000 7  92802672.398 7  22663349.789                    22663358.730
 123574319.838 6  96291783.90143  23515398.031                    23515406.258
 113639843.048 8  88550620.89545  21624947.648                    21624955.441
 113473398.962 8  88420930.389 7  21593280.305                    21593289.898
 113538034.450 8  88471351.85445  21605564.367                    21605569.535
 11  8 19  2 18  0.0000000  0  8G12G26G05G29G10G30G25G02
 112587283.848 8  87730419.702 7  21424647.383                    21424654.891
 124831075.273 6  97271031.30743  23754565.883                    23754573.855
 107043559.203 8  83410706.890 8  20369701.641                    20369708.391
 119014846.885 7  92738889.305 7  22647773.242                    22647782.027
 123677999.559 6  96372573.23543  23535127.883                    23535135.922
 113656238.532 8  88563396.59445  21628067.875                    21628075.105
 113471113.288 8  88419149.341 7  21592845.313                    21592855.090
 113576131.378 8  88501037.80845  21612814.344                    21612819.355
 11  8 19  2 18 30.0000000  0  8G12G26G05G29G10G30G25G02
 112647755.536 7  87777540.492 7  21436154.922                    21436161.664
 124736329.582 6  97197203.55343  23736535.805                    23736543.324
 107068043.708 8  83429785.751 8  20374360.273                    20374367.453
 118933061.045 7  92675160.181 7  22632210.563                    22632218.211
 123781849.504 7  96453495.26543  23554890.266                    23554897.977
 113673212.386 8  88576622.97845  21631297.734                    21631305.422
 113469405.803 8  88417818.846 7  21592520.281                    21592530.063
 113614315.220 8  88530791.47446  21620080.477                    21620085.797
 11  8 19  2 19  0.0000000  0  9G12G26G05G29G10G30G25G15G02
 112708666.108 8  87825003.272 7  21447746.203                    21447752.781
 124641637.283 7  97123417.36543  23718516.227                    23718524.473
 107093049.960 8  83449271.155 8  20379119.234                    20379126.152
 118851345.980 7  92611486.203 7  22616660.328                    22616668.691
 123885867.039 7  96534547.87943  23574684.125                    23574691.941
 113690763.169 8  88590298.90545  21634637.844                    21634644.988
 113468275.945 8  88416938.437 7  21592305.500                    21592315.352
 129408862.38615 100838146.44015  24625693.914                    24625703.445
 113652585.582 8  88560612.54146  21627362.898                    21627368.172
 11  8 19  2 19 30.0000000  0  9G12G26G05G29G10G30G25G15G02
 112770012.060 7  87872805.325 7  21459419.656                    21459426.340
 124547001.561 7  97049675.28643  23700507.180                    23700515.691
 107118575.822 8  83469161.457 8  20383977.008                    20383983.770
 118769703.366 7  92547868.699 7  22601124.328                    22601132.430
 123990048.883 7  96615728.53943  23594509.336                    23594516.961
 113708889.175 8  88604423.05545  21638086.641                    21638094.492
 113467723.028 8  88416507.584 7  21592200.227                    21592210.152
 129315839.526 5 100765661.262 5  24607992.094                    24608002.719
 113690941.840 8  88590500.54145  21634662.375                    21634667.215
 11  8 19  2 20  0.0000000  0  9G12G26G05G29G10G30G25G15G02
 112831791.273 7  87920944.969 7  21471175.820                    21471182.813
 124452426.110 7  96975980.18844  23682509.992                    23682518.625
 107144620.305 8  83489455.867 8  20388932.930                    20388939.449
 118688135.104 7  92484309.106 7  22585602.367                    22585610.070
 124094392.820 7  96697035.50044  23614365.273                    23614373.223
 113727589.492 8  88618994.73345  21641645.273                    21641652.859
 113467746.975 8  88416526.241 7  21592204.648                    21592214.496
 129222685.983 6 100693074.250 5  24590265.555                    24590276.188
 113729383.942 8  88620455.44245  21641977.523                    21641982.969
 11  8 19  2 20 30.0000000  0  9G12G26G05G29G10G30G25G15G02
 112894001.475 7  87969420.462 7  21483013.914                    21483021.176
 124357914.631 7  96902334.91143  23664525.984                    23664533.969
 107171181.978 8  83510153.289 8  20393987.484                    20393993.770
 118606643.007 7  92420808.856 7  22570094.508                    22570102.945
 124198896.130 7  96778466.62843  23634250.352                    23634259.316
 113746862.766 8  88634012.85345  21645312.938                    21645320.684
 113468347.468 8  88416994.142 7  21592319.250                    21592328.563
 129129404.429 6 100620387.493 5  24572514.055                    24572524.176
 113767912.158 8  88650477.44446  21649309.336                    21649314.145
 11  8 19  2 21  0.0000000  0  9G12G26G05G29G10G30G25G15G02
 112956640.327 8  88018229.969 7  21494933.523                    21494940.660
 124263470.095 6  96828741.80543  23646552.891                    23646561.445
 107198258.828 8  83531252.153 8  20399139.828                    20399146.277
 118525229.008 7  92357369.448 7  22554602.586                    22554609.625
 124303556.102 7  96860019.85043  23654167.227                    23654175.313
 113766707.554 8  88649476.31645  21649088.945                    21649096.574
 113469523.939 8  88417910.873 7  21592542.945                    21592552.973
 129035997.093 6 100547602.710 6  24554739.742                    24554749.516
 113806526.003 8  88680566.15145  21656657.250                    21656662.262
 11  8 19  2 21 30.0000000  0  9G12G26G05G29G10G30G25G15G02
 113019705.005 8  88067371.271 7  21506934.375                    21506941.891
 124169096.298 6  96755203.82143  23628594.016                    23628602.305
 107225849.399 8  83552751.303 8  20404390.203                    20404396.867
 118443894.912 7  92293992.290 7  22539125.445                    22539132.590
 124408370.188 7  96941693.16743  23674113.164                    23674120.781
 113787122.373 8  88665383.95545  21652974.016                    21652981.621
 113471275.946 8  88419276.049 7  21592875.992                    21592886.082
 128942466.445 6 100474721.831 6  24536940.594                    24536950.500
 113845225.482 8  88710721.59445  21664021.344                    21664026.344
 11  8 19  2 22  0.0000000  0  9G12G26G05G29G10G30G25G15G02
 113083193.311 8  88116842.682 7  21519015.641                    21519023.043
 124074796.652 6  96681723.64143  23610649.523                    23610658.387
 107253951.992 8  83574649.450 8  20409737.867                    20409744.879
 118362642.749 7  92230678.988 7  22523662.703                    22523670.914
 124513335.404 7  97023484.23843  23694087.422                    23694095.055
 113808105.780 8  88681734.64845  21656967.281                    21656974.918
 113473602.962 8  88421089.315 7  21593319.016                    21593328.977
 128848815.003 6 100401746.834 6  24519120.313                    24519128.926
 113884010.253 8  88740943.49046  21671402.047                    21671407.137
 11  8 19  2 22 30.0000000  0  9G12G26G05G29G10G30G25G15G02
 113147102.820 8  88166642.298 7  21531177.320                    21531183.727
 123980574.767 6  96608304.03444  23592719.711                    23592728.258
 107282565.344 8  83596945.578 8  20415182.820                    20415189.383
 118281474.587 7  92167431.118 7  22508216.719                    22508225.004
 124618449.174 7  97105391.05343  23714089.484                    23714096.977
 113829656.710 8  88698527.55345  21661067.867                    21661075.809
 113476504.762 8  88423350.435 7  21593871.070                    21593881.293
 128755045.479 6 100328679.798 6  24501276.125                    24501285.184
 113922880.413 8  88771231.91745  21678798.688                    21678803.598
 11  8 19  2 23  0.0000000  0  9G12G26G05G29G10G30G25G15G02
 113211430.654 8  88216767.897 7  21543418.781                    21543425.746
 123886433.978 6  96534947.62043  23574805.492                    23574813.641
 107311687.487 8  83619638.163 8  20420724.453                    20420731.488
 118200391.903 7  92104249.845 7  22492787.750                    22492795.781
 124723708.783 6  97187411.53243  23734119.930                    23734127.461
 113851773.235 8  88715761.19745  21665276.680                    21665284.273
 113479980.477 8  88426058.774 7  21594532.867                    21594543.043
 128661160.106 6 100255522.489 6  24483411.109                    24483419.145
 113961835.442 8  88801586.49446  21686211.914                    21686216.730
 11  8 19  2 23 30.0000000  0  9G12G26G05G29G10G30G25G15G02
 113276173.923 8  88267217.181 7  21555738.680                    21555745.582
 123792377.729 6  96461657.06044  23556906.914                    23556916.039
 107341316.263 8  83642725.540 8  20426362.578                    20426369.371
 118119396.449 7  92041136.535 6  22477374.695                    22477382.461
 124829111.352 6  97269543.36043  23754177.492                    23754185.008
 113874453.745 8  88733434.30745  21669592.742                    21669600.418
 113484029.354 8  88429213.729 7  21595303.148                    21595312.957
 128567161.461 6 100182276.923 6  24465523.008                    24465532.227
 114000875.359 8  88832007.22245  21693640.406                    21693645.230
 11  8 19  2 24  0.0000000  0  9G12G26G05G29G10G30G25G15G02
 113341330.384 8  88317988.447 7  21568138.141                    21568144.898
 123698409.462 6  96388435.09744  23539026.156                    23539033.813
 107371450.033 8  83666206.404 8  20432096.898                    20432103.613
 118038490.123 7  91978092.688 6  22461978.516                    22461986.098
 124934654.146 6  97351784.53943  23774261.516                    23774268.988
 113897696.837 8  88751545.77645  21674015.688                    21674023.371
 113488650.937 8  88432814.950 7  21596182.703                    21596192.715
 128473052.194 6 100108945.154 6  24447614.281                    24447623.891
 114039999.922 8  88862493.90745  21701085.508                    21701090.801
 11  8 19  2 24 30.0000000  0  9G12G26G05G29G10G30G25G15G02
 113406897.843 8  88369079.968 7  21580614.578                    21580622.227
 123604533.069 7  96315284.71744  23521161.359                    23521169.871
 107402087.746 8  83690079.956 8  20437927.055                    20437933.707
 117957675.340 7  91915120.146 6  22446600.133                    22446607.266
 125040334.791 6  97434133.11143  23794371.609                    23794379.953
 113921501.163 8  88770094.59645  21678545.641                    21678553.719
 113493844.820 8  88436862.126 7  21597171.172                    21597181.398
 128378834.918 6 100035529.226 6  24429685.523                    24429695.281
 114079209.317 8  88893046.70046  21708547.109                    21708552.109
 11  8 19  2 25  0.0000000  0  9G12G26G05G29G10G30G25G15G02
 113472873.453 8  88420489.530 7  21593169.563                    21593176.945
 123510751.763 6  96242208.41944  23503315.539                    23503323.930
 107433227.608 8  83714344.789 8  20443852.578                    20443859.289
 117876953.775 7  91852220.248 7  22431238.672                    22431247.195
 125146150.974 6  97516587.26243  23814507.664                    23814515.926
 113945865.155 8  88789079.50345  21683181.906                    21683189.414
 113499610.387 8  88441354.771 7  21598268.063                    21598278.176
 128284512.200 6  99962031.147 6  24411736.633                    24411745.617
 114118503.406 7  88923665.48245  21716024.336                    21716029.090
 11  8 19  2 25 30.0000000  0  9G12G26G05G29G10G30G25G15G02
 113539254.104 7  88472214.707 7  21605801.594                    21605808.363
 123417069.109 7  96169209.00644  23485488.266                    23485496.727
 107464867.186 8  83738999.016 8  20449873.484                    20449879.953
 117796327.255 7  91789394.420 6  22415896.695                    22415904.184
 125252099.461 6  97599144.51943  23834669.047                    23834677.215
 113970786.872 8  88808499.02845  21687923.969                    21687932.398
 113505946.574 8  88446292.073 7  21599473.789                    21599483.699
 128190086.315 6  99888452.684 5  24393766.805                    24393776.125
 114157881.737 7  88954349.90745  21723518.047                    21723523.211
 11  8 19  2 26  0.0000000  0  9G12G26G05G29G10G30G25G15G02
 113606037.129 7  88524253.416 7  21618509.781                    21618517.188
 123323488.350 7  96096288.97744  23467680.289                    23467688.395
 107497004.744 8  83764041.276 8  20455989.359                    20455995.512
 117715797.762 7  91726644.199 7  22400572.180                    22400579.844
 125358177.559 6  97681802.76143  23854855.086                    23854863.109
 113996264.515 8  88828351.71045  21692772.859                    21692780.598
 113512852.659 8  88451673.429 7  21600788.133                    21600798.125
 128095559.986 6  99814795.946 5  24375779.258                    24375788.074
 114197344.101 7  88985099.82345  21731027.063                    21731032.004
 11  8 19  2 26 30.0000000  0  9G12G26G05G29G10G30G25G15G02
 113673220.313 7  88576603.941 7  21631294.242                    21631300.965
 123230013.432 7  96023451.41744  23449892.688                    23449900.645
 107529638.926 8  83789470.522 8  20462199.359                    20462205.848
 117635367.107 7  91663970.990 7  22385266.758                    22385274.496
 125464382.946 7  97764560.22143  23875065.281                    23875073.047
 114022296.828 8  88848636.64345  21697725.797                    21697733.980
 113520328.147 8  88457498.490 7  21602210.586                    21602220.148
 128000936.004 6  99741063.116 5  24357773.313                    24357781.496
 114236890.640 7  89015915.33545  21738552.594                    21738557.934
 11  8 19  2 27  0.0000000  0  9G12G26G05G29G10G30G25G15G02
 113740801.006 7  88629264.220 7  21644154.531                    21644161.629
 123136647.899 7  95950699.11344  23432125.766                    23432133.762
 107562767.883 8  83815285.296 8  20468503.563                    20468510.227
 117555037.382 7  91601376.437 7  22369980.430                    22369988.121
 125570712.918 7  97847414.76643  23895299.016                    23895307.418
 114048882.076 8  88869352.41745  21702785.500                    21702793.750
 113528372.298 8  88463766.664 7  21603741.250                    21603751.000
 127906216.760 6  99667256.040 5  24339748.844                    24339757.051
 114276521.393 7  89046796.46745  21746094.375                    21746098.918
 11  8 19  2 27 30.0000000  0  9G12G26G05G29G10G30G25G15G02
 113808776.340 7  88682232.011 7  21657089.578                    21657096.277
 123043395.094 7  95878034.63544  23414380.555                    23414388.566
 107596389.131 8  83841483.686 8  20474901.656                    20474908.254
 117474810.565 7  91538862.089 7  22354713.586                    22354721.313
 125677164.421 7  97930364.00643  23915556.539                    23915564.340
 114076018.267 8  88890497.50045  21707949.680                    21707956.805
 113536984.041 8  88470477.120 7  21605380.492                    21605390.355
 127811404.639 6  99593376.573 6  24321706.570                    24321715.156
 114316235.680 7  89077742.67745  21753651.320                    21753656.332
 11  8 19  2 28  0.0000000  0  9G12G26G05G29G10G30G25G15G02
 113877144.095 7  88735505.582 7  21670099.977                    21670106.617
 122950258.450 7  95805460.66644  23396656.797                    23396664.863
 107630501.529 8  83868064.787 8  20481392.711                    20481399.191
 117394688.520 7  91476429.396 7  22339466.859                    22339474.391
 125783735.493 6  98013406.39043  23935835.977                    23935844.199
 114103703.872 8  88912070.70445  21713217.766                    21713225.293
 113546162.778 8  88477629.383 7  21607126.594                    21607136.617
 127716502.591 6  99519427.093 6  24303646.641                    24303656.098
 114356034.044 8  89108754.40045  21761224.750                    21761229.734
 11  8 19  2 28 30.0000000  0  9G12G26G05G29G10G30G25G15G02
 113945901.081 8  88789082.443 7  21683183.844                    21683190.375
 122857241.793 7  95732980.20244  23378956.859                    23378964.324
 107665102.899 8  83895026.914 8  20487977.375                    20487984.020
 117314673.228 7  91414079.881 7  22324240.570                    22324248.352
 125890423.174 7  98096539.65543  23956138.094                    23956146.363
 114131937.087 7  88934070.62145  21718590.391                    21718597.914
 113555907.614 8  88485222.784 7  21608981.469                    21608991.090
 127621512.904 6  99445409.304 6  24285570.180                    24285579.930
 114395916.225 8  89139831.44345  21768813.875                    21768818.691
 11  8 19  2 29  0.0000000  0  9G12G26G05G29G10G30G25G15G02
 114015044.456 8  88842960.388 7  21696340.836                    21696347.926
 122764348.623 7  95660595.94044  23361279.117                    23361287.535
 107700191.339 8  83922368.576 8  20494654.055                    20494661.117
 117234766.626 7  91351815.061 7  22309034.906                    22309042.117
 125997224.859 7  98179761.74743  23976462.414                    23976470.043
 114160716.162 7  88956495.86645  21724067.039                    21724074.445
 113566217.714 8  88493256.641 7  21610943.039                    21610952.730
 127526438.639 6  99371325.593 6  24267477.672                    24267487.512
 114435882.315 8  89170973.87045  21776419.414                    21776424.168
 11  8 19  2 29 30.0000000  0  9G12G26G05G29G10G30G25G15G02
 114084571.926 7  88897137.624 7  21709572.094                    21709578.848
 122671582.334 7  95588310.55544  23343626.977                    23343634.527
 107735764.985 8  83950088.310 8  20501424.008                    20501430.090
 117154970.696 7  91289636.494 7  22293849.891                    22293857.281
 126104138.068 6  98263070.77143  23996806.617                    23996814.867
 114190039.219 8  88979345.03145  21729646.539                    21729654.348
 113577092.100 8  88501730.208 7  21613012.461                    21613022.344
 127431282.338 6  99297177.954 6  24249370.781                    24249379.613
 114475932.265 7  89202181.63745  21784040.508                    21784045.375
 11  8 19  2 30  0.0000000  0  9G12G26G05G29G10G30G25G15G02
 114154480.223 7  88951611.617 7  21722874.813                    21722881.914
 122578946.740 7  95516127.02144  23325998.930                    23326006.383
 107771821.752 8  83978184.519 8  20508284.852                    20508291.754
 117075287.461 7  91227545.759 7  22278686.820                    22278694.438
 126211159.997 6  98346464.50843  24017172.227                    24017180.695
 114219904.395 8  89002616.59945  21735330.016                    21735338.070
 113588529.790 8  88510642.703 7  21615189.047                    21615198.785
 127336046.567 6  99222968.411 6  24231248.063                    24231257.109
 114516065.536 7  89233454.32645  21791677.727                    21791682.313
 11  8 19  2 30 30.0000000  0  9G12G26G05G29G10G30G25G15G02
 114224767.197 7  89006380.663 7  21736250.250                    21736257.613
 122486445.381 6  95444048.08144  23308396.023                    23308403.922
 107808360.300 8  84006656.131 8  20515238.359                    20515244.547
 116995719.105 7  91165544.525 7  22263545.188                    22263553.070
 126318288.568 7  98429941.30043  24037557.766                    24037566.965
 114250310.112 7  89026309.37645  21741115.859                    21741123.781
 113600530.161 8  88519993.654 7  21617472.430                    21617482.203
 127240733.988 6  99148698.996 6  24213111.055                    24213119.684
 114556282.379 7  89264792.13645  21799330.969                    21799335.926
 11  8 19  2 31  0.0000000  0  9G12G26G05G29G10G30G25G15G02
 114295429.974 7  89061442.553 7  21749697.055                    21749704.223
 122394081.870 6  95372076.54543  23290820.016                    23290827.992
 107845378.323 8  84035501.372 8  20522282.266                    20522288.961
 116916267.467 7  91103634.276 7  22248426.102                    22248434.082
 126425520.783 6  98513498.91043  24057964.188                    24057971.531
 114281254.337 8  89050421.76045  21747004.281                    21747012.121
 113613092.038 8  88529782.146 7  21619862.891                    21619872.840
 127145347.314 6  99074371.833 6  24194958.836                    24194967.699
 114596582.730 7  89296195.00845  21806999.516                    21807004.742
 11  8 19  2 31 30.0000000  0  9G12G26G05G29G10G30G25G15G02
 114366466.087 7  89116795.358 7  21763214.680                    21763221.770
 122301859.991 6  95300215.38043  23273270.383                    23273278.395
 107882874.312 8  84064719.044 8  20529417.734                    20529424.531
 116836934.831 7  91041816.749 7  22233329.078                    22233337.137
 126532854.307 6  98597135.41243  24078389.172                    24078397.227
 114312735.328 7  89074952.41945  21752994.828                    21753002.969
 113626214.679 8  88540007.586 7  21622360.438                    21622370.004
 127049889.390 6  98999989.145 6  24176794.328                    24176802.617
 114636967.030 7  89327663.30745  21814684.438                    21814689.449
 11  8 19  2 32  0.0000000  0  9G12G26G05G29G10G30G25G15G02
 114437872.155 7  89172436.436 7  21776802.891                    21776810.023
 122209782.962 6  95228467.09244  23255748.750                    23255757.570
 107920845.471 8  84094306.986 8  20536643.133                    20536649.715
 116757722.681 7  90980093.108 7  22218255.961                    22218263.406
 126640286.450 6  98680848.76343  24098832.609                    24098840.938
 114344750.817 7  89099899.55545  21759087.383                    21759095.023
 113639896.611 8  88550668.844 7  21624963.711                    21624973.453
 126954362.347 6  98925552.589 6  24158614.961                    24158624.082
 114677434.674 7  89359196.54345  21822385.023                    21822390.551
 11  8 19  2 32 30.0000000  0  9G12G26G05G29G10G30G25G15G02
 114509645.102 7  89228363.408 7  21790460.813                    21790468.203
 122117854.079 6  95156834.23844  23238255.125                    23238263.305
 107959289.801 8  84124263.618 8  20543959.000                    20543965.277
 116678633.336 7  90918465.122 7  22203205.758                    22203213.512
 126747814.701 6  98764637.00743  24119294.031                    24119302.773
 114377298.600 7  89125261.47245  21765280.594                    21765288.586
 113654136.691 8  88561765.029 7  21627673.023                    21627683.297
 126858768.987 7  98851064.329 6  24140424.883                    24140433.125
 114717985.258 7  89390794.41945  21830101.734                    21830106.398
 11  8 19  2 33  0.0000000  0  9G12G26G05G29G10G30G25G15G02
 114581782.819 7  89284574.601 7  21804188.156                    21804195.332
 122026077.581 7  95085320.12044  23220790.758                    23220798.965
 107998205.980 7  84154587.925 8  20551364.164                    20551371.102
 116599668.846 7  90856934.441 7  22188179.172                    22188186.523
 126855436.734 6  98848498.35342  24139774.320                    24139781.598
 114410377.247 8  89151037.04145  21771575.727                    21771583.453
 113668934.215 8  88573295.578 7  21630489.375                    21630499.098
 126763112.150 7  98776526.619 6  24122222.211                    24122230.195
 114758619.279 7  89422457.30745  21837834.336                    21837839.215
 11  8 19  2 33 30.0000000  0  9G12G26G05G29G10G30G25G15G02
 114654282.353 7  89341067.726 7  21817984.570                    21817991.391
 121934457.150 7  95013927.61644  23203356.180                    23203363.887
 108037592.068 8  84185278.400 8  20558859.531                    20558865.844
 116520831.531 7  90795502.844 7  22173176.508                    22173184.223
 126963149.819 6  98932430.65442  24160271.055                    24160279.016
 114443984.857 7  89177224.80145  21777970.445                    21777978.781
 113684288.232 8  88585259.762 7  21633411.234                    21633420.582
 126667394.719 7  98701941.691 6  24104008.156                    24104015.578
 114799336.873 7  89454185.30145  21845582.539                    21845587.313
 11  8 19  2 34  0.0000000  0  9G12G26G05G29G10G30G25G15G02
 114727141.072 7  89397840.739 7  21831848.703                    21831856.020
 121842996.026 7  94942659.23644  23185951.570                    23185959.043
 108077445.568 8  84216333.094 8  20566443.047                    20566449.602
 116442123.062 7  90734171.658 7  22158199.000                    22158206.238
 127070951.338 6  99016431.84943  24180785.094                    24180793.258
 114478119.191 8  89203822.97345  21784466.875                    21784474.102
 113700197.358 8  88597656.506 7  21636438.633                    21636448.305
 126571619.331 7  98627311.578 6  24085782.039                    24085789.930
 114840137.995 7  89485978.37845  21853346.609                    21853351.438
 11  8 19  2 34 30.0000000  0  9G12G26G05G29G10G30G25G15G02
 114800356.071 7  89454891.383 7  21845781.195                    21845788.223
 121751697.959 7  94871517.92644  23168578.180                    23168585.941
 108117764.798 8  84247750.693 8  20574115.398                    20574122.398
 116363545.780 7  90672942.677 7  22143245.813                    22143253.125
 127178839.036 6  99100500.20443  24201315.836                    24201323.535
 114512778.305 8  89230830.09045  21791061.734                    21791069.590
 113716660.567 8  88610484.982 7  21639571.531                    21639581.012
 126475788.683 7  98552638.420 6  24067546.031                    24067554.012
 114881022.790 8  89517836.67445  21861126.750                    21861131.934
 11  8 19  2 35  0.0000000  0  9G12G26G05G29G10G30G25G15G02
 114873923.969 7  89512217.017 7  21859780.633                    21859787.523
 121660566.235 7  94800506.23444  23151236.297                    23151244.426
 108158547.037 8  84279529.080 8  20581876.016                    20581882.930
 116285101.163 7  90611817.058 7  22128318.633                    22128325.770
 127286810.272 6  99184633.63043  24221861.211                    24221869.852
 114547959.807 8  89258244.23745  21797756.227                    21797764.895
 113733676.409 8  88623744.092 7  21642809.516                    21642819.531
 126379905.371 7  98477924.241 6  24049300.211                    24049308.078
 114921990.698 8  89549759.73145  21868922.766                    21868927.773
 11  8 19  2 35 30.0000000  0  9G12G26G05G29G10G30G25G15G02
 114947842.206 7  89569815.632 7  21873847.039                    21873853.926
 121569604.673 7  94729627.14544  23133926.578                    23133934.902
 108199790.519 8  84311666.865 8  20589724.773                    20589731.164
 116206791.766 7  90550796.809 7  22113416.672                    22113423.934
 127394862.527 6  99268830.16843  24242422.820                    24242431.434
 114583661.756 8  89286063.92745  21804550.563                    21804558.203
 113751243.674 8  88637432.875 7  21646151.813                    21646161.613
 126283972.118 6  98403171.136 6  24031044.836                    24031052.746
 114963042.090 8  89581747.85545  21876734.320                    21876739.387
 11  8 19  2 36  0.0000000  0  9G12G26G05G29G10G30G25G15G02
 115022108.310 7  89627685.321 7  21887979.695                    21887986.555
 121478817.061 7  94658883.59444  23116650.703                    23116658.629
 108241493.282 8  84344162.533 8  20597660.523                    20597666.762
 116128619.601 7  90489883.465 7  22098541.016                    22098547.984
 127502993.307 6  99353087.87843  24262999.930                    24263008.789
 114619882.329 8  89314287.75345  21811443.172                    21811451.098
 113769361.431 8  88651550.620 7  21649600.188                    21649610.117
 126187991.840 6  98328381.417 6  24012779.078                    24012788.391
 115004176.974 7  89613801.01945  21884562.000                    21884567.094
 11  8 19  2 36 30.0000000  0  9G12G26G05G29G10G30G25G15G02
 115096719.664 7  89685824.030 7  21902177.203                    21902184.355
 121388207.327 7  94588278.64944  23099407.961                    23099415.977
 108283653.874 8  84377014.953 8  20605683.133                    20605689.871
 116050587.061 7  90429078.914 7  22083691.820                    22083699.156
 127611200.613 6  99437405.27043  24283591.383                    24283599.215
 114656619.613 8  89342914.19545  21818433.711                    21818441.922
 113788028.763 8  88666096.596 7  21653152.648                    21653162.301
 126091967.605 6  98253557.454 6  23994505.516                    23994515.301
 115045395.628 7  89645919.44145  21892405.859                    21892410.809
 11  8 19  2 37  0.0000000  0  9G12G26G05G29G10G30G25G15G02
 115171672.750 7  89744229.024 7  21916440.063                    21916447.105
 121297778.720 7  94517814.84344  23082199.570                    23082207.523
 108326270.033 7  84410222.357 8  20613792.703                    20613799.223
 115972696.364 7  90368384.892 7  22068870.234                    22068876.887
 127719481.667 6  99521780.11743  24304196.055                    24304203.551
 114693871.145 8  89371941.36145  21825522.727                    21825530.559
 113807243.991 8  88681069.516 7  21656808.500                    21656818.465
 125995902.040 6  98178701.270 6  23976226.234                    23976234.320
 115086697.876 7  89678103.01345  21900265.656                    21900270.391
 11  8 19  2 37 30.0000000  0  9G12G26G05G29G10G30G25G15G02
 115246964.462 7  89802897.878 7  21930767.977                    21930775.000
 121207534.703 7  94447494.87744  23065027.055                    23065035.758
 108369338.516 8  84443782.222 8  20621988.797                    20621995.410
 115894948.685 7  90307802.314 7  22054075.156                    22054082.551
 127827833.538 6  99606210.17743  24324815.344                    24324822.281
 114731634.435 7  89401367.28645  21832708.664                    21832716.590
 113827005.519 8  88696468.113 7  21660569.500                    21660579.801
 125899797.442 6  98103814.669 6  23957937.773                    23957946.680
 115128083.470 8  89710351.53445  21908140.828                    21908146.020
 11  8 19  2 38  0.0000000  0  9G12G26G05G29G10G30G25G15G02
 115322592.353 8  89861828.699 7  21945159.609                    21945166.996
 121117479.078 7  94377321.72044  23047889.695                    23047897.914
 108412857.819 8  84477693.390 8  20630270.188                    20630276.426
 115817346.639 7  90247333.213 7  22039307.781                    22039315.336
 127936254.085 6  99690693.70843  24345446.820                    24345454.500
 114769907.570 8  89431190.50045  21839992.055                    21839999.086
 113847312.286 8  88712291.574 7  21664433.547                    21664443.531
 125803656.916 6  98028900.081 6  23939642.727                    23939651.484
 115169552.464 8  89742665.03645  21916031.828                    21916037.008
 11  8 19  2 38 30.0000000  0  9G12G26G05G29G10G30G25G15G02
 115398553.250 8  89921019.010 7  21959614.563                    21959621.418
 121027615.465 7  94307298.17844  23030789.406                    23030797.746
 108456825.827 7  84511954.188 8  20638636.711                    20638643.102
 115739892.278 7  90186979.190 7  22024568.109                    22024576.484
 128044740.979 6  99775228.90243  24366091.008                    24366099.527
 114808688.255 8  89461409.21845  21847371.453                    21847379.078
 113868162.874 8  88728538.798 7  21668401.328                    21668411.004
 125707483.094 6  97953959.542 6  23921341.508                    23921350.199
 115211105.226 7  89775043.81445  21923938.969                    21923944.543
 11  8 19  2 39  0.0000000  0  9G12G26G05G29G10G30G25G15G02
 115474844.841 7  89980466.994 7  21974132.359                    21974139.004
 120937947.705 7  94237427.23344  23013725.977                    23013733.996
 108501240.705 8  84546563.184 8  20647088.508                    20647095.496
 115662588.015 7  90126742.137 7  22009857.828                    22009865.891
 128153291.925 5  99859814.00843  24386747.563                    24386756.027
 114847974.651 8  89492021.99045  21854847.516                    21854855.230
 113889556.168 8  88745208.904 7  21672472.313                    21672482.000
 125611278.887 6  97878995.348 6  23903034.102                    23903043.172
 115252741.987 7  89807488.04245  21931862.641                    21931867.578
 11  8 19  2 39 30.0000000  0  9G12G26G05G29G10G30G25G15G02
 115551463.759 7  90040170.042 7  21988712.500                    21988719.570
 120848479.252 7  94167711.58044  22996700.859                    22996708.957
 108546099.921 8  84581518.440 8  20655625.063                    20655631.645
 115585435.993 7  90066623.705 7  21995176.195                    21995183.723
 128261904.222 5  99944446.88543  24407415.000                    24407424.391
 114887764.219 8  89523026.84445  21862419.125                    21862427.449
 113911490.653 8  88762300.724 7  21676646.227                    21676655.738
 125515047.018 7  97804009.597 6  23884722.156                    23884730.402
 115294462.531 8  89839997.56045  21939801.930                    21939806.926
 11  8 19  2 40  0.0000000  0  9G12G26G05G29G10G30G25G15G02
 115628407.186 8  90100125.950 7  22003353.930                    22003361.008
 120759213.859 7  94098154.17144  22979713.984                    22979722.305
 108591401.660 7  84616818.504 8  20664246.148                    20664252.684
 115508438.190 7  90006625.447 7  21980524.273                    21980531.727
 128370575.809 6 100029126.03943  24428094.953                    24428103.777
 114928054.827 7  89554422.11645  21870086.289                    21870093.520
 113933964.903 8  88779813.124 7  21680922.758                    21680932.574
 125418790.351 7  97729004.496 6  23866404.695                    23866413.332
 115336267.014 7  89872572.47745  21947756.828                    21947761.906
 11  8 19  2 40 30.0000000  0  9G12G26G05G29G10G30G25G15G02
 115705672.487 8  90160332.683 7  22018057.031                    22018064.527
 120670155.215 7  94028757.87844  22962766.703                    22962774.785
 108637143.159 8  84652461.250 8  20672949.984                    20672956.813
 115431596.575 7  89946748.902 7  21965902.117                    21965908.934
 128479304.131 5 100113849.44143  24448785.172                    24448793.898
 114968843.964 7  89586205.87745  21877847.602                    21877855.598
 113956977.314 8  88797744.879 7  21685301.711                    21685311.875
 125322511.366 7  97653982.029 6  23848084.125                    23848091.348
 115378155.272 8  89905212.66245  21955727.953                    21955732.910
 11  8 19  2 41  0.0000000  0  9G12G26G05G29G10G30G25G15G02
 115783256.257 7  90220787.563 7  22032821.109                    22032828.246
 120581306.946 7  93959525.48844  22945859.797                    22945867.840
 108683322.665 8  84688445.291 8  20681737.453                    20681744.758
 115354913.645 7  89886996.021 7  21951309.109                    21951316.680
 128588086.578 5 100198614.98542  24469486.422                    24469494.598
 115010129.617 7  89618376.51945  21885704.703                    21885712.293
 113980526.632 8  88816094.993 7  21689783.086                    21689792.957
 125226213.443 7  97578944.780 6  23829758.945                    23829766.188
 115420127.527 8  89937918.33245  21963714.969                    21963719.977
 11  8 19  2 41 30.0000000  0  9G12G26G05G29G10G30G25G15G02
 115861155.493 7  90281488.231 7  22047644.797                    22047652.145
 120492672.789 7  93890459.96744  22928992.539                    22929001.289
 108729937.866 8  84724768.837 7  20690608.016                    20690615.082
 115278391.450 7  89827368.388 7  21936747.523                    21936755.102
 128696920.855 6 100283420.86442  24490196.813                    24490205.277
 115051909.327 8  89650932.14645  21893655.195                    21893662.586
 114004611.280 8  88834862.268 7  21694366.445                    21694375.969
 125129899.132 7  97503894.762 6  23811430.391                    23811438.297
 115462184.072 8  89970689.67245  21971717.695                    21971723.012
 11  8 19  2 42  0.0000000  0 10G12G26G05G29G10G30G25G15G21G02
 115939367.551 8  90342432.701 7  22062528.258                    22062535.043
 120404256.240 7  93821563.97144  22912167.531                    22912175.234
 108776986.389 8  84761430.027 8  20699561.320                    20699567.969
 115202031.932 7  89767867.527 7  21922217.031                    21922224.145
 128805804.618 6 100368265.25142  24510915.922                    24510925.344
 115094180.727 8  89683870.90245  21901698.875                    21901707.242
 114029229.738 8  88854045.477 7  21699051.500                    21699061.000
 125033571.293 6  97428834.211 6  23793100.016                    23793107.785
 132301049.46615                  25176059.148
 115504324.771 7  90003526.57845  21979737.438                    21979742.531
 11  8 19  2 42 30.0000000  0 10G12G26G05G29G10G30G25G15G21G02
 116017890.129 7  90403619.103 7  22077470.438                    22077477.824
 120316061.275 7  93752840.64944  22895385.203                    22895393.063
 108824466.788 8  84798427.748 8  20708596.250                    20708602.820
 115125837.899 7  89708495.609 7  21907717.945                    21907725.336
 128914735.797 6 100453146.71842  24531645.359                    24531654.332
 115136941.806 8  89717191.24245  21909836.203                    21909844.121
 114054380.791 8  88873643.704 7  21703837.305                    21703846.797
 124937233.093 6  97353765.571 6  23774767.000                    23774775.102
 132244804.785 5                  25165356.625
 115546550.080 7  90036429.42245  21987772.336                    21987777.660
 11  8 19  2 43  0.0000000  0 10G12G26G05G29G10G30G25G15G21G02
 116096719.130 7  90465044.278 7  22092471.148                    22092478.117
 120228091.272 7  93684292.64344  22878644.734                    22878653.125
 108872376.191 8  84835759.752 7  20717713.523                    20717719.996
 115049810.793 7  89649253.769 7  21893250.102                    21893257.262
 129023711.845 6 100538063.10342  24552382.680                    24552391.844
 115180189.832 8  89750891.00245  21918066.070                    21918073.461
 114080062.480 8  88893655.419 7  21708724.516                    21708734.023
 124840887.044 6  97278690.812 6  23756433.031                    23756440.410
 132188569.694 5                  25154655.266
 115588859.878 7  90069398.09045  21995823.383                    21995828.852
 11  8 19  2 43 30.0000000  0 10G12G26G05G29G10G30G25G15G21G02
 116175852.100 7  90526706.302 7  22107529.508                    22107536.629
 120140349.969 7  93615922.81144  22861948.461                    22861956.359
 108920712.451 8  84873424.382 8  20726911.805                    20726918.051
 114973953.064 7  89590143.910 7  21878814.750                    21878822.172
 129132730.15415 100623012.38552  24573129.578                    24573136.660
 115223922.584 8  89784968.47845  21926388.234                    21926395.434
 114106273.477 8  88914079.579 7  21713712.219                    21713722.039
 124744535.998 6  97203612.173 6  23738097.742                    23738105.453
 132132343.696 6                  25143955.984
 115631254.269 7  90102432.69245  22003891.195                    22003896.281
 11  8 19  2 44  0.0000000  0 10G12G26G05G29G10G30G25G15G21G02
 116255286.498 7  90588603.220 7  22122645.461                    22122652.484
 120052841.507 7  93547734.42544  22845295.758                    22845303.316
 108969473.860 8  84911420.288 7  20736190.594                    20736196.914
 114898267.511 7  89531168.210 7  21864411.797                    21864419.664
 129241788.71116 100707992.87153  24593881.961                    24593889.879
 115268137.973 8  89819422.03845  21934802.211                    21934809.555
 114133012.424 8  88934915.112 7  21718800.258                    21718809.656
 124648183.285 6  97128532.216 6  23719762.508                    23719770.793
 132076126.701 6                  25133257.680
 115673733.944 7  90135533.75345  22011975.031                    22011979.641
 11  8 19  2 44 30.0000000  0  9G12G26G05G29G30G25G15G21G02
 116335019.167 8  90650732.557 7  22137818.281                    22137824.867
 119965569.419 7  93479730.22444  22828688.547                    22828696.316
 109018658.027 8  84949745.616 8  20745549.875                    20745556.500
 114822756.285 8  89472328.346 7  21850043.289                    21850050.547
 115312833.564 8  89854249.77045  21943307.195                    21943315.227
 114160277.717 8  88956160.804 7  21723989.055                    21723998.172
 124551831.748 7  97053453.170 6  23701427.750                    23701435.609
 132019917.843 6                  25122562.164
 115716298.544 7  90168700.98645  22020073.992                    22020079.523
 11  8 19  2 45  0.0000000  0  9G12G26G05G29G30G25G15G21G02
 116415047.292 8  90713092.130 7  22153047.031                    22153053.242
 119878537.319 7  93411913.04944  22812127.008                    22812134.945
 109068262.516 8  84988398.472 8  20754989.094                    20754995.844
 114747421.218 7  89413625.746 7  21835707.203                    21835714.902
 115358006.675 8  89889449.60645  21951903.383                    21951911.324
 114188067.500 8  88977815.186 7  21729276.758                    21729286.473
 124455484.100 7  96978377.153 6  23683093.102                    23683101.734
 131963716.237 5                  25111865.820
 115758948.453 7  90201934.68645  22028190.570                    22028195.688
 11  8 19  2 45 30.0000000  0  9G12G26G05G29G30G25G15G21G02
 116495366.837 7  90775678.762 7  22168331.266                    22168338.043
 119791748.183 7  93344285.19844  22795611.336                    22795619.133
 109118284.315 8  85027376.502 8  20764508.180                    20764515.016
 114672264.144 7  89355061.862 7  21821405.383                    21821412.766
 115403654.422 8  89925019.27545  21960589.930                    21960597.930
 114216379.647 8  88999876.595 7  21734664.719                    21734674.238
 124359142.811 7  96903306.076 6  23664760.242                    23664768.398
 131907521.068 5                  25101173.555
 115801683.232 7  90235234.52545  22036322.617                    22036327.316
 11  8 19  2 46  0.0000000  0  9G12G26G05G29G30G25G15G21G02
 116575975.166 7  90838490.423 7  22183670.797                    22183677.063
 119705205.876 7  93276849.66144  22779143.570                    22779150.555
 109168721.432 8  85066678.160 8  20774105.766                    20774112.473
 114597287.362 7  89296638.444 7  21807137.523                    21807144.418
 115449774.372 7  89960956.90145  21969366.305                    21969373.688
 114245212.591 8  89022343.817 7  21740151.156                    21740161.195
 124262810.861 7  96828242.286 6  23646428.367                    23646437.008
 131851331.819 6 102741345.32952  25090480.852                    25090486.500
 115844503.294 7  90268600.82345  22044470.852                    22044476.094
 11  8 19  2 46 30.0000000  0  9G12G26G05G29G30G25G15G21G02
 116656869.755 7  90901525.168 7  22199064.195                    22199071.258
 119618914.565 7  93209609.71444  22762721.938                    22762730.016
 109219572.178 8  85106302.124 8  20783782.453                    20783789.145
 114522493.481 7  89238357.551 7  21792904.727                    21792911.898
 115496364.377 7  89997260.81045  21978231.820                    21978240.074
 114274564.889 8  89045215.746 7  21745737.078                    21745746.266
 124166491.324 7  96753188.158 6  23628099.883                    23628107.445
 131795148.292 6 102697566.05642  25079788.727                    25079796.566
 115887408.890 7  90302033.77945  22052635.609                    22052640.578
 11  8 19  2 47  0.0000000  0  9G12G26G05G29G30G25G15G21G02
 116738047.344 7  90964780.417 7  22214512.273                    22214518.934
 119532877.556 7  93142567.93244  22746350.086                    22746358.266
 109270833.571 8  85146246.068 7  20793537.070                    20793543.668
 114447884.389 7  89180220.631 7  21778707.250                    21778714.457
 115543421.875 7  90033928.97645  21987186.688                    21987194.719
 114304434.688 8  89068490.895 7  21751420.898                    21751431.086
 124070186.855 6  96678145.776 6  23609773.359                    23609781.105
 131738969.787 6 102653790.68342  25069098.336                    25069107.293
 115930399.975 7  90335533.33945  22060816.000                    22060821.297
 11  8 19  2 47 30.0000000  0  9G12G26G05G29G30G25G15G21G02
 116819505.086 7  91028253.989 7  22230013.453                    22230019.898
 119447098.719 7  93075727.31844  22730027.047                    22730034.469
 109322503.721 8  85186508.547 8  20803369.406                    20803376.313
 114373462.534 7  89122229.617 7  21764545.164                    21764552.270
 115590944.144 7  90070959.31645  21996229.844                    21996237.695
 114334820.184 8  89092167.910 7  21757203.133                    21757212.957
 123973900.713 6  96603117.700 6  23591449.867                    23591458.723
 131682795.412 6 102610018.51343  25058408.711                    25058417.773
 115973477.063 7  90369099.89845  22069013.953                    22069018.445
 11  8 19  2 48  0.0000000  0  9G12G26G05G29G30G25G15G21G02
 116901239.822 7  91091943.380 7  22245566.438                    22245573.098
 119361581.696 7  93009090.70444  22713753.609                    22713761.461
 109374580.469 8  85227087.845 7  20813279.484                    20813286.148
 114299230.347 7  89064386.399 7  21750419.141                    21750426.504
 115638929.003 7  90108350.12245  22005361.211                    22005368.629
 114365719.856 8  89116245.569 7  21763083.109                    21763093.309
 123877636.085 6  96528106.405 6  23573131.539                    23573140.340
 131626624.989 6 102566249.46142  25047719.250                    25047728.051
 116016639.914 7  90402733.28845  22077227.492                    22077232.156
 11  8 19  2 48 30.0000000  0  9G12G26G05G29G30G25G15G21G02
 116983248.641 7  91155846.326 7  22261172.305                    22261179.117
 119276330.413 7  92942661.17744  22697530.992                    22697538.141
 109427061.489 8  85267982.152 8  20823266.219                    20823272.965
 114225189.979 7  89006692.647 7  21736329.469                    21736336.820
 115687373.960 7  90146099.43145  22014579.422                    22014587.918
 114397132.006 8  89140722.564 7  21769060.664                    21769070.688
 123781395.643 6  96453113.963 6  23554817.172                    23554826.035
 131570458.035 6 102522483.07343  25037031.320                    25037040.586
 116059888.958 7  90436433.84645  22085457.727                    22085462.195
 11  8 19  2 49  0.0000000  0  9G12G26G05G29G30G25G15G21G02
 117065528.447 7  91219960.463 7  22276829.586                    22276836.250
 119191348.254 7  92876441.34244  22681358.523                    22681366.586
 109479943.898 8  85309189.237 8  20833329.484                    20833336.250
 114151343.246 8  88949149.777 7  21722277.141                    21722284.332
 115736275.971 7  90184204.88445  22023885.602                    22023893.219
 114429054.361 8  89165597.125 7  21775135.172                    21775144.957
 123685182.091 6  96378142.444 6  23536509.438                    23536516.855
 131514293.456 6 102478718.51843  25026343.359                    25026352.406
 116103224.376 7  90470201.70345  22093704.289                    22093709.211
 11  8 19  2 49 30.0000000  0  9G12G26G05G29G30G25G15G21G02
 117148076.823 7  91284283.852 7  22292538.156                    22292545.188
 119106638.947 7  92810434.10944  22665239.156                    22665247.281
 109533225.768 8  85350707.592 8  20843468.516                    20843475.734
 114077693.070 8  88891760.064 7  21708261.789                    21708268.797
 115785632.809 7  90222664.75945  22033277.891                    22033285.270
 114461485.411 8  89190868.078 7  21781306.828                    21781316.691
 123588998.485 7  96303194.266 6  23518205.609                    23518213.766
 131458130.911 6 102434955.60642  25015656.352                    25015665.254
 116146646.496 7  90504037.12945  22101966.742                    22101972.188
 11  8 19  2 50  0.0000000  0  9G12G26G05G29G30G25G15G21G02
 117230889.936 7  91348813.522 7  22308296.953                    22308304.145
 119022206.164 7  92744642.36645  22649172.063                    22649179.910
 109586904.723 8  85392535.358 7  20853683.563                    20853690.078
 114004241.299 7  88834524.967 7  21694284.539                    21694291.793
 115835441.692 7  90261476.87845  22042756.320                    22042763.891
 114494423.166 8  89216533.857 7  21787574.563                    21787584.699
 123492847.746 7  96228271.676 6  23499908.766                    23499916.316
 131401970.031 6 102391193.97343  25004968.852                    25004977.629
 116190155.259 7  90537940.06545  22110246.281                    22110251.129
 11  8 19  2 50 30.0000000  0  9G12G26G05G29G30G25G15G21G02
 117313964.717 7  91413547.104 7  22324105.516                    22324112.695
 118938053.323 7  92679068.73544  22633158.570                    22633165.965
 109640978.333 8  85434670.645 8  20863973.398                    20863980.023
 113930990.297 8  88777446.310 7  21680345.070                    21680352.305
 115885699.846 7  90300639.07045  22052319.898                    22052328.137
 114527865.568 8  89242592.874 7  21793938.375                    21793948.352
 123396732.790 7  96153376.972 6  23481618.352                    23481625.914
 131345810.100 6 102347433.10643  24994282.063                    24994290.555
 116233750.742 7  90571910.55945  22118541.945                    22118547.086
 11  8 19  2 51  0.0000000  0  9G12G26G05G29G30G25G15G21G02
 117397298.547 7  91478482.550 7  22339963.008                    22339970.328
 118854184.585 7  92613716.50044  22617198.930                    22617206.895
 109695444.546 8  85477111.863 7  20874337.742                    20874344.723
 113857942.259 8  88720525.807 7  21666444.281                    21666451.652
 115936404.963 7  90340149.56245  22061968.688                    22061976.191
 114561811.006 8  89269043.869 7  21800398.250                    21800408.168
 123300656.909 7  96078512.713 6  23463336.422                    23463343.473
 131289650.383 6 102303672.35842  24983595.070                    24983603.887
 116277433.652 7  90605949.19445  22126855.086                    22126858.965
 11  8 19  2 51 30.0000000  0  9G12G26G05G29G30G25G15G21G02
 117480888.297 7  91543617.413 7  22355869.594                    22355877.020
 118770603.488 7  92548588.39145  22601294.180                    22601301.273
 109750300.747 8  85519856.959 7  20884776.758                    20884783.297
 113785099.773 8  88663765.472 7  21652583.008                    21652590.289
 115987554.353 7  90380006.23345  22071702.539                    22071709.988
 114596257.581 8  89295885.372 7  21806952.914                    21806962.742
 123204622.921 7  96003681.078 6  23445061.672                    23445068.855
 131233490.386 6 102259911.43143  24972908.469                    24972916.793
 116321203.743 7  90640055.76945  22135183.797                    22135189.020
 11  8 19  2 52  0.0000000  0  9G12G26G05G29G30G25G15G21G02
 117564730.628 7  91608949.089 7  22371824.555                    22371831.207
 118687313.334 7  92483687.00344  22585444.172                    22585451.902
 109805544.542 7  85562904.085 7  20895289.594                    20895295.742
 113712464.641 8  88607166.704 7  21638761.250                    21638767.922
 116039145.152 7  90420206.85645  22081519.961                    22081527.910
 114631203.056 8  89323115.623 7  21813602.875                    21813612.406
 123108633.538 7  95928884.197 6  23426794.711                    23426802.340
 131177329.562 6 102216149.82642  24962221.117                    24962229.801
 116365061.450 7  90674230.59645  22143529.992                    22143534.691
 11  8 19  2 52 30.0000000  0  9G12G26G05G29G30G25G15G21G02
 117648822.979 7  91674475.570 7  22387826.727                    22387833.836
 118604317.919 7  92419015.27844  22569650.281                    22569658.398
 109861173.415 8  85606251.263 7  20905875.180                    20905881.523
 113640039.427 8  88550731.505 7  21624979.086                    21624985.945
 116091174.672 7  90460749.35145  22091420.570                    22091427.785
 114666645.596 8  89350733.201 7  21820347.547                    21820357.023
 123012691.709 6  95854124.394 6  23408537.609                    23408545.832
 131121167.352 6 102172387.17443  24951532.898                    24951541.703
 116409006.959 7  90708473.86245  22151892.477                    22151897.352
 11  8 19  2 53  0.0000000  0  9G12G26G05G29G30G25G15G21G02
 117733161.670 7  91740194.032 7  22403875.695                    22403883.137
 118521620.798 7  92354575.98844  22553913.898                    22553921.484
 109917184.684 8  85649896.406 7  20916533.609                    20916540.414
 113567825.900 8  88494461.264 7  21611237.453                    21611244.098
 116143639.996 7  90501631.43145  22101404.313                    22101412.051
 114702582.843 8  89378736.253 7  21827185.953                    21827195.863
 122916800.507 7  95779404.048 6  23390290.422                    23390298.820
 131065003.013 6 102128622.81043  24940846.117                    24940854.547
 116453040.164 7  90742785.47545  22160271.281                    22160276.375
 11  8 19  2 53 30.0000000  0  9G12G26G05G29G30G25G15G21G02
 117817744.138 7  91806102.448 7  22419971.203                    22419978.469
 118439225.996 7  92290372.26744  22538235.086                    22538242.551
 109973576.788 8  85693838.321 8  20927264.898                    20927271.781
 113495827.271 8  88438358.466 7  21597536.234                    21597543.109
 116196538.862 7  90542851.32945  22111470.813                    22111478.422
 114739013.378 8  89407123.695 7  21834118.609                    21834127.707
 122820962.992 7  95704725.528 6  23372053.039                    23372061.070
 131008836.255 6 102084856.65142  24930157.320                    24930166.363
 116497161.735 7  90777165.94745  22168667.508                    22168672.625
 11  8 19  2 54  0.0000000  0  9G12G26G05G29G30G25G15G21G02
 117902567.355 7  91872198.446 7  22436112.914                    22436119.848
 118357137.061 7  92226406.91144  22522613.641                    22522621.457
 110030347.044 8  85738074.890 7  20938067.352                    20938074.445
 113424045.377 8  88382424.553 7  21583876.227                    21583883.543
 116249868.468 7  90584406.87145  22121618.711                    22121626.508
 114775935.030 8  89435893.827 7  21841144.711                    21841154.238
 122725182.194 6  95630091.213 6  23353826.648                    23353834.121
 130952666.478 6 102041088.08542  24919468.953                    24919477.082
 116541371.779 8  90811615.34245  22177080.648                    22177085.379
 11  8 19  2 54 30.0000000  0  9G12G26G05G29G30G25G15G21G02
 117987628.012 7  91938479.455 7  22452299.242                    22452306.734
 118275357.693 7  92162682.76145  22507051.531                    22507059.680
 110087492.819 8  85782604.071 7  20948942.609                    20948948.887
 113352482.540 8  88326661.341 7  21570258.609                    21570265.930
 116303626.069 7  90626295.92045  22131849.133                    22131856.234
 114813345.644 8  89465044.963 7  21848263.555                    21848273.113
 122629461.142 7  95555503.455 6  23335611.133                    23335619.285
 130896492.734 6 101997316.39542  24908779.195                    24908787.566
 116585670.584 7  90846133.89345  22185510.148                    22185515.137
 11  8 19  2 55  0.0000000  0  9G12G26G05G29G30G25G15G21G02
 118072923.483 7  92004943.440 7  22468530.398                    22468537.211
 118193891.639 7  92099202.76045  22491549.039                    22491557.191
 110145012.194 8  85827424.381 7  20959887.859                    20959894.504
 113281141.512 8  88271070.970 7  21556682.445                    21556690.203
 116357809.033 7  90668516.40445  22142159.414                    22142167.277
 114851243.479 8  89494575.750 7  21855475.422                    21855484.770
 122533803.291 7  95480964.947 6  23317408.797                    23317416.352
 130840314.924 6 101953541.62743  24898087.992                    24898097.453
 116630058.442 8  90880721.83545  22193957.102                    22193962.035
 11  8 19  2 55 30.0000000  0  9G12G26G05G29G30G25G15G21G02
 118158450.581 7  92071587.908 7  22484805.469                    22484813.145
 118112742.513 7  92035969.71445  22476106.609                    22476114.680
 110202902.770 8  85872533.915 7  20970904.141                    20970910.676
 113210024.300 8  88215654.985 7  21543149.938                    21543156.684
 116412414.637 7  90711066.21145  22152551.000                    22152558.266
 114889626.411 8  89524484.527 7  21862779.375                    21862788.723
 122438211.229 7  95406477.689 6  23299217.703                    23299225.641
 130784132.455 6 101909763.13842  24887397.352                    24887406.344
 116674535.731 8  90915379.47045  22202420.586                    22202425.375
 11  8 19  2 56  0.0000000  0  9G12G26G05G29G30G25G15G21G02
 118244206.023 7  92138410.315 7  22501124.398                    22501131.797
 118031913.623 7  91972986.19144  22460725.555                    22460733.223
 110261161.486 7  85917930.321 7  20981990.336                    20981996.684
 113139132.957 8  88160415.015 7  21529658.984                    21529666.418
 116467439.709 7  90753942.90645  22163021.695                    22163029.219
 114928491.960 8  89554769.369 7  21870174.977                    21870184.387
 122342687.767 7  95332043.875 6  23281040.375                    23281047.969
 130727944.591 6 101865980.49042  24876705.227                    24876713.453
 116719102.306 8  90950106.68145  22210901.242                    22210906.184
 11  8 19  2 56 30.0000000  0  9G12G26G05G29G30G25G15G21G02
 118330186.694 7  92205408.216 7  22517485.977                    22517493.047
 117951408.837 7  91910255.22245  22445406.500                    22445413.430
 110319786.224 7  85963611.935 7  20993146.023                    20993152.664
 113068469.960 8  88105352.966 7  21516212.313                    21516219.781
 116522881.623 7  90797144.41045  22173571.633                    22173579.512
 114967838.137 8  89585428.727 7  21877662.516                    21877672.418
 122247235.844 7  95257665.813 6  23262876.992                    23262883.816
 130671750.675 6 101822193.10642  24866011.719                    24866019.820
 116763758.801 8  90984903.95145  22219399.266                    22219404.188
 11  8 19  2 57  0.0000000  0  9G12G26G05G29G30G25G15G21G02
 118416389.650 7  92272579.324 7  22533889.922                    22533897.477
 117871231.686 7  91847779.55044  22430148.945                    22430156.875
 110378774.724 8  86009577.018 7  21004371.367                    21004377.809
 112998037.775 8  88050470.785 7  21502809.867                    21502817.438
 116578737.569 7  90840668.49145  22184200.773                    22184208.410
 115007662.811 8  89616460.941 7  21885240.523                    21885250.617
 122151858.709 7  95183346.005 6  23244727.031                    23244734.055
 130615550.274 6 101778400.65542  24855317.234                    24855325.355
 116808505.375 7  91019771.42645  22227914.813                    22227919.215
 11  8 19  2 57 30.0000000  0  9G12G26G05G29G30G25G15G21G02
 118502811.816 7  92339921.255 7  22550335.859                    22550342.820
 117791386.126 7  91785562.25045  22414954.383                    22414962.199
 110438124.621 8  86055823.692 7  21015665.102                    21015671.750
 112927838.541 8  87995770.135 7  21489450.969                    21489458.523
 116635004.853 7  90884513.11645  22194907.766                    22194916.137
 115047963.924 8  89647864.405 7  21892909.828                    21892919.434
 122056559.525 7  95109086.933 6  23226591.773                    23226598.926
 130559342.946 6 101734602.82142  24844620.648                    24844629.727
 116853342.095 8  91054709.13945  22236446.648                    22236451.098
 11  8 19  2 58  0.0000000  0  9G12G26G05G29G30G25G15G21G02
 118589449.830 7  92407431.385 7  22566822.359                    22566829.574
 117711875.243 7  91723605.76745  22399824.031                    22399831.941
 110497833.142 8  86102349.796 7  21027027.008                    21027034.137
 112857874.655 8  87941252.856 7  21476137.500                    21476144.398
 116691680.359 7  90928675.83745  22205692.977                    22205700.426
 115088739.005 8  89679637.203 7  21900669.422                    21900678.293
 121961341.231 7  95034890.893 6  23208472.297                    23208479.820
 130503128.053 6 101690799.07942  24833923.969                    24833932.426
 116898269.161 7  91089717.22745  22244995.992                    22245000.902
 11  8 19  2 58 30.0000000  0  9G12G26G05G29G30G25G15G21G02
 118676301.521 7  92475107.999 7  22583349.273                    22583357.215
 117632703.431 7  91661913.48345  22384758.219                    22384765.758
 110557898.440 8  86149153.923 7  21038457.273                    21038463.590
 112788148.566 8  87886920.883 7  21462869.320                    21462876.320
 116748761.728 7  90973154.82045  22216555.375                    22216563.371
 115129986.378 8  89711777.994 7  21908518.352                    21908527.973
 121866206.747 7  94960760.170 6  23190369.125                    23190376.613
 130446905.307 6 101646989.16042  24823224.969                    24823233.191
 116943287.378 7  91124796.35245  22253562.477                    22253567.016
 11  8 19  2 59  0.0000000  0  9G12G26G05G29G30G25G15G21G02
 118763362.798 7  92542947.924 7  22599916.664                    22599924.305
 117553873.628 7  91600487.69545  22369757.344                    22369765.156
 110618317.445 8  86196233.660 7  21049954.648                    21049961.477
 112718662.362 8  87832775.822 7  21449646.547                    21449653.984
 116806245.709 7  91017947.50845  22227494.156                    22227502.031
 115171703.433 8  89744284.791 7  21916456.703                    21916465.738
 121771159.239 7  94886697.235 6  23172281.258                    23172289.004
 130390673.826 6 101603172.48442  24812525.383                    24812532.645
 116988396.567 7  91159946.37245  22262146.492                    22262151.105
 11  8 19  2 59 30.0000000  0  9G12G26G05G29G30G25G15G21G02
 118850630.961 7  92610949.079 7  22616523.805                    22616530.707
 117475389.641 7  91539331.36645  22354822.094                    22354829.855
 110679087.912 8  86243587.263 7  21061518.750                    21061525.449
 112649418.710 8  87778819.767 7  21436469.617                    21436476.902
 116864129.634 7  91063051.85045  22238509.102                    22238516.879
 115213888.076 8  89777155.943 7  21924484.125                    21924493.875
 121676201.635 6  94812704.353 6  23154211.867                    23154219.719
 130334433.141 6 101559348.65443  24801822.141                    24801830.656
 117033597.253 7  91195167.68345  22270748.008                    22270752.656
 11  8 19  3  0  0.0000000  0  9G12G26G05G29G30G25G15G21G02
 118938103.326 7  92679109.347 7  22633168.836                    22633175.953
 117397255.260 7  91478447.46445  22339953.609                    22339961.945
 110740207.538 8  86291212.952 7  21073149.820                    21073156.199
 112580419.694 8  87725054.347 7  21423339.781                    21423346.121
 116922410.567 7  91108465.57245  22249599.633                    22249607.641
 115256538.100 8  89810389.719 7  21932600.008                    21932610.098
 121581337.050 7  94738783.982 6  23136159.398                    23136167.480
 130278182.641 6 101515517.17243  24791117.508                    24791126.484
 117078889.756 7  91230460.52645  22279366.477                    22279371.945
 11  8 19  3  0 30.0000000  0  9G12G26G05G29G30G25G15G21G02
 119025776.252 7  92747425.873 7  22649852.406                    22649859.742
 117319474.002 7  91417838.71845  22325152.523                    22325160.293
 110801673.669 8  86339108.652 7  21084846.180                    21084852.777
 112511667.902 8  87671481.565 7  21410256.539                    21410263.258
 116981085.597 7  91154186.35345  22260765.047                    22260772.801
 115299651.125 8  89843984.278 7  21940804.328                    21940813.789
 121486568.677 7  94664938.555 6  23118125.680                    23118133.363
 130221921.861 6 101471677.67143  24780411.961                    24780420.504
 117124274.300 7  91265825.09445  22288003.289                    22288007.848
 11  8 19  3  1  0.0000000  0  9G12G26G05G29G30G25G15G21G02
 119113646.629 7  92815896.265 7  22666574.039                    22666580.820
 117242049.158 7  91357507.69445  22310419.102                    22310426.680
 110863483.923 8  86387272.483 7  21096608.547                    21096614.770
 112443165.730 8  87618103.287 7  21397220.969                    21397227.930
 117040151.609 7  91200211.79645  22272005.367                    22272012.777
 115343224.756 8  89877937.760 7  21949096.523                    21949105.621
 121391899.487 7  94591170.395 7  23100110.805                    23100118.789
 130165650.304 6 101427829.79443  24769703.875                    24769712.594
 117169751.059 7  91301261.51045  22296656.875                    22296662.418
 11  8 19  3  1 30.0000000  0  9G12G26G05G29G30G25G15G21G02
 119201711.694 7  92884518.379 7  22683332.016                    22683338.641
 117164984.633 7  91297457.44545  22295754.336                    22295761.703
 110925635.903 8  86435702.593 7  21108435.633                    21108442.188
 112374915.024 8  87564920.964 7  21384233.297                    21384240.469
 117099605.960 7  91246539.85045  22283319.047                    22283326.520
 115387256.843 8  89912248.470 7  21957475.141                    21957484.781
 121297332.530 7  94517481.910 7  23082115.742                    23082123.172
 130109367.361 6 101383973.08343  24758993.750                    24759001.641
 117215320.377 7  91336770.06645  22305328.602                    22305333.910
 11  8 19  3  2  0.0000000  0  9G12G26G05G29G30G25G15G21G02
 119289968.530 7  92953289.921 7  22700126.453                    22700134.020
 117088284.215 7  91237690.90545  22281158.758                    22281166.074
 110988127.586 8  86484397.410 7  21120327.461                    21120333.656
 112306918.776 8  87511936.923 7  21371293.969                    21371301.402
 117159446.108 7  91293168.52945  22294705.953                    22294713.488
 115431745.388 8  89946914.859 7  21965940.898                    21965950.855
 121202871.229 7  94443875.757 6  23064139.570                    23064147.145
 130053072.757 6 101340107.21143  24748280.547                    24748289.137
 117260982.925 7  91372351.23445  22314018.047                    22314023.398
 11  8 19  3  2 30.0000000  0  9G12G26G05G29G30G25G15G21G02
 119378414.026 7  93022208.468 6  22716957.219                    22716964.121
 117011951.405 7  91178210.83145  22266633.070                    22266640.762
 111050956.362 7  86533354.906 7  21132283.656                    21132289.426
 112239179.404 8  87459153.033 7  21358403.414                    21358410.430
 117219668.786 7  91340095.27745  22306165.969                    22306173.539
 115476687.898 8  89981934.997 7  21974493.570                    21974503.574
 121108518.230 7  94370353.967 6  23046185.547                    23046192.195
 129996766.005 6 101296231.94142  24737565.695                    24737573.859
 117306738.805 7  91408005.15745  22322725.055                    22322730.234
 11  8 19  3  3  0.0000000  0  9G12G26G05G29G30G25G15G21G02
 119467044.337 7  93091271.022 7  22733823.336                    22733830.422
 116935989.314 7  91119019.61445  22252177.695                    22252185.105
 111114119.091 8  86582572.634 7  21144302.828                    21144309.223
 112171698.278 8  87406570.380 7  21345562.031                    21345568.813
 117280270.496 7  91387317.38845  22317697.625                    22317706.074
 115522081.380 8  90017306.530 7  21983131.539                    21983140.945
 121014276.163 7  94296918.625 6  23028251.188                    23028258.406
 129940445.955 6 101252346.24442  24726849.008                    24726856.340
 117352588.134 7  91443731.90245  22331450.031                    22331455.168
 11  8 19  3  3 30.0000000  0  9G12G26G05G29G30G25G15G21G02
 119555857.659 7  93160476.178 7  22750723.898                    22750730.934
 116860401.926 7  91060120.38845  22237794.297                    22237801.895
 111177613.877 8  86632049.098 7  21156385.188                    21156391.934
 112104478.587 8  87354191.449 7  21332770.742                    21332777.906
 117341249.060 7  91434833.14145  22329301.781                    22329309.852
 115567924.275 8  90053028.266 7  21991855.344                    21991864.969
 120920149.054 7  94223572.865 6  23010339.516                    23010346.855
 129884112.530 6 101208450.14643  24716128.906                    24716135.957
 117398531.482 7  91479531.89845  22340192.750                    22340197.477
 11  8 19  3  4  0.0000000  0  9G12G26G05G29G30G25G15G21G02
 119644849.864 7  93229820.733 7  22767658.625                    22767665.613
 116785192.539 7  91001515.69945  22223482.289                    22223489.578
 111241437.890 8  86681782.105 7  21168530.773                    21168536.777
 112037522.415 8  87302017.842 7  21320029.445                    21320036.227
 117402601.213 7  91482640.01545  22340977.352                    22340984.777
 115614213.749 8  90089097.983 7  22000663.477                    22000673.605
 120826139.306 7  94150318.552 6  22992450.359                    22992457.922
 129827765.138 6 101164543.24243  24705406.055                    24705413.832
 117444569.072 7  91515405.33845  22348953.305                    22348958.027
 11  8 19  3  4 30.0000000  0  9G12G26G05G29G30G25G15G21G02
 119734018.095 7  93299302.451 7  22784626.594                    22784633.824
 116710364.764 7  90943208.36645  22209243.039                    22209250.148
 111305588.911 8  86731769.924 7  21180738.016                    21180744.582
 111970832.233 8  87250051.510 7  21307338.359                    21307345.648
 117464323.836 7  91530735.54745  22352722.250                    22352730.238
 115660947.457 8  90125513.856 7  22009556.844                    22009566.793
 120732250.331 7  94077158.357 6  22974583.023                    22974590.871
 129771403.449 6 101120625.11942  24694680.305                    24694688.793
 117490701.069 7  91551352.32745  22357731.867                    22357736.750
 11  8 19  3  5  0.0000000  0 10G12G26G05G29G18G30G25G15G21G02
 119823359.273 7  93368918.940 7  22801628.039                    22801635.895
 116635922.253 7  90885201.25645  22195076.727                    22195084.402
 111370064.393 8  86782010.573 7  21193007.234                    21193013.848
 111904410.216 8  87198294.123 7  21294698.648                    21294705.707
 129653519.39516 101028788.19653  24672253.203                    24672262.867
 117526414.085 7  91579117.55045  22364538.031                    22364545.324
 115708123.053 8  90162274.049 7  22018533.680                    22018543.473
 120638484.967 6  94004094.490 6  22956739.844                    22956747.871
 129715026.624 6 101076695.30942  24683952.039                    24683960.418
 117536928.053 7  91587373.32545  22366528.359                    22366533.191
 11  8 19  3  5 30.0000000  0 10G12G26G05G29G18G30G25G15G21G02
 119912870.346 7  93438667.819 7  22818660.453                    22818668.117
 116561868.236 7  90827496.85645  22180984.828                    22180991.965
 111434861.774 8  86832502.046 7  21205337.875                    21205344.227
 111838258.763 8  87146747.572 7  21282110.789                    21282117.453
 129563978.624 6 100959016.38243  24655213.844                    24655223.945
 117588868.860 7  91627783.61045  22376422.555                    22376430.016
 115755737.911 8  90199376.532 7  22027594.695                    22027604.094
 120544846.366 7  93931129.405 6  22938921.039                    22938929.105
 129658634.074 6 101032753.15542  24673220.859                    24673229.297
 117583250.127 7  91623468.44545  22375343.711                    22375348.527
 11  8 19  3  6  0.0000000  0 10G12G26G05G29G18G30G25G15G21G02
 120002547.899 7  93508546.427 7  22835726.266                    22835733.887
 116488206.210 7  90770097.90445  22166967.672                    22166974.773
 111499978.301 8  86883242.207 7  21217729.273                    21217735.500
 111772380.055 8  87095413.539 7  21269574.492                    21269581.207
 129474601.843 6 100889372.34243  24638206.727                    24638215.848
 117651684.847 7  91676731.12645  22388376.047                    22388384.055
 115803789.369 8  90236819.220 7  22036738.453                    22036748.395
 120451337.332 7  93858265.245 6  22921127.086                    22921134.820
 129602225.127 6 100988798.26043  24662486.688                    24662494.406
 117629667.578 7  91659637.89645  22384176.656                    22384181.559
 11  8 19  3  6 30.0000000  0 10G12G26G05G29G18G30G25G15G21G02
 120092389.311 7  93578552.690 7  22852822.445                    22852830.008
 116414940.113 7  90713007.47345  22153025.281                    22153032.461
 111565411.981 8  86934229.493 7  21230180.820                    21230186.988
 111706776.762 8  87044294.116 7  21257090.320                    21257097.352
 129385390.728 6 100819857.43643  24621229.336                    24621239.215
 117714859.561 7  91725958.17645  22400398.289                    22400405.207
 115852275.387 8  90274600.520 7  22045964.984                    22045974.566
 120357961.158 7  93785504.634 6  22903358.781                    22903366.012
 129545799.885 6 100944830.66943  24651749.172                    24651757.055
 117676180.834 7  91695881.99745  22393027.852                    22393032.539
 11  8 19  3  7  0.0000000  0 10G12G26G05G29G18G30G25G15G21G02
 120182391.605 7  93648684.322 7  22869949.664                    22869956.719
 116342073.425 7  90656228.26545  22139159.141                    22139166.711
 111631160.499 8  86985462.105 7  21242692.109                    21242698.863
 111641451.523 8  86993391.357 7  21244659.570                    21244666.195
 129296346.756 6 100750472.76043  24604285.773                    24604294.777
 117778390.021 7  91775462.43145  22412487.586                    22412494.938
 115901193.642 7  90312718.641 7  22055274.375                    22055283.574
 120264721.579 7  93712850.445 6  22885615.461                    22885622.813
 129489357.837 6 100900849.98243  24641008.797                    24641016.625
 117722790.537 7  91732201.23745  22401897.180                    22401901.926
 11  8 19  3  7 30.0000000  0 10G12G26G05G29G18G30G25G15G21G02
 120272551.607 7  93718938.845 7  22887106.625                    22887113.848
 116269609.409 7  90599762.83345  22125370.078                    22125376.957
 111697220.861 8  87036937.717 7  21255263.125                    21255269.535
 111576406.353 8  86942706.834 7  21232281.680                    21232288.734
 129207471.257 6 100681219.38442  24587371.789                    24587381.480
 117842272.999 7  91825241.35945  22424643.648                    22424651.680
 115950541.334 8  90351171.394 7  22064664.555                    22064674.207
 120171621.122 7  93640304.673 7  22867899.234                    22867906.906
 129432898.074 6 100856855.48543  24630265.008                    24630272.578
 117769496.925 7  91768595.81945  22410785.320                    22410789.918
 11  8 19  3  8  0.0000000  0 10G12G26G05G29G18G30G25G15G21G02
 120362866.648 7  93789314.190 7  22904292.641                    22904299.770
 116197552.460 7  90543614.57545  22111658.008                    22111665.047
 111763591.765 8  87088655.318 7  21267893.086                    21267899.844
 111511644.354 8  86892242.960 7  21219957.609                    21219964.918
 129118765.752 6 100612098.41342  24570491.867                    24570500.789
 117906506.140 7  91875293.15445  22436866.672                    22436874.578
 116000316.737 8  90389957.406 7  22074136.570                    22074145.953
 120078663.411 7  93567870.142 7  22850210.063                    22850217.078
 129376420.784 6 100812847.32843  24619517.258                    24619524.809
 117816300.746 7  91805066.31545  22419691.781                    22419696.551
 11  8 19  3  8 30.0000000  0 10G12G26G05G29G18G30G25G15G21G02
 120453333.224 7  93859807.613 6  22921507.953                    22921515.148
 116125905.284 7  90487785.65045  22098023.750                    22098031.008
 111830269.871 8  87140612.283 7  21280581.664                    21280587.785
 111447167.440 8  86842001.218 7  21207688.461                    21207695.184
 129030231.121 6 100543110.65442  24553644.477                    24553653.609
 117971085.888 7  91925615.02845  22449156.078                    22449163.934
 116050516.713 8  90429074.275 7  22083689.453                    22083698.820
 119985851.216 7  93495548.982 6  22832548.109                    22832555.305
 129319925.106 6 100768824.84743  24608766.297                    24608773.789
 117863202.173 7  91841612.89345  22428616.789                    22428621.504
 11  8 19  3  9  0.0000000  0 10G12G26G05G29G18G30G25G15G21G02
 120543948.368 7  93930416.796 7  22938751.570                    22938758.793
 116054671.455 7  90432278.80345  22084468.133                    22084475.863
 111897252.920 8  87192806.871 7  21293327.883                    21293334.824
 111382977.651 8  86791983.233 7  21195473.289                    21195480.375
 128941868.509 6 100474256.84642  24536829.625                    24536839.301
 118036009.114 7  91976204.54945  22461510.625                    22461518.637
 116101138.657 8  90468519.935 7  22093322.516                    22093332.121
 119893187.599 7  93423343.602 7  22814915.336                    22814922.578
 129263410.510 6 100724787.64543  24598011.781                    24598019.430
 117910201.347 7  91878235.61445  22437560.328                    22437564.934
 11  8 19  3  9 30.0000000  0 10G12G26G05G29G18G30G25G15G21G02
 120634708.971 7  94001139.349 6  22956022.734                    22956029.629
 115983854.319 7  90377096.63945  22070992.484                    22070999.844
 111964538.134 8  87245236.908 7  21306132.195                    21306138.434
 111319077.457 8  86742190.893 7  21183313.797                    21183320.379
 128853679.078 6 100405538.03142  24520047.094                    24520056.902
 118101272.776 7  92027059.32645  22473930.320                    22473937.699
 116152180.036 8  90508292.438 7  22103035.328                    22103044.934
 119800675.711 7  93351256.455 7  22797310.500                    22797317.809
 129206876.423 6 100680735.16043  24587253.508                    24587261.410
 117957298.778 7  91914934.93045  22446522.875                    22446527.238
 11  8 19  3 10  0.0000000  0 10G12G26G05G29G18G30G25G15G21G02
 120725611.962 7  94071972.833 7  22973320.781                    22973328.098
 115913457.548 7  90322242.03645  22057596.531                    22057603.668
 112032123.260 8  87297900.651 7  21318993.273                    21318999.516
 111255469.546 8  86692626.314 7  21171209.531                    21171215.906
 128765664.391 6 100336955.28243  24503298.984                    24503308.438
 118166873.798 7  92078177.01045  22486413.805                    22486420.793
 116203638.375 8  90548389.836 7  22112827.664                    22112837.105
 119708318.755 7  93279290.052 6  22779735.516                    22779743.133
 129150322.485 6 100636667.32143  24576492.039                    24576499.207
 118004494.743 7  91951710.98945  22455503.344                    22455508.703
 11  8 19  3 10 30.0000000  0 10G12G26G05G29G18G30G25G15G21G02
 120816653.717 7  94142914.426 6  22990645.828                    22990652.766
 115843483.822 7  90267717.08845  22044280.391                    22044288.246
 112100004.957 8  87350795.479 7  21331910.359                    21331916.992
 111192155.682 8  86643290.860 7  21159161.375                    21159168.438
 128677825.307 6 100268509.41943  24486582.930                    24486592.238
 118232808.701 7  92129554.84145  22498960.320                    22498967.672
 116255510.566 8  90588809.720 7  22122698.648                    22122708.008
 119616119.296 7  93207446.365 6  22762190.211                    22762197.262
 129093747.845 6 100592583.31643  24565725.320                    24565733.371
 118051789.431 7  91988563.98245  22464503.422                    22464508.344
 11  8 19  3 11  0.0000000  0 10G12G26G05G29G18G30G25G15G21G02
 120907832.069 7  94213962.494 6  23007995.859                    23008003.398
 115773937.639 7  90213525.29245  22031046.055                    22031053.691
 112168182.134 8  87403920.562 7  21344884.023                    21344890.582
 111129138.818 8  86594186.841 7  21147169.305                    21147176.297
 128590163.647 6 100200201.79842  24469901.797                    24469910.660
 118299075.036 7  92181190.93545  22511569.703                    22511578.285
 116307794.770 8  90629550.662 7  22132647.563                    22132657.270
 119524081.033 7  93135728.270 6  22744676.102                    22744683.375
 129037152.652 6 100548483.30043  24554955.484                    24554963.816
 118099183.474 7  92025494.42045  22473522.203                    22473526.836
 11  8 19  3 11 30.0000000  0 10G12G26G05G29G18G30G25G15G21G02
 120999143.471 7  94285114.229 6  23025372.273                    23025379.516
 115704821.930 7  90159668.92645  22017894.008                    22017901.594
 112236651.582 8  87457273.386 7  21357913.242                    21357919.684
 111066421.087 8  86545315.911 7  21135234.672                    21135241.305
 128502680.245 6 100132033.03242  24453254.328                    24453262.742
 118365669.456 7  92233082.67345  22524242.961                    22524250.813
 116360488.035 8  90670610.332 7  22142674.992                    22142684.656
 119432207.564 7  93064138.601 6  22727193.234                    22727200.500
 128980536.065 6 100504366.58043  24544182.195                    24544189.660
 118146677.201 7  92062502.49345  22482559.836                    22482564.797
 11  8 19  3 12  0.0000000  0 10G12G26G05G29G18G30G25G15G21G02
 121090585.341 7  94356367.631 7  23042773.211                    23042780.379
 115636140.568 7  90106151.01545  22004824.523                    22004831.492
 112305411.509 8  87510852.556 7  21370998.117                    21371004.336
 111004005.460 8  86496680.388 7  21123357.352                    21123363.875
 128415376.977 6 100064004.64942  24436640.906                    24436649.758
 118432589.314 7  92285228.00345  22536976.766                    22536984.719
 116413588.151 8  90711987.044 7  22152779.516                    22152788.887
 119340501.389 7  92992679.282 6  22709742.008                    22709749.586
 128923897.832 6 100460233.03543  24533404.969                    24533412.336
 118194271.220 7  92099588.72745  22491617.445                    22491622.207
 11  8 19  3 12 30.0000000  0 10G12G26G05G29G18G30G25G15G21G02
 121182154.178 7  94427719.944 7  23060198.281                    23060205.230
 115567896.665 7  90052973.96845  21991837.953                    21991846.012
 112374458.990 8  87564655.796 7  21384137.273                    21384143.832
 110941894.089 8  86448281.950 7  21111538.008                    21111545.078
 128328254.544 6  99996117.16442  24420062.266                    24420071.215
 118499831.246 7  92337624.31745  22549773.000                    22549781.078
 116467092.236 8  90753678.537 7  22162961.094                    22162971.332
 119248965.105 7  92921352.335 7  22692322.914                    22692330.500
 128867237.555 6 100416082.31143  24522622.125                    24522629.605
 118241965.895 7  92136753.38545  22500693.117                    22500698.035
 11  8 19  3 13  0.0000000  0 10G12G26G05G29G18G30G25G15G21G02
 121273846.993 7  94499168.856 7  23077646.305                    23077653.922
 115500093.144 7  90000140.08545  21978935.258                    21978942.875
 112443791.239 8  87618680.924 7  21397331.086                    21397337.371
 110880088.638 8  86400121.876 7  21099776.414                    21099783.715
 128241314.074 6  99928371.46542  24403517.203                    24403526.324
 118567391.763 7  92390268.85845  22562629.539                    22562637.434
 116520997.343 8  90795682.492 7  22173218.594                    22173228.727
 119157602.582 7  92850160.796 7  22674937.266                    22674944.813
 128810554.121 6 100371913.53743  24511835.508                    24511843.375
 118289761.432 7  92173996.65345  22509788.078                    22509793.043
 11  8 19  3 13 30.0000000  0 10G12G26G05G29G18G30G25G15G21G02
 121365660.446 7  94570711.797 7  23095118.125                    23095125.781
 115432733.707 7  89947652.23845  21966117.273                    21966124.980
 112513405.779 8  87672926.039 7  21410578.266                    21410584.566
 110818591.364 8  86352201.963 7  21088074.172                    21088081.047
 128154556.462 6  99860768.28042  24387007.984                    24387016.344
 118635267.861 7  92443159.28945  22575545.992                    22575553.770
 116575300.840 8  90837996.893 7  22183552.578                    22183561.953
 119066416.363 7  92779106.643 7  22657585.508                    22657592.508
 128753847.504 6 100327726.69843  24501044.063                    24501051.656
 118337658.071 7  92211318.70945  22518902.289                    22518908.270
 11  8 19  3 14  0.0000000  0 10G12G26G05G29G18G30G25G15G21G02
 121457591.712 7  94642346.542 6  23112612.289                    23112619.309
 115365822.008 7  89895513.27445  21953384.398                    21953391.723
 112583300.483 8  87727389.438 7  21423878.422                    21423884.859
 110757405.586 8  86304524.769 7  21076430.680                    21076437.559
 128067983.612 6  99793309.05643  24370533.688                    24370542.168
 118703456.730 7  92496293.47545  22588521.898                    22588529.590
 116630000.328 7  90880619.873 7  22193961.352                    22193970.852
 118975410.174 7  92708192.779 7  22640266.875                    22640274.902
 128697117.440 6 100283521.58643  24490249.055                    24490255.820
 118385656.429 7  92248720.01945  22528036.828                    22528041.883
 11  8 19  3 14 30.0000000  0 10G12G26G05G29G18G30G25G15G21G02
 121549637.732 7  94714070.694 6  23130128.070                    23130135.887
 115299360.962 7  89843725.47845  21940737.492                    21940744.758
 112653472.751 8  87782069.123 7  21437231.891                    21437238.367
 110696533.193 8  86257091.769 7  21064847.234                    21064853.859
 127981596.278 6  99725994.40943  24354094.336                    24354102.828
 118771954.973 7  92549668.72244  22601556.906                    22601564.172
 116685092.970 7  90923549.182 7  22204445.297                    22204455.184
 118884586.841 7  92637421.391 7  22622983.844                    22622991.730
 128640363.335 6 100239297.72443  24479448.703                    24479456.285
 118433756.835 7  92286200.84645  22537189.305                    22537194.594
 11  8 19  3 15  0.0000000  0 10G12G26G05G29G18G30G25G15G21G02
 121641795.807 7  94785882.176 6  23147664.789                    23147672.395
 115233354.070 7  89792291.58045  21928176.578                    21928183.773
 112723920.060 8  87836963.129 7  21450637.242                    21450644.109
 110635976.841 8  86209905.022 7  21053323.953                    21053330.477
 127895395.976 6  99658825.47743  24337691.250                    24337699.906
 118840759.576 7  92603282.69345  22614649.633                    22614657.422
 116740576.060 7  90966782.736 7  22215003.133                    22215013.145
 118793949.513 7  92566794.962 7  22605736.141                    22605743.695
 128583584.973 6 100195054.97644  24468644.234                    24468651.617
 118481959.519 7  92323761.33545  22546362.211                    22546367.363
 11  8 19  3 15 30.0000000  0 10G12G26G05G29G18G30G25G15G21G02
 121734062.733 7  94857778.456 6  23165222.539                    23165230.590
 115167804.752 7  89741214.21245  21915702.945                    21915710.297
 112794640.030 8  87892069.603 7  21464094.906                    21464101.895
 110575738.480 8  86162966.074 7  21041860.703                    21041867.809
 127809383.667 6  99591803.03543  24321323.719                    24321332.164
 118909867.384 7  92657132.92244  22627800.211                    22627807.535
 116796446.908 7  91010318.454 7  22225635.039                    22225645.027
 118703501.477 7  92496316.019 7  22588524.922                    22588532.219
 128526781.354 7 100150792.53843  24457834.703                    24457841.680
 118530265.265 7  92361402.17645  22555554.539                    22555559.703
 11  8 19  3 16  0.0000000  0 10G12G26G05G29G18G30G25G15G21G02
 121826435.049 7  94929756.866 6  23182800.578                    23182808.570
 115102716.282 7  89690495.95245  21903317.094                    21903324.355
 112865630.326 8  87947386.719 7  21477603.914                    21477611.277
 110515820.747 8  86116276.946 7  21030458.445                    21030465.473
 127723560.501 6  99524927.98343  24304992.172                    24305000.590
 118979275.263 7  92711216.95945  22641008.289                    22641016.004
 116852702.905 7  91054154.272 7  22236339.844                    22236350.305
 118613245.787 7  92425986.945 7  22571349.492                    22571357.254
 128469952.401 6 100106510.36443  24447021.008                    24447028.164
 118578674.388 7  92399123.58345  22564766.125                    22564771.473
 11  8 19  3 16 30.0000000  0 10G12G26G05G29G18G30G25G15G21G02
 121918910.093 7  95001815.325 6  23200397.781                    23200405.328
 115038092.045 7  89640139.42645  21891019.375                    21891027.063
 112936888.408 8  88002912.498 7  21491164.422                    21491170.480
 110456225.994 8  86069839.493 7  21019118.430                    21019124.898
 127637927.913 6  99458201.39143  24288696.438                    24288704.773
 119048980.174 7  92765532.48845  22654272.727                    22654280.020
 116909341.316 7  91098288.084 7  22247118.180                    22247128.258
 118523185.732 7  92355810.330 7  22554211.539                    22554218.977
 128413097.586 6 100062208.05043  24436201.453                    24436209.320
 118627187.374 7  92436925.88445  22573998.469                    22574003.246
 11  8 19  3 17  0.0000000  0 10G12G26G05G29G18G30G25G15G21G02
 122011484.719 7  95073951.365 6  23218014.500                    23218022.082
 114973935.065 7  89590147.00945  21878810.813                    21878818.160
 113008411.791 8  88058644.988 7  21504774.617                    21504780.938
 110396956.487 8  86023655.503 7  21007839.641                    21007846.293
 127552486.744 6  99391623.96443  24272437.719                    24272445.723
 119118978.817 7  92820076.87945  22667593.336                    22667601.117
 116966359.272 7  91142717.661 7  22257968.250                    22257978.293
 118433323.991 7  92285788.238 7  22537111.320                    22537118.641
 128356216.485 6 100017885.22443  24425376.383                    24425383.605
 118675804.434 7  92474809.30045  22583249.609                    22583254.477
 11  8 19  3 17 30.0000000  0 10G12G26G05G29G18G30G25G15G21G02
 122104156.125 7  95146162.850 6  23235649.344                    23235656.844
 114910248.789 7  89540521.36545  21866691.508                    21866698.719
 113080198.117 8  88114582.383 7  21518434.664                    21518441.465
 110338014.619 8  85977726.800 7  20996623.438                    20996630.121
 127467238.259 6  99325196.69243  24256215.641                    24256224.281
 119189268.110 7  92874847.75745  22680968.859                    22680976.719
 117023754.109 7  91187440.883 7  22268889.789                    22268899.949
 118343663.706 7  92215923.126 7  22520049.648                    22520057.512
 128299308.781 6  99973541.69143  24414547.609                    24414554.906
 118724526.112 7  92512774.24445  22592521.141                    22592525.773
 11  8 19  3 18  0.0000000  0 10G12G26G05G29G18G30G25G15G21G02
 122196920.993 7  95218447.135 6  23253301.680                    23253309.180
 114847036.644 7  89491265.17745  21854662.578                    21854669.875
 113152244.979 8  88170722.782 7  21532144.813                    21532151.141
 110279402.845 7  85932055.302 7  20985469.883                    20985476.609
 127382183.625 6  99258920.49643  24240029.609                    24240038.473
 119259844.939 7  92929842.68645  22694398.852                    22694407.422
 117081523.025 7  91232455.618 7  22279883.289                    22279892.867
 118254208.517 7  92146217.812 7  22503027.141                    22503034.371
 128242374.090 6  99929177.11143  24403713.516                    24403720.957
 118773352.739 7  92550820.94245  22601812.852                    22601817.453
 11  8 19  3 18 30.0000000  0 10G12G26G05G29G18G30G25G15G21G02
 122289776.273 7  95290801.846 6  23270971.805                    23270978.859
 114784301.361 7  89442380.56645  21842724.539                    21842731.570
 113224549.578 8  88227064.022 7  21545904.000                    21545910.715
 110221122.972 7  85886642.420 7  20974379.086                    20974386.027
 127297323.505 6  99192795.83843  24223880.859                    24223889.320
 119330705.874 7  92985058.97945  22707883.250                    22707891.160
 117139663.055 7  91277759.545 7  22290947.242                    22290957.000
 118164961.045 7  92076674.356 7  22486043.953                    22486051.438
 128185411.663 6  99884790.91043  24392874.055                    24392880.840
 118822284.808 7  92588949.80545  22611124.156                    22611128.766
 11  8 19  3 19  0.0000000  0 10G12G26G05G29G18G30G25G15G21G02
 122382719.030 7  95363224.750 6  23288658.516                    23288665.457
 114722046.643 7  89393870.42645  21830878.000                    21830885.395
 113297109.380 8  88283604.127 7  21559711.844                    21559718.461
 110163177.764 8  85841490.332 7  20963352.906                    20963359.238
 127212659.204 6  99126823.75343  24207769.766                    24207777.672
 119401847.863 7  93040494.30645  22721420.727                    22721428.719
 117198171.592 7  91323350.590 7  22302081.461                    22302091.129
 118075924.552 7  92007295.301 7  22469100.422                    22469107.961
 128128421.352 6  99840382.97443  24382027.898                    24382035.738
 118871322.811 7  92627161.25845  22620455.805                    22620460.355
